Date StartTime U_cm/s V_cm/s W_cm/s Ustd_cm/s Vstd_cm/s Wstd_cm/s Uvar_(cm/s)^2 Vvar_(cm/s)^2 Wvar_(cm/s)^2 KE_(m/s)^2 TurbulentKE_(m/s)^2 HorizWindSpeed_cm/s FrictionSpeec_cm/s DragCoef SpeedOfSound_m/s SonicTemperature_C Pressure_mb 
05/06/2014  00:00:00      -59.922      300.326      -31.373       76.437      152.086       53.112     5842.597    23130.043     2820.884        6.328        1.590      306.246       56.389        0.034      336.054        7.094      855.297
05/06/2014  00:01:00     -146.125      195.561      -27.556       87.365      106.989       41.101     7632.683    11446.686     1689.323        4.056        1.038      244.124       27.010        0.012      336.072        7.126      855.295
05/06/2014  00:02:00      -24.298      147.261      -21.276       53.365       48.459       34.077     2847.827     2348.317     1161.263        1.454        0.318      149.252       21.535        0.021      336.080        7.140      855.265
05/06/2014  00:03:00      -35.412      231.102      -22.796       59.703      142.501       35.652     3564.425    20306.431     1271.059        4.016        1.257      233.799       48.945        0.044      336.087        7.152      855.269
05/06/2014  00:04:00      -47.170      176.687      -17.112       68.156      114.921       42.302     4645.224    13206.853     1789.434        2.668        0.982      182.875       52.308        0.082      336.097        7.168      855.261
05/06/2014  00:05:00      -82.016       51.319      -22.201       50.167       61.243       39.521     2516.730     3750.657     1561.881        0.884        0.391       96.748       37.506        0.150      336.188        7.320      855.246
05/06/2014  00:06:00      -26.949      273.760      -35.853       70.536      154.859       40.511     4975.331    23981.212     1641.165        5.377        1.530      275.083       52.600        0.037      336.082        7.142      855.248
05/06/2014  00:07:00      -73.321      268.424      -31.839       58.088       93.140       39.247     3374.159     8675.105     1540.364        4.601        0.679      278.258       42.029        0.023      336.044        7.077      855.232
05/06/2014  00:08:00       25.618      140.397      -15.136       62.793       87.679       56.832     3942.908     7687.580     3229.918        1.773        0.743      142.715       48.447        0.115      335.988        6.988      855.227
05/06/2014  00:09:00      -47.177      321.254      -47.064       71.864      100.660       43.463     5164.489    10132.418     1889.021        6.241        0.859      324.700       40.222        0.015      335.968        6.952      855.239
05/06/2014  00:10:00      -12.162      269.955      -26.639       72.973       98.586       51.225     5325.036     9719.224     2624.026        4.570        0.883      270.229       50.082        0.034      335.990        6.987      855.234
05/06/2014  00:11:00      -65.444      400.840      -51.176       87.627      107.732       49.688     7678.547    11606.079     2468.873        9.466        1.088      406.147       55.640        0.019      335.983        6.977      855.245
05/06/2014  00:12:00      -66.381      274.293      -21.904       68.726      148.374       62.247     4723.272    22014.877     3874.736        5.536        1.531      282.211       74.639        0.070      336.028        7.052      855.228
05/06/2014  00:13:00      -17.028      335.562      -45.167       68.688      118.954       61.908     4718.090    14150.082     3832.631        6.881        1.135      335.994       71.826        0.046      335.992        6.990      855.227
05/06/2014  00:14:00      -71.584      506.500      -64.706       72.354      144.736       55.115     5235.160    20948.512     3037.642       14.753        1.461      511.534       61.857        0.015      335.986        6.982      855.209
05/06/2014  00:15:00     -127.002      280.845      -44.750       97.572      120.959       59.776     9520.299    14631.153     3573.204        6.236        1.386      308.226       61.278        0.040      336.028        7.051      855.202
05/06/2014  00:16:00      -87.579      380.568      -52.447      100.036       96.393       51.897    10007.131     9291.548     2693.264        8.862        1.100      390.516       46.475        0.014      336.005        7.014      855.191
05/06/2014  00:17:00     -114.485      213.576      -19.966       94.986      115.493       60.368     9022.347    13338.519     3644.307        4.256        1.300      242.325       63.387        0.068      336.046        7.081      855.173
05/06/2014  00:18:00     -127.836      306.418      -41.031       75.169      109.252       58.512     5650.352    11935.930     3423.597        6.646        1.050      332.015       56.733        0.029      336.027        7.049      855.154
05/06/2014  00:19:00     -102.446      305.523      -46.628       70.384      126.276       48.080     4953.916    15945.584     2311.687        6.461        1.161      322.242       59.573        0.034      336.055        7.098      855.148
05/06/2014  00:20:00     -189.868      202.320      -34.451      122.135       94.001       60.205    14917.042     8836.198     3624.632        5.277        1.369      277.458       44.330        0.026      336.022        7.042      855.139
05/06/2014  00:21:00      -99.914      338.538      -43.615       84.183       91.594       59.091     7086.795     8389.466     3491.704        7.273        0.948      352.975       53.763        0.023      335.996        6.998      855.129
05/06/2014  00:22:00     -129.406      151.254      -24.961       78.757       63.967       50.820     6202.685     4091.763     2582.646        2.656        0.644      199.057       42.131        0.045      336.019        7.039      855.111
05/06/2014  00:23:00     -114.153      176.636      -23.438      113.818       88.913       43.562    12954.526     7905.591     1897.649        3.376        1.138      210.312       44.308        0.044      336.038        7.069      855.111
05/06/2014  00:24:00     -106.457      212.516      -27.952      108.702      106.549       59.143    11816.095    11352.781     3497.852        4.197        1.333      237.689       56.964        0.057      336.022        7.042      855.096
05/06/2014  00:25:00     -123.745      234.532      -37.504      111.775      120.147       56.579    12493.626    14435.289     3201.186        5.092        1.507      265.175       68.458        0.067      336.005        7.014      855.110
05/06/2014  00:26:00     -164.462      321.631      -46.171      109.842      124.552       59.928    12065.181    15513.211     3591.395        8.189        1.558      361.240       59.254        0.027      335.973        6.959      855.126
05/06/2014  00:27:00     -134.339      242.952      -15.501       99.719      117.071       65.671     9943.930    13705.605     4312.725        5.263        1.398      277.620       51.524        0.034      336.017        7.031      855.122
05/06/2014  00:28:00     -120.845      248.456      -31.250       72.451       85.768       51.872     5249.136     7356.230     2690.690        4.630        0.765      276.286       51.340        0.035      336.019        7.036      855.140
05/06/2014  00:29:00     -159.014      219.112      -49.622      106.627      101.462       51.802    11369.291    10294.447     2683.413        5.005        1.217      270.731       58.892        0.047      335.990        6.989      855.146
05/06/2014  00:30:00      -35.601      109.066       -5.812       50.172       88.656       37.211     2517.218     7859.918     1384.642        1.248        0.588      114.730       39.616        0.119      336.040        7.072      855.131
05/06/2014  00:31:00     -115.372      220.136      -23.137       87.299      112.739       49.683     7621.030    12710.062     2468.372        4.255        1.140      248.536       47.516        0.037      336.007        7.017      855.116
05/06/2014  00:32:00     -119.086      209.157      -30.393       72.578      123.161       59.240     5267.577    15168.686     3509.398        4.139        1.197      240.683       53.394        0.049      336.025        7.047      855.119
05/06/2014  00:33:00     -176.267      268.477      -52.986      101.597      132.194       55.549    10321.875    17475.353     3085.707        6.841        1.544      321.170       48.989        0.023      336.018        7.036      855.132
05/06/2014  00:34:00     -187.012      258.083      -47.692       99.488       96.218       66.179     9897.870     9257.842     4379.598        6.369        1.177      318.717       66.689        0.044      335.984        6.978      855.135
05/06/2014  00:35:00      -50.073      262.330      -26.199       57.344       65.306       40.110     3288.351     4264.922     1608.835        4.058        0.458      267.066       32.021        0.014      336.053        7.092      855.122
05/06/2014  00:36:00      -13.649      282.004      -34.167       54.243       77.422       48.704     2942.254     5994.235     2372.036        4.609        0.565      282.335       48.903        0.030      335.992        6.990      855.093
05/06/2014  00:37:00     -109.526      273.994      -31.843       72.108       92.159       50.871     5199.582     8493.259     2587.846        5.218        0.814      295.074       52.094        0.031      336.008        7.017      855.089
05/06/2014  00:38:00     -106.688      282.097      -34.943       71.083      133.360       53.129     5052.805    17784.770     2822.639        5.892        1.283      301.597       57.678        0.037      336.018        7.034      855.100
05/06/2014  00:39:00     -119.952      123.156      -12.482       72.217      116.271       45.914     5215.256    13518.925     2108.071        2.527        1.042      171.918       39.995        0.054      336.051        7.091      855.126
05/06/2014  00:40:00     -129.776      114.799      -20.994      123.392       65.730       52.029    15225.485     4320.441     2707.052        2.635        1.113      173.264       43.348        0.063      336.006        7.016      855.132
05/06/2014  00:41:00     -127.669      219.835      -21.408      107.817      135.569       56.162    11624.586    18379.021     3154.164        4.911        1.658      254.218       63.653        0.063      336.042        7.074      855.116
05/06/2014  00:42:00     -143.781      346.349      -39.460       72.051       84.293       46.895     5191.361     7105.267     2199.097        7.834        0.725      375.007       42.511        0.013      336.008        7.018      855.105
05/06/2014  00:43:00      -90.711      261.681      -24.642       79.251      115.184       53.763     6280.759    13267.375     2890.477        4.987        1.122      276.958       57.695        0.043      336.069        7.121      855.142
05/06/2014  00:44:00      -80.996      231.586      -29.744       73.081       87.778       46.492     5340.784     7705.062     2161.473        3.814        0.760      245.342       33.905        0.019      336.072        7.126      855.155
05/06/2014  00:45:00      -59.329      267.831      -32.202       85.356       84.278       43.863     7285.656     7102.778     1923.939        4.630        0.816      274.323       39.869        0.021      336.015        7.028      855.151
05/06/2014  00:46:00     -137.149      304.577      -33.715       73.546       76.427       58.606     5408.957     5841.014     3434.682        6.370        0.734      334.031       50.967        0.023      336.015        7.030      855.141
05/06/2014  00:47:00     -104.292      222.591      -42.051       84.306       84.020       38.680     7107.576     7059.277     1496.174        3.892        0.783      245.812       44.271        0.032      336.036        7.065      855.135
05/06/2014  00:48:00     -115.865      259.129      -25.947       94.969      108.430       57.551     9019.087    11757.046     3312.165        5.266        1.204      283.853       43.612        0.024      336.066        7.115      855.132
05/06/2014  00:49:00      -81.158      186.350      -27.115       49.128      114.911       40.926     2413.547    13204.462     1674.971        2.967        0.865      203.256       52.093        0.066      336.075        7.130      855.128
05/06/2014  00:50:00      -38.985      201.958      -20.089       74.504       69.739       45.787     5550.853     4863.575     2096.408        2.761        0.626      205.687       42.039        0.042      336.040        7.072      855.113
05/06/2014  00:51:00      -65.136      235.037      -21.638       68.990      143.727       48.793     4759.556    20657.566     2380.763        4.387        1.390      243.896       61.094        0.063      336.062        7.109      855.105
05/06/2014  00:52:00     -134.598      287.375      -23.667       86.172      122.270       65.313     7425.680    14950.063     4265.727        6.395        1.332      317.335       72.968        0.053      336.052        7.092      855.097
05/06/2014  00:53:00      -96.200      287.140      -28.081       61.424       96.727       49.122     3772.848     9356.040     2412.940        5.401        0.777      302.826       45.035        0.022      336.066        7.116      855.093
05/06/2014  00:54:00     -222.762      180.803      -40.069      107.357      107.675       53.048    11525.507    11594.009     2814.124        5.492        1.297      286.902       55.350        0.037      336.048        7.085      855.099
05/06/2014  00:55:00      -88.150      251.625      -16.567       89.646      131.583       51.832     8036.359    17313.972     2686.525        4.969        1.402      266.619       59.747        0.050      336.051        7.090      855.084
05/06/2014  00:56:00     -137.957      267.616      -28.303      128.630      160.171       63.506    16545.725    25654.600     4033.044        6.883        2.312      301.082       73.909        0.060      336.035        7.063      855.069
05/06/2014  00:57:00     -154.925      298.022      -41.340      124.154      172.142       64.871    15414.306    29633.021     4208.290        8.188        2.463      335.885       48.090        0.020      335.982        6.974      855.060
05/06/2014  00:58:00      -82.189      233.052      -15.790       85.351      111.606       58.020     7284.874    12455.974     3366.366        4.221        1.155      247.119       56.781        0.053      336.008        7.018      855.044
05/06/2014  00:59:00     -129.593      206.500      -36.785       75.038      101.417       54.783     5630.772    10285.457     3001.128        3.985        0.946      243.796       60.850        0.062      336.050        7.088      855.040
05/06/2014  01:00:00     -112.535      175.917      -21.629      117.296       73.545       64.052    13758.281     5408.902     4102.709        3.367        1.163      208.833       64.305        0.095      336.075        7.132      855.031
05/06/2014  01:01:00     -124.266      196.386      -37.657       79.408       91.712       46.530     6305.600     8411.000     2165.005        3.615        0.844      232.399       43.507        0.035      336.030        7.055      855.022
05/06/2014  01:02:00     -131.542      103.745      -27.796       77.740       75.541       46.974     6043.551     5706.417     2206.526        2.139        0.698      167.530       45.621        0.074      336.070        7.123      855.008
05/06/2014  01:03:00      -88.004      102.323       -5.787       79.476       64.164       35.024     6316.442     4116.978     1226.686        1.495        0.583      134.962       37.411        0.077      336.117        7.201      855.006
05/06/2014  01:04:00     -189.018      227.559      -62.637      108.100      123.867       55.056    11685.627    15343.157     3031.157        6.074        1.503      295.823       79.922        0.073      336.073        7.125      854.997
05/06/2014  01:05:00     -127.157      335.703      -32.850       94.070      118.511       54.698     8849.208    14044.859     2991.917        7.791        1.294      358.978       52.435        0.021      336.036        7.066      854.977
05/06/2014  01:06:00      -89.369      192.747      -33.659       91.710       96.209       37.115     8410.776     9256.130     1377.515        3.265        0.952      212.457       27.185        0.016      336.075        7.132      854.968
05/06/2014  01:07:00     -160.907      177.663      -27.813      100.581       94.449       63.530    10116.553     8920.689     4036.068        4.065        1.154      239.698       62.920        0.069      336.036        7.065      854.941
05/06/2014  01:08:00     -110.293       88.230       -6.877       60.039      120.674       50.464     3604.631    14562.105     2546.576        2.035        1.036      141.242       36.498        0.067      336.060        7.107      854.895
05/06/2014  01:09:00     -108.208      199.030      -14.399       68.400       87.402       45.782     4678.559     7639.177     2096.007        3.297        0.721      226.544       40.062        0.031      336.103        7.177      854.868
05/06/2014  01:10:00     -121.535      187.318      -35.147       53.472      107.054       37.958     2859.306    11460.477     1440.839        3.342        0.788      223.290       30.661        0.019      336.094        7.162      854.838
05/06/2014  01:11:00     -130.821      241.987      -31.083       90.116      138.322       54.421     8120.816    19132.840     2961.682        5.342        1.511      275.086       48.837        0.032      336.067        7.117      854.814
05/06/2014  01:12:00     -116.498      174.456      -13.629      108.028      105.222       54.383    11670.068    11071.740     2957.463        3.494        1.285      209.778       51.297        0.060      336.079        7.137      854.789
05/06/2014  01:13:00     -179.924      249.467      -34.301       88.676      110.075       61.557     7863.430    12116.437     3789.264        5.977        1.188      307.581       61.567        0.040      336.064        7.111      854.759
05/06/2014  01:14:00     -135.864      194.335      -24.446       72.907       90.920       45.168     5315.422     8266.421     2040.151        3.622        0.781      237.118       39.246        0.027      336.072        7.126      854.747
05/06/2014  01:15:00      -83.882       61.944        6.060       80.470       66.996       44.096     6475.464     4488.407     1944.455        1.191        0.645      104.275       40.103        0.148      336.119        7.206      854.735
05/06/2014  01:16:00     -120.870       65.052      -38.608       71.207      125.783       46.598     5070.465    15821.357     2171.332        2.169        1.153      137.264       34.426        0.063      336.125        7.214      854.737
05/06/2014  01:17:00     -154.371      218.068      -23.948       96.699      120.692       58.203     9350.737    14566.635     3387.596        4.963        1.365      267.177       58.153        0.047      335.982        6.975      854.754
05/06/2014  01:18:00     -177.013      191.449      -23.999      110.260      155.960       60.819    12157.360    24323.415     3698.913        5.436        2.009      260.742       58.161        0.050      335.936        6.899      854.762
05/06/2014  01:19:00     -135.754      120.360      -27.076       75.520      109.976       55.587     5703.231    12094.615     3089.922        2.726        1.044      181.426       53.516        0.087      335.955        6.930      854.782
05/06/2014  01:20:00     -143.497      175.372      -24.398      100.346       70.867       57.165    10069.356     5022.166     3267.805        3.515        0.918      226.598       60.532        0.071      335.893        6.826      854.804
05/06/2014  01:21:00     -105.859      238.427      -25.833       62.489       86.227       53.166     3904.823     7435.065     2826.601        4.144        0.708      260.870       54.397        0.043      335.873        6.793      854.808
05/06/2014  01:22:00      -88.349      162.360      -15.008       65.883       84.406       45.023     4340.616     7124.387     2027.083        2.394        0.675      184.841       42.669        0.053      335.837        6.735      854.808
05/06/2014  01:23:00     -117.520      172.807      -21.100       54.093       86.110       42.673     2926.033     7414.949     1821.022        2.814        0.608      208.981       38.328        0.034      335.896        6.834      854.801
05/06/2014  01:24:00     -245.176      191.101      -55.581       97.056      118.839       60.672     9419.911    14122.774     3681.097        6.347        1.361      310.855       54.274        0.030      335.753        6.593      854.793
05/06/2014  01:25:00     -133.245      176.602      -18.941      103.895       88.800       63.284    10794.250     7885.488     4004.826        3.599        1.134      221.229       57.407        0.067      335.778        6.636      854.765
05/06/2014  01:26:00     -157.715      158.096      -27.369       66.642       84.105       45.338     4441.091     7073.727     2055.563        3.209        0.679      223.312       41.741        0.035      335.765        6.614      854.739
05/06/2014  01:27:00      -83.944       46.205      -14.676       50.685       62.943       31.190     2568.973     3961.769      972.805        0.845        0.375       95.820       25.402        0.070      335.859        6.773      854.729
05/06/2014  01:28:00      -91.221       94.828      -10.055       68.637       71.766       43.449     4711.044     5150.353     1887.798        1.458        0.587      131.581       29.269        0.049      335.872        6.794      854.715
05/06/2014  01:29:00     -215.958      177.020      -32.440      108.832      122.091       57.219    11844.358    14906.105     3274.064        5.452        1.501      279.238       64.530        0.053      335.750        6.589      854.697
05/06/2014  01:30:00     -159.206      252.126      -43.598       87.367      118.009       53.170     7632.958    13926.149     2827.086        5.760        1.219      298.184       51.258        0.030      335.726        6.547      854.694
05/06/2014  01:31:00     -168.146      232.134      -29.019       79.994      110.033       68.000     6399.098    12107.214     4623.997        5.306        1.157      286.635       60.107        0.044      335.711        6.523      854.689
05/06/2014  01:32:00     -189.100      234.153      -33.490       94.577       92.119       65.162     8944.718     8485.913     4246.085        5.669        1.084      300.976       63.426        0.044      335.733        6.561      854.678
05/06/2014  01:33:00     -115.138      219.486      -39.817       80.461       83.324       56.510     6473.954     6942.813     3193.331        3.981        0.831      247.853       50.602        0.042      335.740        6.572      854.675
05/06/2014  01:34:00     -108.125      251.826      -20.376       73.155       88.083       55.456     5351.701     7758.639     3075.322        4.585        0.809      274.057       48.286        0.031      335.734        6.561      854.674
05/06/2014  01:35:00     -111.060      222.893      -34.177       62.768       81.204       37.335     3939.828     6594.132     1393.904        3.755        0.596      249.030       35.996        0.021      335.761        6.608      854.666
05/06/2014  01:36:00     -114.305      175.244      -25.309       97.727       89.390       49.168     9550.470     7990.491     2417.451        3.218        0.998      209.227       44.596        0.045      335.765        6.614      854.662
05/06/2014  01:37:00     -112.113      175.380      -21.568       73.283       94.106       49.834     5370.413     8855.932     2483.462        3.025        0.835      208.153       48.869        0.055      335.792        6.660      854.661
05/06/2014  01:38:00     -100.207      286.142      -30.353       96.247      101.884       49.598     9263.442    10380.306     2459.982        5.747        1.105      303.181       47.095        0.024      335.738        6.568      854.660
05/06/2014  01:39:00     -109.696      220.374      -26.622       87.056       87.528       46.937     7578.787     7661.124     2203.038        3.937        0.872      246.167       49.552        0.041      335.783        6.643      854.651
05/06/2014  01:40:00     -104.356      218.059      -19.787       64.663       68.321       47.333     4181.259     4667.742     2240.426        3.496        0.554      241.743       36.915        0.023      335.766        6.613      854.642
05/06/2014  01:41:00     -111.121      235.859      -42.969       96.061      121.154       50.349     9227.629    14678.327     2535.002        4.813        1.322      260.725       59.166        0.051      335.772        6.625      854.653
05/06/2014  01:42:00      -85.874      213.164      -24.198       68.775       86.549       53.290     4729.997     7490.662     2839.790        3.423        0.753      229.811       38.204        0.028      335.818        6.702      854.648
05/06/2014  01:43:00     -111.635      208.103      -25.433       79.801       92.070       47.183     6368.258     8476.947     2226.278        3.674        0.854      236.155       42.834        0.033      335.796        6.666      854.649
05/06/2014  01:44:00      -96.742      214.393      -18.463      101.133      111.852       48.319    10227.788    12510.864     2334.709        4.036        1.254      235.209       53.101        0.051      335.798        6.669      854.651
05/06/2014  01:45:00     -125.406      201.175      -43.640       79.881       64.828       39.280     6380.969     4202.659     1542.885        3.511        0.606      237.062       37.556        0.025      335.805        6.680      854.655
05/06/2014  01:46:00     -107.186      161.346      -31.143       68.079       97.732       45.546     4634.798     9551.617     2074.472        2.737        0.813      193.704       50.932        0.069      335.814        6.696      854.647
05/06/2014  01:47:00     -121.987      100.765      -20.875       75.050       58.391       35.444     5632.529     3409.510     1256.246        1.788        0.515      158.223       41.447        0.069      335.815        6.699      854.642
05/06/2014  01:48:00     -106.515      234.149      -36.656       62.886      129.235       42.998     3954.689    16701.738     1848.791        4.501        1.125      257.238       47.747        0.034      335.852        6.757      854.648
05/06/2014  01:49:00     -165.483      255.083      -46.737      100.540       85.250       55.016    10108.320     7267.491     3026.795        5.752        1.020      304.059       59.819        0.039      335.820        6.705      854.641
05/06/2014  01:50:00     -116.498      166.758      -29.234       80.993       69.048       36.509     6559.891     4767.638     1332.939        2.745        0.633      203.421       37.286        0.034      335.891        6.823      854.650
05/06/2014  01:51:00      -87.901      154.834      -12.060       79.633       58.681       46.027     6341.382     3443.479     2118.476        2.187        0.595      178.045       46.021        0.067      335.917        6.868      854.652
05/06/2014  01:52:00     -126.455      211.540      -37.166      107.728       90.074       48.175    11605.327     8113.383     2320.812        4.208        1.102      246.455       47.111        0.037      335.893        6.826      854.642
05/06/2014  01:53:00     -149.236      285.918      -42.892      100.616      113.420       54.329    10123.679    12864.088     2951.596        6.589        1.297      322.522       47.910        0.022      335.809        6.686      854.657
05/06/2014  01:54:00     -131.191      176.772      -26.670       82.325       88.785       56.261     6777.336     7882.740     3165.343        3.349        0.891      220.135       51.906        0.056      335.844        6.745      854.646
05/06/2014  01:55:00      -87.565      197.893      -32.953       74.752      145.529       51.154     5587.856    21178.828     2616.712        3.864        1.469      216.401       60.176        0.077      335.829        6.721      854.633
05/06/2014  01:56:00     -126.655      243.638      -28.284       73.690       91.115       45.828     5430.181     8301.895     2100.213        4.601        0.792      274.593       33.311        0.015      335.779        6.636      854.623
05/06/2014  01:57:00      -97.967      179.738      -21.653       67.594      100.883       48.550     4568.892    10177.311     2357.062        2.973        0.855      204.703       41.402        0.041      335.800        6.673      854.619
05/06/2014  01:58:00     -168.375      218.218      -38.298       92.947       97.756       54.299     8639.075     9556.326     2948.329        4.929        1.057      275.625       54.762        0.039      335.743        6.578      854.622
05/06/2014  01:59:00     -102.676      235.511      -14.647       93.968      104.085       64.708     8829.979    10833.688     4187.177        4.503        1.193      256.919       59.974        0.054      335.758        6.602      854.601
05/06/2014  02:00:00      -83.647       90.908       -9.366       70.892       63.795       41.196     5025.697     4069.843     1697.131        1.307        0.540      123.536       29.104        0.056      335.792        6.662      854.590
05/06/2014  02:01:00      -89.737      255.996      -22.108       88.164      107.021       59.980     7772.919    11453.549     3597.643        4.845        1.141      271.269       54.088        0.040      335.735        6.563      854.587
05/06/2014  02:02:00     -106.498      137.382       -6.021       67.747       91.842       42.486     4589.630     8434.934     1805.081        2.254        0.741      173.827       33.197        0.036      335.758        6.604      854.592
05/06/2014  02:03:00     -147.205      185.319      -32.969       71.521       74.248       43.470     5115.221     5512.755     1889.672        3.481        0.626      236.670       32.997        0.019      335.715        6.529      854.597
05/06/2014  02:04:00     -146.090      142.858      -23.009       74.251       82.980       49.222     5513.232     6885.645     2422.812        2.855        0.741      204.330       50.114        0.060      335.707        6.518      854.602
05/06/2014  02:05:00     -110.181      156.417      -15.380       76.107       85.987       55.849     5792.307     7393.834     3119.094        2.657        0.815      191.328       49.781        0.068      335.735        6.563      854.607
05/06/2014  02:06:00     -124.452      156.160      -28.391       60.544      119.063       46.499     3665.596    14176.014     2162.140        3.034        1.000      199.685       46.227        0.054      335.676        6.467      854.613
05/06/2014  02:07:00     -139.998      265.669      -30.661       73.353      114.477       44.081     5380.702    13105.084     1943.173        5.577        1.021      300.299       42.565        0.020      335.618        6.369      854.606
05/06/2014  02:08:00      -81.409      146.209      -12.744       55.115       69.896       45.551     3037.706     4885.457     2074.909        1.908        0.500      167.345       38.852        0.054      335.634        6.397      854.589
05/06/2014  02:09:00     -200.148      153.614      -40.188       96.177       90.033       49.784     9249.937     8105.988     2478.417        4.255        0.992      252.302       54.625        0.047      335.590        6.321      854.573
05/06/2014  02:10:00     -113.285      135.394      -10.415       91.403       97.183       53.334     8354.505     9444.579     2844.569        2.595        1.032      176.536       49.352        0.078      335.646        6.416      854.573
05/06/2014  02:11:00     -140.346      163.236      -31.977       90.446      125.255       49.767     8180.444    15688.753     2476.773        3.685        1.317      215.274       67.826        0.099      335.573        6.295      854.564
05/06/2014  02:12:00      -90.612      165.311      -23.286       56.551       85.926       40.165     3198.062     7383.232     1613.234        2.414        0.610      188.516       37.411        0.039      335.616        6.366      854.547
05/06/2014  02:13:00      -88.584      115.509      -22.781       75.681       78.363       49.692     5727.584     6140.757     2469.260        1.802        0.717      145.566       49.150        0.114      335.578        6.304      854.549
05/06/2014  02:14:00     -115.611      198.317      -30.110       74.767      137.451       54.656     5590.044    18892.864     2987.284        4.053        1.374      229.555       56.882        0.061      335.569        6.288      854.534
05/06/2014  02:15:00     -164.472      189.283      -32.003      102.738      109.614       50.622    10555.000    12015.183     2562.589        4.451        1.257      250.757       46.497        0.034      335.507        6.184      854.518
05/06/2014  02:16:00     -165.639      269.254      -19.844       95.489      169.542       71.859     9118.078    28744.335     5163.780        7.167        2.151      316.124       73.666        0.054      335.464        6.112      854.505
05/06/2014  02:17:00     -113.356      214.598      -23.111       88.436      109.547       50.806     7820.941    12000.642     2581.246        4.092        1.120      242.698       44.484        0.034      335.430        6.057      854.507
05/06/2014  02:18:00     -190.988      173.685      -28.632       90.449       81.090       57.307     8181.062     6575.624     3284.070        4.275        0.902      258.153       57.044        0.049      335.437        6.067      854.514
05/06/2014  02:19:00     -124.607      214.606      -13.829      102.924      123.748       60.429    10593.309    15313.570     3651.632        4.566        1.478      248.158       49.968        0.041      335.422        6.042      854.523
05/06/2014  02:20:00     -192.911      250.423      -35.439      119.931      110.446       69.031    14383.562    12198.211     4765.315        6.626        1.567      316.112       66.027        0.044      335.354        5.927      854.526
05/06/2014  02:21:00     -181.070      197.065      -41.732      110.813      126.621       58.507    12279.448    16032.910     3423.080        5.254        1.587      267.621       75.514        0.080      335.326        5.883      854.528
05/06/2014  02:22:00     -244.589      253.820      -57.924      112.619      133.929       75.119    12683.097    17937.081     5642.867        8.193        1.813      352.489       89.280        0.064      335.307        5.850      854.520
05/06/2014  02:23:00     -178.768      236.784      -42.096       98.458      118.548       59.908     9693.990    14053.728     3588.948        5.856        1.367      296.690       64.157        0.047      335.306        5.851      854.527
05/06/2014  02:24:00     -135.988      202.820      -35.024      108.758      110.936       57.875    11828.250    12306.838     3349.523        4.416        1.374      244.190       41.585        0.029      335.349        5.920      854.525
05/06/2014  02:25:00     -106.316      255.817      -24.442       89.351      154.189       54.152     7983.557    23774.299     2932.426        5.601        1.735      277.029       66.541        0.058      335.332        5.891      854.540
05/06/2014  02:26:00     -137.575      339.989      -37.269       92.740      109.954       53.755     8600.653    12089.909     2889.653        7.974        1.179      366.769       51.764        0.020      335.286        5.814      854.537
05/06/2014  02:27:00     -123.791      303.706      -43.545      106.533       98.508       48.331    11349.200     9703.856     2335.876        6.642        1.169      327.966       46.500        0.020      335.280        5.804      854.520
05/06/2014  02:28:00     -101.343      300.943      -37.465       67.016       93.504       51.411     4491.106     8742.950     2643.116        5.906        0.794      317.549       44.106        0.019      335.279        5.803      854.497
05/06/2014  02:29:00      -61.465      348.287      -40.466       56.096       75.891       36.986     3146.727     5759.395     1367.932        6.849        0.514      353.669       28.203        0.006      335.270        5.788      854.490
05/06/2014  02:30:00     -139.646      218.531      -33.290       60.597       77.778       45.598     3672.014     6049.368     2079.145        4.008        0.590      259.339       42.062        0.026      335.294        5.828      854.468
05/06/2014  02:31:00      -84.614      144.181      -16.878       57.178       67.868       33.361     3269.345     4606.124     1112.969        1.861        0.449      167.176       36.642        0.048      335.380        5.975      854.454
05/06/2014  02:32:00     -157.996      229.913      -42.389       84.165      103.287       46.927     7083.816    10668.140     2202.136        4.978        0.998      278.967       47.857        0.029      335.294        5.829      854.445
05/06/2014  02:33:00     -116.619      135.068      -23.582       83.966      105.612       46.077     7050.264    11153.909     2123.129        2.636        1.016      178.447       53.016        0.088      335.304        5.847      854.419
05/06/2014  02:34:00     -189.242      356.281      -53.712       80.740       96.232       54.645     6518.972     9260.559     2986.091        9.220        0.938      403.421       49.457        0.015      335.272        5.791      854.415
05/06/2014  02:35:00     -167.860      176.190      -30.994      109.060       95.092       52.809    11894.101     9042.407     2788.766        4.195        1.186      243.351       48.524        0.040      335.301        5.840      854.404
05/06/2014  02:36:00     -179.833      199.603      -40.346      103.478       97.274       47.652    10707.631     9462.249     2270.732        4.812        1.122      268.666       57.477        0.046      335.308        5.853      854.414
05/06/2014  02:37:00     -164.613      201.697      -28.502       84.852       95.478       64.495     7199.882     9115.955     4159.668        4.453        1.024      260.344       60.303        0.054      335.300        5.837      854.411
05/06/2014  02:38:00     -165.566      220.702      -44.267       85.806       97.234       57.726     7362.666     9454.476     3332.320        4.911        1.007      275.902       57.084        0.043      335.322        5.875      854.397
05/06/2014  02:39:00     -119.607      165.400      -35.708       70.182       78.329       40.546     4925.581     6135.470     1643.972        2.782        0.635      204.116       34.479        0.029      335.342        5.908      854.391
05/06/2014  02:40:00     -179.840      183.886      -42.654       89.035       79.924       49.815     7927.161     6387.783     2481.498        4.238        0.840      257.209       51.286        0.040      335.339        5.903      854.395
05/06/2014  02:41:00     -144.948      134.383      -42.524       59.297       72.293       38.899     3516.075     5226.302     1513.156        2.556        0.513      197.658       33.065        0.028      335.327        5.882      854.379
05/06/2014  02:42:00      -97.255       94.229      -11.956       63.783       52.252       34.524     4068.222     2730.294     1191.916        1.323        0.400      135.417       33.599        0.062      335.357        5.937      854.348
05/06/2014  02:43:00     -146.643      177.220      -32.975       64.485       82.723       42.989     4158.348     6843.145     1848.056        3.342        0.642      230.024       34.352        0.022      335.361        5.939      854.351
05/06/2014  02:44:00     -172.216      177.385      -35.034       98.148       75.743       45.828     9633.022     5737.000     2100.179        3.991        0.874      247.233       33.342        0.018      335.357        5.932      854.333
05/06/2014  02:45:00     -117.522      107.839      -16.607       59.714       83.192       37.432     3565.715     6920.962     1401.119        1.880        0.594      159.502       29.965        0.035      335.391        5.992      854.309
05/06/2014  02:46:00     -212.634       88.771      -37.920      114.291       63.931       43.200    13062.371     4087.165     1866.207        3.677        0.951      230.420       51.148        0.049      335.407        6.018      854.304
05/06/2014  02:47:00     -154.110      161.302      -33.380       72.496       95.844       58.011     5255.695     9186.020     3365.289        3.434        0.890      223.088       53.780        0.058      335.397        6.001      854.302
05/06/2014  02:48:00     -117.750      179.037      -12.551       81.654      119.509       49.805     6667.358    14282.494     2480.505        3.475        1.172      214.288       47.942        0.050      335.385        5.980      854.281
05/06/2014  02:49:00     -110.362      184.637      -18.133       53.916       79.388       39.176     2906.917     6302.425     1534.769        2.867        0.537      215.106       32.260        0.022      335.426        6.050      854.280
05/06/2014  02:50:00     -154.222      194.688      -43.302       76.609       83.788       41.622     5868.989     7020.487     1732.410        3.909        0.731      248.370       52.251        0.044      335.391        5.991      854.298
05/06/2014  02:51:00     -198.310      243.283      -58.845       70.006      109.683       46.037     4900.860    12030.255     2119.380        6.051        0.953      313.868       43.308        0.019      335.344        5.911      854.303
05/06/2014  02:52:00     -137.088      211.787      -36.762       90.873      111.051       58.173     8257.963    12332.395     3384.088        4.448        1.199      252.284       70.082        0.077      335.362        5.943      854.305
05/06/2014  02:53:00     -157.501      173.100      -21.649       78.390       76.421       48.956     6145.040     5840.208     2396.697        3.481        0.719      234.030       40.996        0.031      335.346        5.915      854.317
05/06/2014  02:54:00     -110.651      126.008      -23.424       64.241       66.317       35.176     4126.847     4397.886     1237.373        1.921        0.488      167.695       33.207        0.039      335.461        6.107      854.322
05/06/2014  02:55:00     -138.481      159.112      -30.168       60.392      115.090       38.817     3647.171    13245.618     1506.736        3.190        0.920      210.935       34.508        0.027      335.382        5.975      854.320
05/06/2014  02:56:00     -106.465       92.808      -11.414       64.417       50.823       33.577     4149.577     2582.930     1127.432        1.397        0.393      141.237       32.890        0.054      335.392        5.994      854.320
05/06/2014  02:57:00      -97.835       59.805      -10.251       75.672       44.718       44.967     5726.295     1999.728     2021.989        1.150        0.487      114.666       52.162        0.207      335.428        6.053      854.330
05/06/2014  02:58:00     -138.459       97.476      -17.294       72.330       51.292       40.948     5231.646     2630.875     1676.763        1.925        0.477      169.329       32.306        0.036      335.357        5.935      854.325
05/06/2014  02:59:00      -72.194      170.197      -18.087       51.395       71.817       37.519     2641.451     5157.664     1407.700        2.185        0.460      184.875       28.881        0.024      335.430        6.057      854.321
05/06/2014  03:00:00      -73.273       46.972      -18.557       79.668       49.693       33.858     6346.972     2469.399     1146.385        0.894        0.498       87.036       25.499        0.086      335.414        6.031      854.324
05/06/2014  03:01:00     -153.010      164.730      -40.329       89.596       94.650       45.396     8027.415     8958.589     2060.756        3.561        0.952      224.829       53.366        0.056      335.370        5.955      854.321
05/06/2014  03:02:00      -88.861       83.779      -18.496       37.053       62.624       28.458     1372.890     3921.794      809.858        1.068        0.305      122.128       21.615        0.031      335.373        5.963      854.328
05/06/2014  03:03:00      -97.398      117.093      -10.798       57.648       65.159       37.373     3323.333     4245.707     1396.745        1.614        0.448      152.306       29.957        0.039      335.435        6.065      854.344
05/06/2014  03:04:00      -76.562      118.589      -11.867       61.345       51.716       38.474     3763.198     2674.546     1480.240        1.399        0.396      141.156       38.986        0.076      335.467        6.120      854.347
05/06/2014  03:05:00      -80.651       88.068       -3.618       57.881       67.720       36.316     3350.251     4586.003     1318.828        1.176        0.463      119.417       32.201        0.073      335.414        6.031      854.356
05/06/2014  03:06:00     -123.294      126.085      -29.060       56.557       81.778       32.348     3198.749     6687.568     1046.408        2.144        0.547      176.349       22.883        0.017      335.436        6.065      854.351
05/06/2014  03:07:00      -65.753      121.061       -7.339       55.818       78.240       33.750     3115.665     6121.477     1139.032        1.470        0.519      137.765       29.438        0.046      335.426        6.052      854.334
05/06/2014  03:08:00      -54.751      130.123       -3.064       46.188       66.770       33.266     2133.339     4458.198     1106.649        1.382        0.385      141.172       25.849        0.034      335.472        6.127      854.317
05/06/2014  03:09:00      -66.466      125.702       -1.537       48.903       56.701       37.732     2391.478     3214.991     1423.675        1.362        0.352      142.193       38.547        0.073      335.527        6.220      854.298
05/06/2014  03:10:00      -96.274      109.203      -18.926      126.959      118.066       53.981    16118.525    13939.495     2913.955        2.726        1.649      145.582       36.703        0.064      335.509        6.188      854.288
05/06/2014  03:11:00     -120.581      158.339      -42.801       64.568       75.307       56.231     4169.027     5671.129     3161.962        2.722        0.650      199.025       40.018        0.040      335.436        6.066      854.291
05/06/2014  03:12:00     -173.932      133.899      -30.289       85.405      121.625       51.015     7293.965    14792.639     2602.496        3.689        1.234      219.503       46.663        0.045      335.514        6.196      854.284
05/06/2014  03:13:00     -149.072       48.405      -13.194       63.636       52.407       31.605     4049.509     2746.476      998.868        1.627        0.390      156.734       25.132        0.026      335.466        6.117      854.282
05/06/2014  03:14:00      -83.852      133.805      -20.713       69.113       78.078       39.650     4776.613     6096.169     1572.119        1.890        0.622      157.908       42.953        0.074      335.461        6.108      854.279
05/06/2014  03:15:00      -54.745       78.346       -7.701       58.039       46.323       32.997     3368.545     2145.809     1088.833        0.790        0.330       95.578       29.854        0.098      335.509        6.190      854.277
05/06/2014  03:16:00      -40.271        7.957        3.796       27.519       23.939       23.659      757.275      573.070      559.746        0.179        0.095       41.050       16.856        0.169      335.587        6.320      854.271
05/06/2014  03:17:00      -80.986       32.066      -13.165       34.849       34.784       22.843     1214.445     1209.923      521.806        0.535        0.147       87.103       18.939        0.047      335.522        6.213      854.280
05/06/2014  03:18:00      -59.389      106.744      -14.203       43.142       50.837       24.695     1861.262     2584.427      609.823        1.009        0.253      122.153       25.233        0.043      335.541        6.243      854.288
05/06/2014  03:19:00      -84.271       80.370      -16.482       43.701       44.624       26.153     1909.784     1991.285      683.986        0.921        0.229      116.451       19.821        0.029      335.535        6.233      854.290
05/06/2014  03:20:00      -82.884       73.132      -14.807       42.761       90.448       32.924     1828.500     8180.912     1084.009        1.176        0.555      110.535       36.723        0.110      335.506        6.185      854.304
05/06/2014  03:21:00     -217.513      151.015      -38.306      104.905       83.412       41.712    11005.137     6957.562     1739.878        4.564        0.985      264.797       46.375        0.031      335.457        6.100      854.320
05/06/2014  03:22:00     -154.050      153.349      -34.884       82.042       64.545       48.350     6730.830     4166.079     2337.691        3.085        0.662      217.365       48.991        0.051      335.450        6.088      854.328
05/06/2014  03:23:00      -81.721      110.852      -16.562       42.346       59.385       32.894     1793.182     3526.615     1082.027        1.282        0.320      137.719       33.958        0.061      335.487        6.153      854.312
05/06/2014  03:24:00     -105.939      115.492      -14.240       57.240       69.419       33.642     3276.424     4819.022     1131.806        1.699        0.461      156.721       32.868        0.044      335.460        6.107      854.290
05/06/2014  03:25:00      -81.077       50.433       -5.433       55.760       75.741       42.842     3109.231     5736.653     1835.458        0.991        0.534       95.482       42.837        0.201      335.484        6.150      854.280
05/06/2014  03:26:00     -115.220       36.390       -8.790       51.390       40.443       23.786     2640.903     1635.666      565.796        0.976        0.242      120.830       17.660        0.021      335.506        6.185      854.275
05/06/2014  03:27:00     -100.168       11.761       -0.762       61.270       57.284       27.241     3754.057     3281.434      742.068        0.897        0.389      100.856       11.408        0.013      335.559        6.274      854.270
05/06/2014  03:28:00      -53.518       53.099       -2.133       48.222       38.337       29.381     2325.409     1469.752      863.259        0.517        0.233       75.391       20.198        0.072      335.556        6.269      854.260
05/06/2014  03:29:00      -75.683       76.102      -17.523       94.119       73.716       38.477     8858.317     5434.087     1480.494        1.380        0.789      107.329       48.020        0.200      335.543        6.247      854.250
05/06/2014  03:30:00      -42.958       50.763       -3.033       36.673       50.594       30.332     1344.889     2559.801      920.023        0.463        0.241       66.500       18.183        0.075      335.583        6.314      854.249
05/06/2014  03:31:00      -73.591       43.509      -13.064       49.823       75.691       28.800     2482.372     5729.120      829.416        0.826        0.452       85.491       44.153        0.267      335.667        6.452      854.258
05/06/2014  03:32:00     -157.312      167.754      -45.500       63.915       80.444       50.999     4085.095     6471.301     2600.914        3.406        0.658      229.975       45.092        0.038      335.529        6.220      854.292
05/06/2014  03:33:00     -102.198       75.146      -15.590       48.617       49.946       31.250     2363.641     2494.556      976.569        1.108        0.292      126.852       29.753        0.055      335.550        6.258      854.286
05/06/2014  03:34:00      -86.465      127.893      -19.069       45.962       78.094       28.405     2112.536     6098.628      806.827        1.661        0.451      154.379       26.024        0.028      335.535        6.235      854.291
05/06/2014  03:35:00      -56.192      131.809      -19.292       43.037       70.078       36.457     1852.155     4910.950     1329.090        1.450        0.405      143.287       38.546        0.072      335.638        6.404      854.298
05/06/2014  03:36:00     -141.411      136.545      -29.943       64.747       83.385       45.802     4192.209     6953.084     2097.783        2.639        0.662      196.575       40.692        0.043      335.580        6.305      854.307
05/06/2014  03:37:00     -119.434      118.694      -20.828       57.603       87.689       39.405     3318.062     7689.430     1552.774        2.067        0.628      168.383       47.151        0.078      335.591        6.325      854.315
05/06/2014  03:38:00     -210.349      193.285      -49.936       90.246       90.542       47.451     8144.371     8197.771     2251.562        5.134        0.930      285.668       57.825        0.041      335.581        6.308      854.308
05/06/2014  03:39:00     -204.069      121.443      -36.109       94.936       78.500       38.844     9012.827     6162.172     1508.854        3.719        0.834      237.471       30.322        0.016      335.594        6.330      854.315
05/06/2014  03:40:00     -157.343      160.861      -29.081      113.784       77.282       45.540    12946.840     5972.556     2073.865        3.623        1.050      225.018       41.729        0.034      335.597        6.337      854.319
05/06/2014  03:41:00     -121.221      173.525      -16.915       67.092       99.603       57.893     4501.391     9920.778     3351.625        3.143        0.889      211.673       59.616        0.079      335.654        6.430      854.318
05/06/2014  03:42:00     -113.468      136.883      -30.687       76.531       61.985       39.650     5856.968     3842.167     1572.157        2.191        0.564      177.797       41.144        0.054      335.695        6.500      854.306
05/06/2014  03:43:00     -209.852      185.459      -44.899      100.986       84.968       54.281    10198.124     7219.522     2946.448        5.040        1.018      280.059       54.175        0.037      335.656        6.433      854.322
05/06/2014  03:44:00     -127.309      199.483      -25.572       79.226      102.375       53.328     6276.713    10480.600     2843.870        3.812        0.980      236.646       59.131        0.062      335.636        6.400      854.316
05/06/2014  03:45:00     -117.516      121.572      -33.320       72.780       67.857       37.919     5296.983     4604.633     1437.859        2.052        0.567      169.085       42.516        0.063      335.652        6.427      854.297
05/06/2014  03:46:00      -90.852      124.451      -14.521       53.908       57.388       37.398     2906.037     3293.351     1398.592        1.577        0.380      154.085       35.352        0.053      335.664        6.449      854.291
05/06/2014  03:47:00      -75.515      134.219      -17.108       47.126       72.014       33.345     2220.851     5185.969     1111.867        1.626        0.426      154.005       27.533        0.032      335.764        6.615      854.291
05/06/2014  03:48:00     -132.092      117.124      -19.667       66.283      110.222       43.690     4393.478    12148.788     1908.817        2.500        0.923      176.540       44.614        0.064      335.660        6.440      854.283
05/06/2014  03:49:00      -97.944       83.893       -9.446       62.571       71.164       33.356     3915.078     5064.335     1112.611        1.340        0.505      128.962       31.334        0.059      335.676        6.469      854.267
05/06/2014  03:50:00      -79.771      155.144      -14.861       60.962       75.075       38.363     3716.344     5636.277     1471.708        2.074        0.541      174.451       42.979        0.061      335.678        6.470      854.267
05/06/2014  03:51:00      -66.260       67.857      -11.073       36.138       27.405       25.887     1305.950      751.053      670.144        0.592        0.136       94.841       23.397        0.061      335.680        6.475      854.259
05/06/2014  03:52:00      -83.306      232.985      -23.959       63.620       85.046       42.820     4047.469     7232.846     1833.552        3.745        0.656      247.430       44.246        0.032      335.691        6.491      854.264
05/06/2014  03:53:00     -123.998       81.017       -9.274      117.825       69.241       45.978    13882.723     4794.267     2113.934        2.140        1.040      148.119       45.762        0.095      335.680        6.475      854.263
05/06/2014  03:54:00      -21.510      101.961        6.028       58.220       76.402       37.633     3389.618     5837.215     1416.257        1.077        0.532      104.205       33.372        0.103      335.734        6.565      854.256
05/06/2014  03:55:00      -37.347       60.763        5.805       45.628       81.541       34.593     2081.869     6648.925     1196.643        0.752        0.496       71.323       33.480        0.220      335.742        6.577      854.239
05/06/2014  03:56:00     -119.250      125.092      -19.791      106.094      105.912       53.538    11255.930    11217.423     2866.370        2.779        1.267      172.825       46.352        0.072      335.736        6.567      854.231
05/06/2014  03:57:00      -37.016      160.084       -9.614       63.315       99.190       48.791     4008.801     9838.689     2380.601        2.166        0.811      164.308       40.142        0.060      335.714        6.529      854.212
05/06/2014  03:58:00      -29.660      210.771      -12.067       53.549       93.437       44.071     2867.446     8730.469     1942.297        2.949        0.677      212.848       39.212        0.034      335.717        6.534      854.216
05/06/2014  03:59:00      -78.157      367.893      -46.935       65.106      107.842       47.212     4238.777    11629.831     2229.010        8.087        0.905      376.103       42.050        0.013      335.641        6.408      854.199
05/06/2014  04:00:00      -67.173      170.336      -21.332       50.837       82.830       29.152     2584.437     6860.793      849.811        2.214        0.515      183.102       26.657        0.021      335.711        6.524      854.192
05/06/2014  04:01:00      -64.861      118.686      -23.654       73.082       72.127       37.215     5341.021     5202.321     1384.956        1.539        0.596      135.253       37.948        0.079      335.694        6.497      854.195
05/06/2014  04:02:00      -76.279      141.684       -7.834       74.214       69.687       41.468     5507.696     4856.243     1719.607        1.902        0.604      160.912       42.563        0.070      335.657        6.436      854.197
05/06/2014  04:03:00     -118.622      187.581      -25.209      104.056      102.654       57.256    10827.639    10537.856     3278.235        3.726        1.232      221.941       61.213        0.076      335.667        6.452      854.201
05/06/2014  04:04:00      -91.402      171.892      -18.212       70.279       87.268       41.801     4939.172     7615.762     1747.320        2.626        0.715      194.682       42.540        0.048      335.680        6.473      854.206
05/06/2014  04:05:00      -57.614      310.714      -33.721       74.555       91.888       52.816     5558.509     8443.472     2789.485        5.889        0.840      316.010       49.996        0.025      335.653        6.426      854.208
05/06/2014  04:06:00      -94.623      234.910      -17.475       84.600      133.173       55.064     7157.145    17734.971     3032.050        4.618        1.396      253.251       56.084        0.049      335.653        6.427      854.210
05/06/2014  04:07:00     -108.120      315.422      -31.017       88.914      121.066       45.820     7905.734    14656.865     2099.472        6.840        1.233      333.439       43.693        0.017      335.583        6.310      854.214
05/06/2014  04:08:00     -121.908      414.726      -45.044       88.933       82.353       68.455     7909.092     6782.013     4686.042       10.413        0.969      432.272       52.300        0.015      335.539        6.238      854.211
05/06/2014  04:09:00     -125.287      218.587      -17.407       87.171      151.369       51.931     7598.778    22912.573     2696.875        4.849        1.660      251.947       61.203        0.059      335.562        6.277      854.222
05/06/2014  04:10:00     -213.905      175.416      -46.494      116.806       81.930       62.620    13643.684     6712.531     3921.305        5.148        1.214      276.634       63.820        0.053      335.535        6.231      854.217
05/06/2014  04:11:00     -123.596      216.579      -30.294      104.034      124.949       55.108    10823.058    15612.184     3036.919        4.628        1.474      249.364       58.227        0.055      335.541        6.239      854.225
05/06/2014  04:12:00     -152.243      286.621      -45.934       99.351      123.536       59.721     9870.641    15261.195     3566.585        6.806        1.435      324.545       53.142        0.027      335.512        6.192      854.227
05/06/2014  04:13:00     -245.046      237.684      -53.944      129.222       96.519       65.971    16698.343     9315.936     4352.167        7.490        1.518      341.382       65.810        0.037      335.496        6.165      854.230
05/06/2014  04:14:00     -149.930      281.526      -45.639      106.834      116.236       59.284    11413.460    13510.858     3514.619        6.612        1.422      318.960       61.045        0.037      335.519        6.204      854.226
05/06/2014  04:15:00     -169.019      256.893      -32.329      118.513      120.769       62.231    14045.309    14585.161     3872.674        6.405        1.625      307.508       59.423        0.037      335.492        6.158      854.222
05/06/2014  04:16:00     -151.468      219.912      -35.552       88.556      130.239       54.218     7842.186    16962.307     2939.608        5.015        1.387      267.028       48.996        0.034      335.514        6.195      854.213
05/06/2014  04:17:00     -146.935      239.231      -27.735       60.575      108.572       58.670     3669.372    11787.804     3442.166        4.924        0.945      280.752       43.580        0.024      335.517        6.200      854.199
05/06/2014  04:18:00     -131.194      122.021      -21.397       75.429       89.817       41.501     5689.504     8067.100     1722.301        2.402        0.774      179.167       41.206        0.053      335.505        6.183      854.202
05/06/2014  04:19:00     -132.770      106.081      -27.164       63.217       63.912       40.658     3996.347     4084.770     1653.057        1.967        0.487      169.944       30.118        0.031      335.544        6.248      854.190
05/06/2014  04:20:00      -83.500      156.792       -6.189       69.982      100.179       50.410     4897.549    10035.806     2541.197        2.453        0.874      177.640       20.285        0.013      335.545        6.249      854.172
05/06/2014  04:21:00     -164.537      221.260      -42.712       85.838      126.724       58.467     7368.148    16059.028     3418.434        5.234        1.342      275.732       63.948        0.054      335.467        6.118      854.163
05/06/2014  04:22:00     -154.925       63.564      -12.759       77.356       91.487       48.306     5983.986     8369.897     2333.456        2.244        0.834      167.458       36.373        0.047      335.529        6.222      854.154
05/06/2014  04:23:00     -106.081      110.591      -19.650       67.895       80.788       46.621     4609.734     6526.637     2173.499        1.859        0.665      153.243       38.975        0.065      335.516        6.201      854.150
05/06/2014  04:24:00     -153.171      119.796      -10.090       89.576      113.636       48.980     8023.888    12913.174     2399.007        3.062        1.167      194.454       42.960        0.049      335.517        6.201      854.161
05/06/2014  04:25:00     -111.156       36.036       13.493      136.627       99.470       54.045    18666.866     9894.340     2920.904        2.265        1.574      116.851       63.687        0.297      335.553        6.263      854.159
05/06/2014  04:26:00     -150.498      139.798      -34.101      103.699       77.558       47.034    10753.408     6015.310     2212.193        3.116        0.949      205.409       44.196        0.046      335.576        6.300      854.160
05/06/2014  04:27:00     -175.824      168.492      -27.090      107.608      119.134       68.372    11579.539    14192.873     4674.793        4.524        1.522      243.524       60.626        0.062      335.515        6.198      854.169
05/06/2014  04:28:00     -164.800      131.952      -24.752       90.157       91.799       49.981     8128.294     8427.100     2498.114        3.211        0.953      211.117       57.603        0.074      335.522        6.209      854.163
05/06/2014  04:29:00     -184.693      178.303      -37.093      135.290      110.819       58.686    18303.305    12280.790     3444.009        5.065        1.701      256.717       63.142        0.060      335.506        6.184      854.167
05/06/2014  04:30:00     -147.577      144.308      -21.677       82.602       73.142       51.845     6823.077     5349.821     2687.882        2.896        0.743      206.407       37.478        0.033      335.500        6.174      854.163
05/06/2014  04:31:00     -118.796       96.087       -4.531       74.391       81.085       41.477     5533.983     6574.730     1720.337        1.859        0.691      152.791       45.974        0.091      335.537        6.235      854.168
05/06/2014  04:32:00     -130.376      241.598      -14.087       87.459      124.285       61.691     7649.063    15446.762     3805.834        5.123        1.345      274.532       46.439        0.029      335.506        6.182      854.166
05/06/2014  04:33:00     -133.373      155.632      -30.378       48.730       80.715       36.455     2374.631     6514.905     1328.993        2.657        0.511      204.963       27.551        0.018      335.474        6.130      854.167
05/06/2014  04:34:00     -110.681      104.323       -6.117       74.163       84.763       46.570     5500.183     7184.801     2168.786        1.901        0.743      152.097       39.981        0.069      335.544        6.248      854.173
05/06/2014  04:35:00     -150.192      143.857      -16.589       90.545      103.955       52.043     8198.325    10806.640     2708.479        3.262        1.086      207.972       41.210        0.039      335.509        6.188      854.174
05/06/2014  04:36:00     -155.994      193.567      -37.804       93.216       85.270       52.122     8689.239     7271.026     2716.752        4.095        0.934      248.600       54.269        0.048      335.484        6.146      854.167
05/06/2014  04:37:00     -157.789      150.618      -30.492      102.723      101.046       51.568    10551.933    10210.259     2659.295        3.596        1.171      218.135       58.204        0.071      335.477        6.135      854.160
05/06/2014  04:38:00     -134.167      165.232      -17.030       76.219       79.087       46.859     5809.339     6254.682     2195.731        2.992        0.713      212.844       44.458        0.044      335.450        6.090      854.154
05/06/2014  04:39:00     -124.338      163.065      -39.243       45.504       77.644       37.122     2070.654     6028.606     1378.057        2.653        0.474      205.061       25.419        0.015      335.447        6.085      854.147
05/06/2014  04:40:00     -161.495      169.680      -37.778      114.290      157.218       65.562    13062.204    24717.553     4298.409        4.918        2.104      234.248       67.714        0.084      335.464        6.112      854.142
05/06/2014  04:41:00     -120.782      186.485      -27.495       89.561       75.093       47.711     8021.202     5638.975     2276.367        3.303        0.797      222.182       46.866        0.044      335.436        6.066      854.137
05/06/2014  04:42:00     -204.097      202.034      -42.639      102.143       93.853       56.767    10433.242     8808.430     3222.494        5.337        1.123      287.181       62.163        0.047      335.418        6.035      854.132
05/06/2014  04:43:00     -167.420      249.037      -48.324      118.539      111.939       61.104    14051.512    12530.269     3733.681        6.134        1.516      300.082       56.791        0.036      335.401        6.007      854.139
05/06/2014  04:44:00     -112.583      149.021       -7.816       61.624      131.093       49.597     3797.498    17185.463     2459.845        2.919        1.172      186.768       52.069        0.078      335.439        6.073      854.129
05/06/2014  04:45:00     -136.757      213.447      -33.565       77.993       83.778       53.601     6082.981     7018.748     2873.097        4.068        0.799      253.500       50.447        0.040      335.429        6.053      854.138
05/06/2014  04:46:00     -141.736      217.465      -35.841       80.252       81.600       56.968     6440.347     6658.557     3245.323        4.250        0.817      259.577       56.003        0.047      335.445        6.081      854.138
05/06/2014  04:47:00     -158.567      224.923      -50.758       73.357       70.293       47.567     5381.262     4941.088     2262.580        4.545        0.629      275.198       44.894        0.027      335.413        6.026      854.134
05/06/2014  04:48:00     -134.155      156.833      -19.857       83.646       95.017       61.744     6996.711     9028.308     3812.375        3.141        0.992      206.383       52.671        0.065      335.463        6.112      854.135
05/06/2014  04:49:00     -156.348      197.171      -22.565      102.575      100.192       66.506    10521.719    10038.354     4422.990        4.440        1.249      251.637       55.080        0.048      335.431        6.058      854.129
05/06/2014  04:50:00     -169.840      290.025      -37.798       76.987      118.591       53.486     5927.070    14063.914     2860.722        6.862        1.143      336.095       48.304        0.021      335.403        6.011      854.132
05/06/2014  04:51:00     -138.440      185.195      -24.868      100.852      110.128       46.751    10171.136    12128.235     2185.668        3.928        1.224      231.220       45.118        0.038      335.448        6.086      854.132
05/06/2014  04:52:00     -189.583      303.264      -53.808       99.059      115.639       63.282     9812.714    13372.325     4004.595        7.899        1.359      357.646       54.003        0.023      335.435        6.064      854.136
05/06/2014  04:53:00     -217.758      228.719      -33.015      102.177      136.795       65.262    10440.127    18712.867     4259.122        6.711        1.671      315.802       63.341        0.040      335.433        6.060      854.140
05/06/2014  04:54:00     -153.464      220.748      -38.652       99.704       95.076       59.573     9940.848     9039.383     3548.991        4.815        1.126      268.851       52.598        0.038      335.436        6.066      854.139
05/06/2014  04:55:00     -206.024      259.821      -37.257      116.987      118.788       65.857    13686.055    14110.475     4337.173        7.173        1.607      331.592       51.803        0.024      335.407        6.016      854.155
05/06/2014  04:56:00     -154.582      158.609      -18.006       71.930      132.482       48.548     5173.967    17551.599     2356.898        3.722        1.254      221.478       34.881        0.025      335.419        6.038      854.141
05/06/2014  04:57:00     -193.474      247.766      -40.729       91.849      103.257       65.335     8436.170    10661.924     4268.698        6.192        1.168      314.357       56.789        0.033      335.402        6.008      854.138
05/06/2014  04:58:00     -176.027      303.243      -44.841      101.613      107.395       59.274    10325.138    11533.643     3513.457        7.516        1.269      350.630       53.541        0.023      335.388        5.985      854.132
05/06/2014  04:59:00     -171.041      139.317      -29.951       68.755       95.725       42.881     4727.219     9163.313     1838.761        3.264        0.786      220.600       32.621        0.022      335.439        6.072      854.114
05/06/2014  05:00:00     -183.346      219.892      -48.662       70.191       95.309       51.118     4926.762     9083.887     2613.080        5.048        0.831      286.301       48.661        0.029      335.409        6.019      854.109
05/06/2014  05:01:00     -142.600      230.328      -26.355       75.748      103.161       57.553     5737.765    10642.197     3312.362        4.688        0.985      270.898       48.735        0.032      335.378        5.968      854.106
05/06/2014  05:02:00     -198.839      221.244      -51.468      102.582      112.040       51.731    10523.141    12553.060     2676.138        5.844        1.288      297.465       63.386        0.045      335.384        5.979      854.102
05/06/2014  05:03:00     -205.965      134.538      -27.070      116.453       83.560       74.470    13561.341     6982.264     5545.821        4.367        1.304      246.013       67.363        0.075      335.402        6.009      854.099
05/06/2014  05:04:00     -116.945      234.035      -27.629       93.552       87.681       59.670     8751.922     7687.967     3560.547        4.460        1.000      261.627       49.076        0.035      335.427        6.049      854.097
05/06/2014  05:05:00     -191.088      269.471      -49.129       91.431      114.468       62.032     8359.556    13102.970     3847.970        6.842        1.266      330.347       65.049        0.039      335.390        5.988      854.108
05/06/2014  05:06:00     -236.125      264.611      -60.629      101.576      147.442       63.302    10317.612    21739.131     4007.185        8.275        1.803      354.646       72.381        0.042      335.374        5.961      854.100
05/06/2014  05:07:00     -211.808      285.903      -57.655       81.525      139.849       55.617     6646.256    19557.605     3093.299        7.961        1.465      355.814       45.464        0.016      335.366        5.948      854.107
05/06/2014  05:08:00     -182.611      327.567      -33.666       79.553      127.353       69.389     6328.742    16218.807     4814.791        8.457        1.368      375.029       59.442        0.025      335.357        5.933      854.101
05/06/2014  05:09:00     -172.105      197.342      -46.333       98.465       95.000       58.771     9695.442     9024.909     3454.019        4.644        1.109      261.847       57.886        0.049      335.366        5.949      854.106
05/06/2014  05:10:00     -100.004      201.185      -22.470      102.578      108.775       71.848    10522.215    11831.907     5162.193        3.924        1.376      224.669       66.950        0.089      335.394        5.994      854.100
05/06/2014  05:11:00     -150.441      251.128      -27.228       83.841      114.973       60.011     7029.365    13218.762     3601.297        5.514        1.192      292.742       53.700        0.034      335.372        5.958      854.098
05/06/2014  05:12:00      -82.948      144.000       -6.887       59.881      103.940       48.891     3585.704    10803.622     2390.306        2.222        0.839      166.182       45.418        0.075      335.437        6.069      854.095
05/06/2014  05:13:00     -175.733      161.854      -47.686      109.136      108.376       55.985    11910.653    11745.264     3134.338        4.307        1.340      238.912       69.198        0.084      335.379        5.971      854.102
05/06/2014  05:14:00     -180.103      222.248      -31.503      132.071      135.132       73.981    17442.829    18260.775     5473.197        6.199        2.059      286.061       85.121        0.089      335.329        5.888      854.114
05/06/2014  05:15:00     -119.968      305.022      -42.535      114.695      117.357       59.503    13154.900    13772.680     3540.649        6.985        1.523      327.767       60.473        0.034      335.359        5.937      854.109
05/06/2014  05:16:00     -140.357      151.937      -28.803       75.120       74.126       47.760     5642.979     5494.623     2281.009        2.851        0.671      206.845       41.116        0.040      335.383        5.978      854.103
05/06/2014  05:17:00     -197.159      275.244      -45.837      106.057      102.627       66.618    11248.048    10532.300     4437.956        7.147        1.311      338.572       62.067        0.034      335.337        5.899      854.102
05/06/2014  05:18:00     -203.731      257.840      -51.048      103.013      118.119       60.113    10611.737    13952.127     3613.596        6.938        1.409      328.615       60.428        0.034      335.331        5.889      854.089
05/06/2014  05:19:00     -181.230      237.096      -38.404      107.748      125.018       56.914    11609.695    15629.568     3239.181        6.050        1.524      298.427       53.350        0.032      335.352        5.925      854.091
05/06/2014  05:20:00     -164.348      267.881      -41.115      100.712      125.830       58.274    10142.848    15833.293     3395.910        6.491        1.469      314.278       57.842        0.034      335.322        5.876      854.098
05/06/2014  05:21:00     -152.299      147.446      -30.364       84.015      109.647       47.641     7058.492    12022.423     2269.682        3.360        1.068      211.980       52.301        0.061      335.370        5.955      854.076
05/06/2014  05:22:00     -137.597      188.802      -27.271       75.700      156.501       46.250     5730.544    24492.487     2139.059        4.384        1.618      233.622       59.926        0.066      335.393        5.995      854.072
05/06/2014  05:23:00     -162.073      272.105      -40.637       92.975      112.533       60.082     8644.290    12663.711     3609.827        6.343        1.246      316.715       63.704        0.040      335.297        5.834      854.066
05/06/2014  05:24:00     -176.024      209.964      -42.248       97.766       99.958       66.153     9558.223     9991.699     4376.202        5.039        1.196      273.988       63.430        0.054      335.322        5.875      854.058
05/06/2014  05:25:00     -113.762      126.305      -10.993       75.139       64.297       38.992     5645.796     4134.093     1520.407        2.016        0.565      169.985       32.865        0.037      335.368        5.953      854.050
05/06/2014  05:26:00     -177.220      310.359      -52.052      124.804      147.603       67.058    15576.079    21786.780     4496.813        8.614        2.093      357.393       75.654        0.045      335.326        5.883      854.051
05/06/2014  05:27:00     -208.256      254.976      -53.088       93.927      110.137       54.516     8822.269    12130.181     2972.023        6.756        1.196      329.216       49.197        0.022      335.302        5.841      854.059
05/06/2014  05:28:00     -152.825      210.694      -26.983       88.698       93.057       54.053     7867.342     8659.568     2921.684        4.396        0.972      260.284       47.394        0.033      335.355        5.930      854.061
05/06/2014  05:29:00     -136.710      181.101      -25.519      117.332       98.709       64.486    13766.740     9743.434     4158.411        3.990        1.383      226.907       67.816        0.089      335.372        5.960      854.055
05/06/2014  05:30:00     -152.212      270.238      -38.346       87.747      127.896       62.163     7699.513    16357.322     3864.278        6.279        1.396      310.156       57.413        0.034      335.303        5.843      854.067
05/06/2014  05:31:00     -111.558      166.058      -27.271       78.558       69.821       53.272     6171.344     4874.915     2837.903        2.732        0.694      200.051       35.656        0.032      335.387        5.984      854.078
05/06/2014  05:32:00     -129.041      243.127      -18.354      111.699      157.750       75.876    12476.607    24885.010     5757.231        5.960        2.156      275.249       70.668        0.066      335.338        5.904      854.089
05/06/2014  05:33:00     -145.039      174.674      -21.166       84.635       76.147       50.466     7163.150     5798.400     2546.863        3.375        0.775      227.040       46.414        0.042      335.333        5.894      854.099
05/06/2014  05:34:00     -161.781      296.078      -43.429      126.606      120.794       67.651    16029.175    14591.311     4576.635        7.545        1.760      337.395       74.616        0.049      335.320        5.871      854.108
05/06/2014  05:35:00     -194.056      222.794      -48.755       96.606       96.794       53.749     9332.692     9369.058     2888.981        5.563        1.080      295.457       52.792        0.032      335.336        5.898      854.113
05/06/2014  05:36:00     -181.554      197.963      -43.185      102.473       87.905       64.826    10500.725     7727.277     4202.416        4.822        1.122      268.610       69.919        0.068      335.323        5.878      854.120
05/06/2014  05:37:00     -155.890      257.734      -25.834      107.698      115.628       72.139    11598.862    13369.912     5204.030        6.078        1.509      301.211       62.196        0.043      335.325        5.880      854.130
05/06/2014  05:38:00     -129.124      191.977      -22.367       86.334      115.296       52.360     7453.622    13293.065     2741.528        3.875        1.174      231.362       40.823        0.031      335.348        5.917      854.145
05/06/2014  05:39:00     -210.295      259.585      -57.631      104.476      118.857       53.346    10915.144    14126.879     2845.832        7.140        1.394      334.079       60.174        0.032      335.316        5.866      854.156
05/06/2014  05:40:00     -141.709      218.492      -21.902      100.721      113.405       59.930    10144.800    12860.610     3591.566        4.744        1.330      260.423       60.474        0.054      335.332        5.893      854.158
05/06/2014  05:41:00     -189.356       82.740      -37.404       65.365       85.126       40.676     4272.616     7246.409     1654.551        2.863        0.659      206.644       34.149        0.027      335.387        5.984      854.153
05/06/2014  05:42:00     -116.969      171.582      -25.228       91.866       99.573       57.945     8439.271     9914.788     3357.566        3.273        1.086      207.659       45.211        0.047      335.378        5.970      854.157
05/06/2014  05:43:00     -133.700      107.733      -11.304       79.191       90.032       49.563     6271.199     8105.788     2456.477        2.322        0.842      171.703       41.322        0.058      335.400        6.007      854.162
05/06/2014  05:44:00      -57.465      105.172        4.112       77.105      107.097       61.336     5945.207    11469.770     3762.098        1.777        1.059      119.847       51.178        0.182      335.444        6.081      854.158
05/06/2014  05:45:00      -81.393      114.396       -6.387       46.133       61.738       37.479     2128.223     3811.607     1404.661        1.355        0.367      140.397       28.145        0.040      335.459        6.106      854.154
05/06/2014  05:46:00     -125.168       67.721      -26.951       73.678       84.280       34.773     5428.433     7103.093     1209.140        1.736        0.687      142.314       30.997        0.047      335.454        6.098      854.162
05/06/2014  05:47:00     -125.223      156.111       -4.695       88.620       84.962       63.680     7853.576     7218.625     4055.198        2.960        0.956      200.128       58.447        0.085      335.426        6.049      854.158
05/06/2014  05:48:00     -265.620      133.054      -45.663      189.003       89.320       80.271    35722.264     7977.998     6443.493        7.023        2.507      297.081       85.783        0.083      335.409        6.020      854.165
05/06/2014  05:49:00     -117.917      102.472      -22.348       70.541       88.264       43.433     4976.005     7790.464     1886.388        1.978        0.733      156.221       40.935        0.069      335.468        6.120      854.143
05/06/2014  05:50:00     -121.064       74.433      -15.383       87.558       94.221       52.034     7666.359     8877.509     2707.506        1.984        0.963      142.115       50.250        0.125      335.434        6.063      854.146
05/06/2014  05:51:00     -124.157      188.211      -19.339       93.883      141.229       65.383     8813.995    19945.764     4274.951        4.212        1.652      225.474       68.382        0.092      335.388        5.985      854.147
05/06/2014  05:52:00      -95.204       52.770      -19.558       66.733       82.208       44.014     4453.275     6758.185     1937.246        1.269        0.657      108.851       15.002        0.019      335.436        6.067      854.148
05/06/2014  05:53:00     -105.362       61.780      -13.207       63.209       89.280       42.697     3995.428     7970.962     1823.063        1.444        0.689      122.140       32.008        0.069      335.420        6.040      854.144
05/06/2014  05:54:00     -192.551       77.207      -27.491      154.867       97.110       76.181    23983.823     9430.359     5803.570        4.150        1.961      207.453       91.849        0.196      335.405        6.015      854.166
05/06/2014  05:55:00      -62.815       26.365      -14.826       64.149       46.274       27.087     4115.073     2141.318      733.702        0.592        0.350       68.124       24.148        0.126      335.490        6.159      854.172
05/06/2014  05:56:00      -90.391       20.265      -10.584       98.627       75.864       46.864     9727.292     5755.414     2196.193        1.318        0.884       92.635       34.107        0.136      335.442        6.078      854.193
05/06/2014  05:57:00      -89.879       99.387      -11.975       79.442       80.636       51.506     6310.956     6502.131     2652.864        1.678        0.773      134.000       52.905        0.156      335.410        6.023      854.198
05/06/2014  05:58:00     -142.174      125.354      -23.411       71.639       98.214       47.425     5132.204     9645.930     2249.131        2.675        0.851      189.544       40.925        0.047      335.409        6.021      854.211
05/06/2014  05:59:00     -101.390      186.133      -26.194      117.224      104.367       60.984    13741.515    10892.553     3719.029        3.698        1.418      211.956       69.691        0.108      335.382        5.975      854.215
05/06/2014  06:00:00      -84.053       61.111       -5.800       95.403       61.487       35.726     9101.672     3780.660     1276.327        1.249        0.708      103.921       39.739        0.146      335.414        6.030      854.216
05/06/2014  06:01:00     -115.978      137.154      -12.383      107.811      116.274       50.770    11623.264    13519.738     2577.569        3.006        1.386      179.616       55.028        0.094      335.401        6.009      854.201
05/06/2014  06:02:00     -234.158      206.439      -60.696       98.981      120.641       67.139     9797.208    14554.321     4507.608        6.499        1.443      312.165       63.192        0.041      335.353        5.925      854.202
05/06/2014  06:03:00     -118.720      156.759      -24.529       83.764      133.063       60.836     7016.479    17705.880     3701.025        3.384        1.421      196.641       50.610        0.066      335.383        5.978      854.186
05/06/2014  06:04:00     -140.553      111.212      -25.471       91.064       77.108       55.680     8292.582     5945.582     3100.207        2.505        0.867      179.229       59.635        0.111      335.391        5.990      854.182
05/06/2014  06:05:00     -158.297      161.739      -36.163       74.776      122.455       48.950     5591.507    14995.141     2396.100        3.775        1.149      226.313       54.736        0.058      335.366        5.949      854.175
05/06/2014  06:06:00     -143.264      153.791      -30.803       91.113      110.911       48.592     8301.616    12301.170     2361.173        3.404        1.148      210.181       34.307        0.027      335.372        5.958      854.181
05/06/2014  06:07:00     -272.897      241.312      -60.035      115.789      114.047       75.608    13407.177    13006.694     5716.575        8.421        1.607      364.286       70.236        0.037      335.369        5.953      854.184
05/06/2014  06:08:00     -202.189      271.973      -49.783      118.295      110.225       63.050    13993.780    12149.640     3975.330        7.372        1.506      338.895       61.987        0.033      335.370        5.954      854.181
05/06/2014  06:09:00      -71.948      130.338      -15.876       57.527       86.734       47.114     3309.342     7522.806     2219.684        1.773        0.653      148.878       33.577        0.051      335.458        6.105      854.179
05/06/2014  06:10:00     -165.503      194.955      -26.256      102.172      164.856       66.599    10439.092    27177.380     4435.376        5.406        2.103      255.731       75.057        0.086      335.423        6.044      854.205
05/06/2014  06:11:00     -176.576      214.534      -30.458      106.907      103.903       60.824    11429.075    10795.892     3699.511        5.202        1.296      277.856       56.155        0.041      335.396        5.999      854.216
05/06/2014  06:12:00     -123.839      140.784       -8.487       97.694      130.162       60.801     9544.024    16942.248     3696.768        3.270        1.509      187.500       64.259        0.117      335.430        6.056      854.225
05/06/2014  06:13:00     -191.893      203.823      -44.642      127.037       83.482       63.074    16138.341     6969.220     3978.313        5.372        1.354      279.941       75.167        0.072      335.375        5.963      854.237
05/06/2014  06:14:00     -164.941      208.819      -33.683      102.070       97.016       57.223    10418.202     9412.103     3274.473        4.752        1.155      266.103       54.070        0.041      335.398        6.002      854.253
05/06/2014  06:15:00     -151.966      229.536      -30.907      110.007      157.198       60.917    12101.481    24711.112     3710.853        5.862        2.026      275.282       65.779        0.057      335.396        5.999      854.266
05/06/2014  06:16:00     -127.651      222.574      -31.469       79.847       80.277       44.471     6375.527     6444.474     1977.709        4.081        0.740      256.582       38.547        0.023      335.459        6.102      854.257
05/06/2014  06:17:00      -91.288       94.665      -16.991       48.296       57.084       30.137     2332.531     3258.605      908.267        1.204        0.325      131.511       25.013        0.036      335.462        6.112      854.256
05/06/2014  06:18:00     -116.888      151.203      -27.276      107.691       84.846       44.444    11597.329     7198.860     1975.309        2.902        1.039      191.116       47.707        0.062      335.510        6.191      854.270
05/06/2014  06:19:00     -178.138      247.457      -12.196      136.959      173.829       74.431    18757.787    30216.548     5540.023        7.380        2.726      304.906       69.826        0.052      335.449        6.088      854.277
05/06/2014  06:20:00     -153.335      180.566      -18.235      108.391      100.791       50.571    11748.513    10158.731     2557.457        4.045        1.223      236.887       56.208        0.056      335.470        6.125      854.286
05/06/2014  06:21:00     -136.468      220.333      -22.506       94.705      150.590       58.472     8968.992    22677.444     3418.939        5.136        1.753      259.172       62.529        0.058      335.503        6.176      854.292
05/06/2014  06:22:00     -204.983      285.519      -39.494      114.610      131.560       68.778    13135.387    17308.074     4730.478        8.013        1.759      351.481       70.013        0.040      335.477        6.133      854.299
05/06/2014  06:23:00     -159.713      233.559      -18.098       97.123      128.509       63.764     9432.826    16514.624     4065.858        5.519        1.501      282.945       52.256        0.034      335.501        6.174      854.319
05/06/2014  06:24:00     -175.299      223.787      -30.565       80.764      109.063       58.203     6522.765    11894.650     3387.599        5.177        1.090      284.271       42.713        0.023      335.487        6.149      854.336
05/06/2014  06:25:00     -140.106      239.837      -31.524       78.041      124.391       52.830     6090.405    15473.077     2791.014        5.124        1.218      277.762       47.882        0.030      335.494        6.163      854.359
05/06/2014  06:26:00     -225.952      191.410      -40.577      126.684      121.555       54.051    16048.817    14775.590     2921.474        6.154        1.687      296.129       57.775        0.038      335.502        6.175      854.390
05/06/2014  06:27:00     -304.006      337.426      -84.198      153.284      130.929       74.913    23496.098    17142.352     5611.982       12.980        2.313      454.176       88.244        0.038      335.425        6.046      854.387
05/06/2014  06:28:00     -223.966      251.710      -50.868      119.912      118.772       68.451    14378.823    14106.751     4685.563        7.463        1.659      336.925       69.534        0.043      335.437        6.066      854.393
05/06/2014  06:29:00     -186.080      278.593      -45.075       87.889      105.238       61.937     7724.563    11075.000     3836.176        6.845        1.132      335.022       51.031        0.023      335.469        6.120      854.380
05/06/2014  06:30:00     -179.260      230.874      -50.337       84.727      111.766       64.722     7178.586    12491.581     4188.942        5.591        1.193      292.296       60.220        0.042      335.450        6.089      854.394
05/06/2014  06:31:00     -140.794      330.181      -50.163      111.988      103.969       65.182    12541.408    10809.539     4248.747        7.947        1.380      358.946       58.680        0.027      335.443        6.076      854.393
05/06/2014  06:32:00     -141.577      244.568      -45.017       74.748      124.752       61.545     5587.312    15563.087     3787.836        5.341        1.247      282.591       57.792        0.042      335.456        6.099      854.416
05/06/2014  06:33:00     -144.685      305.601      -49.401      105.833       79.894       48.077    11200.729     6383.117     2311.377        6.833        0.995      338.121       44.536        0.017      335.428        6.052      854.434
05/06/2014  06:34:00     -116.865      127.865      -27.112       64.143       82.888       42.992     4114.312     6870.421     1848.334        2.178        0.642      173.225       41.928        0.059      335.515        6.197      854.442
05/06/2014  06:35:00      -74.000      137.768      -14.980       76.459       71.543       42.606     5845.903     5118.470     1815.244        1.873        0.639      156.384       38.627        0.061      335.578        6.303      854.449
05/06/2014  06:36:00      -96.552      151.446      -14.414       83.656       92.787       48.548     6998.352     8609.402     2356.897        2.521        0.898      179.605       57.249        0.102      335.537        6.236      854.472
05/06/2014  06:37:00     -109.612      149.123      -21.410       59.292       54.287       40.588     3515.490     2947.056     1647.376        2.141        0.405      185.074       41.304        0.050      335.568        6.289      854.496
05/06/2014  06:38:00     -148.179      199.520      -37.844       90.092       78.881       54.943     8116.506     6222.286     3018.764        4.027        0.868      248.527       41.494        0.028      335.485        6.147      854.503
05/06/2014  06:39:00     -193.012      175.505      -47.129      114.281      123.426       55.903    13060.161    15234.010     3125.158        5.084        1.571      260.875       63.597        0.059      335.523        6.212      854.529
05/06/2014  06:40:00     -195.087      274.555      -44.825      110.542      142.789       72.840    12219.467    20388.636     5305.649        7.667        1.896      336.808       85.952        0.065      335.467        6.119      854.552
05/06/2014  06:41:00      -80.908      171.722      -16.463       60.009       96.080       49.120     3601.059     9231.425     2412.817        2.577        0.762      189.827       45.038        0.056      335.545        6.249      854.563
05/06/2014  06:42:00      -32.051       71.573       -4.431       57.298       57.056       25.248     3283.113     3255.394      637.485        0.667        0.359       78.422       15.455        0.039      335.648        6.422      854.566
05/06/2014  06:43:00     -139.241      139.975      -23.701       92.159       94.657       47.740     8493.356     8960.011     2279.130        2.963        0.987      197.436       54.089        0.075      335.586        6.317      854.590
05/06/2014  06:44:00     -176.314      207.796      -53.809       95.749       96.265       58.181     9167.869     9267.034     3385.079        4.949        1.091      272.518       45.336        0.028      335.487        6.150      854.610
05/06/2014  06:45:00     -126.323      146.188      -23.276       63.512       62.277       43.977     4033.717     3878.455     1933.969        2.386        0.492      193.206       38.776        0.040      335.560        6.274      854.607
05/06/2014  06:46:00      -51.117      261.989      -35.529      116.243      138.579       68.281    13512.514    19204.145     4662.318        5.494        1.869      266.929       54.687        0.042      335.492        6.159      854.626
05/06/2014  06:47:00       14.704      333.229      -43.902       66.840      128.964       49.412     4467.594    16631.704     2441.539        6.836        1.177      333.554       49.817        0.022      335.443        6.076      854.612
05/06/2014  06:48:00      -81.214       58.758      -12.646       64.777      113.957       46.657     4196.020    12986.110     2176.912        1.478        0.968      100.241       27.834        0.077      335.640        6.406      854.594
05/06/2014  06:49:00     -130.538      177.010      -24.719      144.369      126.214       63.691    20842.463    15929.928     4056.580        4.490        2.041      219.938       73.828        0.113      335.565        6.282      854.598
05/06/2014  06:50:00      -87.806      140.432      -17.850       62.374       78.202       44.268     3890.557     6115.545     1959.666        1.986        0.598      165.624       44.527        0.072      335.552        6.261      854.606
05/06/2014  06:51:00      -90.337      216.066      -18.770       97.428      107.869       54.752     9492.189    11635.752     2997.759        3.966        1.206      234.190       56.567        0.058      335.574        6.295      854.616
05/06/2014  06:52:00     -119.236      316.008      -40.746       97.703      129.741       57.006     9545.799    16832.624     3249.675        7.268        1.481      337.755       45.452        0.018      335.512        6.193      854.616
05/06/2014  06:53:00      -58.037      286.060      -25.585       58.451      106.320       47.150     3416.539    11303.946     2223.158        5.140        0.847      291.888       42.042        0.021      335.532        6.225      854.630
05/06/2014  06:54:00     -100.084      286.828      -35.490       72.133      117.917       50.844     5203.234    13904.357     2585.154        5.762        1.085      303.788       46.667        0.024      335.572        6.291      854.647
05/06/2014  06:55:00      -91.843      340.695      -43.316       66.202      104.277       50.525     4382.647    10873.676     2552.816        7.209        0.890      352.857       44.140        0.016      335.534        6.230      854.638
05/06/2014  06:56:00     -125.417      356.448      -44.450       99.164      121.387       55.156     9833.448    14734.755     3042.188        8.618        1.381      377.869       53.307        0.020      335.517        6.200      854.657
05/06/2014  06:57:00      -74.996      198.472        1.286       88.067      152.743       65.278     7755.846    23330.549     4261.193        4.018        1.767      212.169       84.006        0.157      335.615        6.366      854.664
05/06/2014  06:58:00      -68.962      229.133       -8.964       95.164      124.851       64.033     9056.248    15587.871     4100.220        4.304        1.437      239.286       59.808        0.062      335.594        6.329      854.669
05/06/2014  06:59:00      -60.505      317.403      -29.141       94.367      145.459       64.891     8905.205    21158.228     4210.873        6.976        1.714      323.119       69.426        0.046      335.569        6.287      854.674
05/06/2014  07:00:00      -99.758      203.373      -25.206       69.733      100.753       53.645     4862.682    10151.107     2877.761        3.492        0.895      226.522       45.598        0.041      335.655        6.430      854.691
05/06/2014  07:01:00      -43.501      302.041      -37.698       75.277      130.728       45.262     5666.651    17089.831     2048.663        5.967        1.240      305.157       50.441        0.027      335.538        6.236      854.696
05/06/2014  07:02:00      -73.418      327.839      -45.032       76.771       93.751       41.801     5893.853     8789.317     1747.330        6.566        0.822      335.959       42.360        0.016      335.560        6.272      854.690
05/06/2014  07:03:00      -35.589      304.602      -26.661       81.751      119.342       64.380     6683.247    14242.394     4144.790        5.991        1.254      306.674       66.524        0.047      335.559        6.271      854.700
05/06/2014  07:04:00      -99.754      319.384      -29.199       88.821      197.078       68.146     7889.130    38839.662     4643.851        8.208        2.569      334.600       88.817        0.070      335.570        6.290      854.708
05/06/2014  07:05:00      -72.946      333.646      -36.564       62.429       89.983       43.232     3897.419     8096.923     1869.024        6.592        0.693      341.527       45.912        0.018      335.559        6.272      854.711
05/06/2014  07:06:00      -56.026      166.420      -17.574       59.752      114.874       39.378     3570.304    13195.957     1550.622        2.473        0.916      175.597       49.051        0.078      335.639        6.406      854.711
05/06/2014  07:07:00     -107.596      250.161      -29.001      111.891      123.870       49.872    12519.706    15343.775     2487.184        5.267        1.518      272.319       40.811        0.022      335.622        6.375      854.717
05/06/2014  07:08:00     -120.446      252.247      -29.166       68.117      145.509       48.393     4639.900    21172.924     2341.918        5.356        1.408      279.527       61.225        0.048      335.632        6.393      854.725
05/06/2014  07:09:00      -91.964      183.650      -24.707      109.102       89.879       57.322    11903.240     8078.303     3285.853        3.303        1.163      205.389       60.380        0.086      335.672        6.459      854.728
05/06/2014  07:10:00     -102.270      174.853      -18.258       64.342       85.992       49.377     4139.851     7394.609     2438.134        2.767        0.699      202.565       41.461        0.042      335.654        6.430      854.741
05/06/2014  07:11:00     -152.232      132.984      -26.564      110.619       89.283       46.483    12236.645     7971.496     2160.696        3.196        1.118      202.137       38.138        0.036      335.680        6.475      854.759
05/06/2014  07:12:00      -71.388      169.299      -13.615       62.020      151.606       43.280     3846.439    22984.468     1873.184        3.132        1.435      183.735       62.540        0.116      335.754        6.596      854.789
05/06/2014  07:13:00     -109.893       89.431      -17.042       93.736       56.010       45.451     8786.449     3137.068     2065.776        1.717        0.699      141.684       49.419        0.122      335.740        6.574      854.805
05/06/2014  07:14:00     -154.516      119.496      -17.333       94.114       82.164       48.730     8857.514     6750.842     2374.628        2.822        0.899      195.332       55.125        0.080      335.702        6.510      854.834
05/06/2014  07:15:00     -171.369      148.763      -32.376       77.877       83.247       48.087     6064.813     6930.030     2312.331        3.392        0.765      226.931       41.789        0.034      335.663        6.445      854.856
05/06/2014  07:16:00     -174.545      226.869      -22.072       94.205      124.225       67.685     8874.659    15431.971     4581.205        5.565        1.444      286.244       80.303        0.079      335.635        6.398      854.880
05/06/2014  07:17:00      -66.536      126.678       -6.439       56.103      127.006       37.410     3147.557    16130.429     1399.477        2.059        1.034      143.089       45.839        0.103      335.698        6.504      854.896
05/06/2014  07:18:00      -98.541      157.782      -32.662       60.266       77.999       47.404     3631.988     6083.821     2247.143        2.382        0.598      186.026       42.520        0.052      335.641        6.409      854.915
05/06/2014  07:19:00     -179.746      293.438      -47.966      117.306      148.518       58.485    13760.756    22057.728     3420.551        7.997        1.962      344.114       71.211        0.043      335.614        6.362      854.921
05/06/2014  07:20:00     -105.790      253.327      -21.690       78.727      129.551       57.062     6198.019    16783.425     3256.047        5.103        1.312      274.529       55.093        0.040      335.746        6.582      854.951
05/06/2014  07:21:00     -244.778      217.690      -35.091      158.548      134.127       80.365    25137.584    17990.040     6458.597        7.905        2.479      327.575       92.794        0.080      335.628        6.385      854.968
05/06/2014  07:22:00     -168.160      192.458      -44.777      111.505       88.242       60.691    12433.291     7786.589     3683.438        4.561        1.195      255.573       53.054        0.043      335.650        6.421      854.975
05/06/2014  07:23:00      -97.357      180.145       -9.840       78.759      116.793       58.498     6202.925    13640.719     3422.052        3.264        1.163      204.769       57.397        0.079      335.676        6.467      854.972
05/06/2014  07:24:00     -189.727      223.486      -29.089      112.895       96.976       63.339    12745.194     9404.342     4011.870        5.647        1.308      293.160       56.815        0.038      335.626        6.382      854.972
05/06/2014  07:25:00     -108.683      303.819      -27.641       94.088      156.497       54.842     8852.590    24491.401     3007.612        7.061        1.818      322.673       71.762        0.049      335.646        6.416      854.998
05/06/2014  07:26:00     -145.150      193.182      -24.337       94.884      168.837       63.313     9003.003    28505.928     4008.541        5.024        2.076      241.636       77.523        0.103      335.646        6.417      854.993
05/06/2014  07:27:00     -181.931      283.614      -49.559       87.509      107.143       59.855     7657.791    11479.687     3582.628        6.935        1.136      336.951       53.676        0.025      335.582        6.308      855.015
05/06/2014  07:28:00     -111.232      251.859      -35.966      125.562      132.476       51.008    15765.917    17549.871     2601.863        5.650        1.796      275.328       44.134        0.026      335.645        6.415      855.000
05/06/2014  07:29:00     -225.811      207.900      -40.179      125.837      141.104       76.208    15834.975    19910.334     5807.698        6.868        2.078      306.941       85.462        0.078      335.584        6.313      854.995
05/06/2014  07:30:00     -149.858      125.592       -8.974       86.992      110.860       64.833     7567.679    12289.941     4203.274        3.118        1.203      195.527       50.481        0.067      335.652        6.426      854.982
05/06/2014  07:31:00     -247.044      305.661      -53.834      124.879      147.276       66.760    15594.685    21690.257     4456.962        9.954        2.087      393.013       60.702        0.024      335.554        6.262      855.007
05/06/2014  07:32:00     -173.258      166.516      -31.263      123.010       98.757       60.995    15131.384     9753.032     3720.450        4.366        1.430      240.303       67.022        0.078      335.602        6.342      855.019
05/06/2014  07:33:00      -40.457      233.149      -22.101       61.959       92.380       44.937     3838.933     8534.071     2019.310        3.543        0.720      236.633       45.840        0.038      335.624        6.378      855.030
05/06/2014  07:34:00      -86.572      186.243      -23.744       71.714       99.068       43.877     5142.861     9814.404     1925.163        2.981        0.844      205.381       46.609        0.052      335.652        6.427      855.033
05/06/2014  07:35:00     -145.293      193.343      -32.023       93.213      100.234       56.766     8688.744    10046.874     3222.399        4.073        1.098      241.851       55.056        0.052      335.638        6.402      855.047
05/06/2014  07:36:00     -166.157      244.311      -29.903      120.416      125.112       66.184    14500.126    15653.019     4380.280        6.136        1.727      295.460       69.633        0.056      335.570        6.289      855.054
05/06/2014  07:37:00      -74.810      400.873      -36.238       96.938      117.307       59.187     9396.882    13761.034     3503.100        9.713        1.333      407.793       46.683        0.013      335.525        6.214      855.048
05/06/2014  07:38:00     -187.991      144.341      -22.118      118.232      140.124       60.732    13978.694    19634.654     3688.337        4.698        1.865      237.012       56.122        0.056      335.631        6.391      855.057
05/06/2014  07:39:00     -196.550      325.661      -58.439      126.770      112.675       77.073    16070.681    12695.692     5940.235        9.140        1.735      380.377       76.458        0.040      335.503        6.177      855.061
05/06/2014  07:40:00     -187.102      220.482      -29.464      113.998      113.655       64.469    12995.485    12917.501     4156.270        5.727        1.503      289.170       57.386        0.039      335.564        6.278      855.059
05/06/2014  07:41:00     -194.165      244.100      -53.661       90.397      102.353       57.327     8171.705    10476.218     3286.374        6.104        1.097      311.905       56.264        0.033      335.556        6.265      855.066
05/06/2014  07:42:00     -214.243      249.965      -54.583       99.442      106.684       54.082     9888.747    11381.420     2924.875        6.777        1.210      329.215       42.580        0.017      335.536        6.232      855.072
05/06/2014  07:43:00      -78.336      170.414      -10.457       74.083      125.344       49.825     5488.246    15711.042     2482.509        2.948        1.184      187.557       53.378        0.081      335.714        6.531      855.072
05/06/2014  07:44:00     -132.399      177.163      -32.495       76.543      113.506       52.812     5858.857    12883.694     2789.124        3.575        1.077      221.170       55.827        0.064      335.615        6.366      855.080
05/06/2014  07:45:00     -103.582      272.449      -29.591       87.217       96.459       50.088     7606.788     9304.383     2508.829        5.262        0.971      291.475       35.699        0.015      335.628        6.385      855.089
05/06/2014  07:46:00     -199.492      309.530      -69.703      177.115      125.112       78.106    31369.619    15653.023     6100.523        9.678        2.656      368.248       96.613        0.069      335.591        6.324      855.117
05/06/2014  07:47:00     -174.422      321.732      -52.301      139.176      127.631       66.066    19369.933    16289.579     4364.731        8.834        2.001      365.971       76.973        0.044      335.589        6.320      855.128
05/06/2014  07:48:00     -141.502      368.529      -37.524       96.955      179.720       52.943     9400.274    32299.426     2803.012       10.086        2.225      394.761       52.021        0.017      335.601        6.339      855.125
05/06/2014  07:49:00     -253.337      275.968      -61.368      138.261      118.500       86.214    19116.070    14042.166     7432.809        9.234        2.030      374.617       63.170        0.028      335.547        6.250      855.140
05/06/2014  07:50:00     -175.285      199.979      -37.960       94.784       83.733       56.452     8984.013     7011.260     3186.792        4.567        0.959      265.926       48.913        0.034      335.634        6.395      855.133
05/06/2014  07:51:00     -242.204      208.695      -42.829      110.955       92.772       55.375    12310.952     8606.655     3066.346        6.401        1.199      319.713       46.328        0.021      335.586        6.314      855.143
05/06/2014  07:52:00      -99.215      226.668      -13.047       91.519      145.096       69.848     8375.687    21052.880     4878.798        4.784        1.715      247.430       69.668        0.079      335.647        6.417      855.150
05/06/2014  07:53:00     -195.266      271.910      -54.531      154.490      154.795       88.596    23867.076    23961.415     7849.201        8.535        2.784      334.759      103.208        0.095      335.568        6.286      855.159
05/06/2014  07:54:00     -153.327      425.842      -54.233       84.680      133.168       66.922     7170.751    17733.726     4478.497       11.858        1.469      452.604       55.478        0.015      335.509        6.189      855.171
05/06/2014  07:55:00     -125.179      337.334      -38.497      112.410      155.082       64.087    12636.084    24050.443     4107.098        8.586        2.040      359.811       70.272        0.038      335.533        6.227      855.162
05/06/2014  07:56:00     -129.370      350.053      -36.593      115.016      175.936       64.930    13228.681    30953.623     4215.915        9.450        2.420      373.195       67.502        0.033      335.532        6.225      855.153
05/06/2014  07:57:00     -198.172      310.055      -47.747      135.489      142.637       67.141    18357.231    20345.429     4507.974        9.044        2.161      367.976       68.486        0.035      335.528        6.219      855.168
05/06/2014  07:58:00     -218.929      212.254      -51.923      145.865      168.868       70.784    21276.548    28516.510     5010.420        7.523        2.740      304.929       75.570        0.061      335.521        6.207      855.163
05/06/2014  07:59:00     -116.662      305.161      -20.242      123.413      189.932       74.801    15230.661    36074.336     5595.230        8.201        2.845      326.701       87.691        0.072      335.546        6.248      855.150
05/06/2014  08:00:00     -186.085      237.848      -59.242      114.768      127.552       67.858    13171.754    16269.567     4604.730        6.437        1.702      301.993       82.910        0.075      335.475        6.131      855.157
05/06/2014  08:01:00     -208.574      134.743      -22.914      134.199      117.077       59.371    18009.357    13706.981     3524.905        4.871        1.762      248.312       59.848        0.058      335.553        6.263      855.169
05/06/2014  08:02:00     -237.560      286.751      -53.826      129.226      139.434       83.859    16699.359    19441.848     7032.338        9.236        2.159      372.372       77.626        0.043      335.539        6.237      855.170
05/06/2014  08:03:00     -233.865      374.049      -57.994      143.697      141.474       73.396    20648.847    20014.793     5386.983       12.200        2.303      441.141       86.021        0.038      335.452        6.092      855.193
05/06/2014  08:04:00     -168.191      223.205      -43.289       71.608      108.877       57.872     5127.678    11854.117     3349.207        5.015        1.017      279.479       36.328        0.017      335.543        6.243      855.187
05/06/2014  08:05:00     -231.720      153.675      -33.354      171.272      107.142       75.798    29334.020    11479.357     5745.391        6.248        2.328      278.047       93.851        0.114      335.578        6.301      855.191
05/06/2014  08:06:00     -198.257      319.563      -52.988      143.531      155.009       82.388    20601.054    24027.830     6787.863        9.782        2.571      376.067       92.475        0.060      335.541        6.241      855.204
05/06/2014  08:07:00     -258.145      303.129      -64.283      114.328      118.617       80.688    13070.899    14069.907     6510.627        9.815        1.683      398.153       73.731        0.034      335.537        6.235      855.196
05/06/2014  08:08:00     -223.755      332.847      -59.354      127.521      141.281       79.710    16261.567    19960.217     6353.714       10.347        2.129      401.066       69.598        0.030      335.552        6.257      855.202
05/06/2014  08:09:00     -146.882      221.820      -18.392       88.121      121.793       62.972     7765.336    14833.566     3965.520        4.884        1.328      266.043       61.655        0.054      335.678        6.468      855.200
05/06/2014  08:10:00     -172.615      188.686      -26.459       82.582       97.652       57.761     6819.845     9535.844     3336.289        4.289        0.985      255.731       58.607        0.053      335.708        6.519      855.194
05/06/2014  08:11:00     -180.357      191.613      -32.063      127.277      146.374       75.041    16199.479    21425.390     5631.103        5.676        2.163      263.143       87.591        0.111      335.749        6.588      855.179
05/06/2014  08:12:00      -72.672      156.879      -18.515       63.334      102.923       56.692     4011.133    10593.164     3213.962        2.402        0.891      172.894       50.019        0.084      335.949        6.921      855.191
05/06/2014  08:13:00     -146.260      215.263      -36.255      118.235      113.737       63.560    13979.520    12936.010     4039.906        4.999        1.548      260.250       65.361        0.063      335.868        6.785      855.181
05/06/2014  08:14:00     -160.222      213.702      -38.992       60.665       95.963       45.357     3680.226     9208.830     2057.294        4.390        0.747      267.095       34.619        0.017      335.901        6.839      855.180
05/06/2014  08:15:00     -129.741      277.817      -19.184      115.981      152.453       67.411    13451.579    23241.772     4544.304        6.780        2.062      306.619       70.621        0.053      335.879        6.805      855.182
05/06/2014  08:16:00     -257.867      325.407      -65.024      167.155      146.398       84.980    27940.916    21432.310     7221.625       11.659        2.830      415.193      101.800        0.060      335.720        6.538      855.229
05/06/2014  08:17:00     -167.838      311.439      -28.568      141.491      133.284       79.556    20019.622    17764.581     6329.155        8.504        2.206      353.786       83.602        0.056      335.744        6.579      855.220
05/06/2014  08:18:00     -174.847      325.727      -23.916      136.732      175.921       75.893    18695.657    30948.194     5759.800        9.631        2.770      369.688       81.971        0.049      335.659        6.437      855.222
05/06/2014  08:19:00     -222.283      328.769      -35.423      158.546      160.629       72.377    25136.803    25801.774     5238.381       10.745        2.809      396.861       85.342        0.046      335.591        6.324      855.224
05/06/2014  08:20:00     -106.937      264.094       -5.788      121.118      126.434       79.150    14669.629    15985.597     6264.753        5.906        1.846      284.923       72.340        0.064      335.740        6.571      855.208
05/06/2014  08:21:00     -100.806      152.377      -15.428       62.353       97.114       47.278     3887.900     9431.210     2235.184        2.458        0.778      182.703       31.843        0.030      335.917        6.868      855.196
05/06/2014  08:22:00     -258.838      283.670      -51.500      126.597      157.693       85.550    16026.842    24867.158     7318.854        9.916        2.411      384.013       78.173        0.041      335.654        6.428      855.209
05/06/2014  08:23:00     -231.431      328.748      -41.469      108.604      171.325       78.833    11794.892    29352.264     6214.595       10.535        2.368      402.040       79.861        0.039      335.642        6.407      855.202
05/06/2014  08:24:00     -196.655      188.549      -26.361      126.887      132.654       73.955    16100.328    17596.973     5469.312        5.703        1.958      272.440       68.968        0.064      335.786        6.649      855.182
05/06/2014  08:25:00     -125.803      230.954      -31.131      124.739      192.517       77.253    15559.778    37062.972     5968.036        6.435        2.930      262.995       57.549        0.048      335.758        6.602      855.202
05/06/2014  08:26:00     -216.036      304.418      -31.538      138.576      151.251       93.075    19203.254    22876.992     8662.958        9.553        2.537      373.286       90.186        0.058      335.744        6.579      855.213
05/06/2014  08:27:00     -251.399      244.013      -48.346      128.106      149.829       75.933    16411.027    22448.777     5765.816        8.484        2.231      350.348       74.027        0.045      335.651        6.423      855.211
05/06/2014  08:28:00     -131.918      198.468      -19.572      109.443      160.442       80.053    11977.668    25741.777     6408.540        5.064        2.206      238.311       79.531        0.111      335.800        6.672      855.196
05/06/2014  08:29:00     -238.167      154.481      -27.009      147.406      109.014       77.235    21728.629    11884.070     5965.197        6.044        1.979      283.880       80.433        0.080      335.767        6.617      855.204
05/06/2014  08:30:00     -148.994      173.555      -15.008      106.338      174.718       77.696    11307.866    30526.335     6036.627        5.020        2.394      228.737       57.717        0.064      335.809        6.688      855.179
05/06/2014  08:31:00     -155.979      184.071      -34.145       79.690       91.575       49.165     6350.531     8386.014     2417.228        3.826        0.858      241.271       44.985        0.035      335.841        6.740      855.196
05/06/2014  08:32:00     -122.546      254.127      -24.278       84.910      144.932       65.033     7209.630    21005.361     4229.335        5.631        1.622      282.132       59.544        0.045      335.853        6.761      855.201
05/06/2014  08:33:00     -243.367      187.099      -48.944      121.792      108.418       71.749    14833.351    11754.402     5147.930        6.418        1.587      306.974       65.764        0.046      335.821        6.707      855.210
05/06/2014  08:34:00     -203.220      240.498      -35.667      148.346      174.466       89.750    22006.624    30438.294     8055.062        8.044        3.025      314.861       87.289        0.077      335.779        6.635      855.213
05/06/2014  08:35:00     -206.683      227.684      -34.266      147.824      161.586       83.172    21852.040    26110.137     6917.523        7.529        2.744      307.502       85.843        0.078      335.754        6.595      855.233
05/06/2014  08:36:00     -222.652      277.793      -53.420      125.578      165.934       75.651    15769.831    27533.985     5723.074        8.930        2.451      356.010       83.031        0.054      335.718        6.536      855.244
05/06/2014  08:37:00     -224.663      334.133      -61.294      116.311      178.039       74.140    13528.287    31697.777     5496.769       10.829        2.536      402.639       80.129        0.040      335.633        6.393      855.269
05/06/2014  08:38:00     -179.987      212.066      -34.903      108.149       88.861       61.235    11696.191     7896.295     3749.688        5.096        1.167      278.149       66.376        0.057      335.752        6.592      855.276
05/06/2014  08:39:00     -146.159      329.464      -45.502      137.148      119.241       70.248    18809.658    14218.507     4934.762        8.496        1.898      360.429       69.365        0.037      335.752        6.591      855.287
05/06/2014  08:40:00     -199.473      316.079      -43.120      139.803      168.782       84.424    19544.786    28487.481     7127.337        9.835        2.758      373.758       90.088        0.058      335.732        6.559      855.316
05/06/2014  08:41:00     -212.227      354.052      -47.577      170.936      162.649       79.576    29219.160    26454.707     6332.395       11.732        3.100      412.787       93.813        0.052      335.652        6.425      855.327
05/06/2014  08:42:00     -153.295      273.918      -23.117       99.234      193.472       67.585     9847.299    37431.315     4567.709        7.545        2.592      313.896       87.006        0.077      335.692        6.494      855.319
05/06/2014  08:43:00     -117.291      199.801      -25.938      101.411      120.468       62.581    10284.211    14512.589     3916.386        4.153        1.436      231.685       63.104        0.074      335.751        6.589      855.309
05/06/2014  08:44:00     -118.805      424.254      -33.771      103.827      148.218       61.214    10780.081    21968.671     3747.169       11.586        1.825      440.575       63.582        0.021      335.684        6.478      855.309
05/06/2014  08:45:00     -201.844      166.278      -32.983       98.215      120.323       69.716     9646.222    14477.656     4860.255        4.922        1.449      261.514       61.582        0.055      335.763        6.610      855.330
05/06/2014  08:46:00     -113.007      215.724      -32.935       88.750      106.586       53.363     7876.522    11360.624     2847.616        4.123        1.104      243.531       43.487        0.032      335.831        6.723      855.326
05/06/2014  08:47:00      -75.185      115.529       11.685       76.996      102.921       54.071     5928.448    10592.782     2923.717        1.929        0.972      137.840       47.571        0.119      335.909        6.855      855.331
05/06/2014  08:48:00     -140.003      216.160      -35.312       89.865      121.438       64.467     8075.723    14747.177     4155.996        4.727        1.349      257.538       60.941        0.056      335.805        6.681      855.341
05/06/2014  08:49:00     -138.862      411.216      -45.955      113.792      139.298       62.706    12948.571    19404.006     3931.980       11.338        1.814      434.029       65.049        0.022      335.767        6.616      855.355
05/06/2014  08:50:00     -126.341      454.074      -54.986      117.807      148.793       72.103    13878.506    22139.300     5198.876       13.318        2.061      471.323       71.404        0.023      335.644        6.412      855.359
05/06/2014  08:51:00     -193.705      472.987      -58.708      128.234      182.443       82.537    16443.855    33285.426     6812.372       16.060        2.827      511.115       90.421        0.031      335.578        6.301      855.383
05/06/2014  08:52:00     -201.531      373.153      -64.747      127.891      142.136       79.197    16355.996    20202.756     6272.110       11.343        2.142      424.097       81.169        0.037      335.577        6.301      855.399
05/06/2014  08:53:00     -236.371      327.425      -55.624      156.565      179.059       89.319    24512.701    32062.104     7977.943       11.535        3.228      403.830      104.059        0.066      335.541        6.240      855.419
05/06/2014  08:54:00     -164.761      337.824      -43.194       87.719      150.910       62.931     7694.684    22773.677     3960.300        8.878        1.721      375.861       64.631        0.030      335.542        6.243      855.433
05/06/2014  08:55:00     -151.687      400.921      -49.109       97.425      178.805       63.004     9491.662    31971.259     3969.550       11.579        2.272      428.657       71.742        0.028      335.458        6.102      855.436
05/06/2014  08:56:00     -101.558      294.741      -40.032      101.258      139.405       56.633    10253.195    19433.873     3207.281        6.583        1.645      311.747       51.543        0.027      335.526        6.216      855.431
05/06/2014  08:57:00     -147.430      313.962      -45.524       78.180      129.102       58.570     6112.177    16667.210     3430.411        7.429        1.310      346.854       54.939        0.025      335.559        6.270      855.446
05/06/2014  08:58:00     -206.832      291.297      -55.964      101.877      113.452       64.697    10378.962    12871.424     4185.697        7.910        1.372      357.258       58.912        0.027      335.541        6.241      855.458
05/06/2014  08:59:00      -79.626      318.398      -46.093      121.482      124.647       62.226    14757.985    15536.994     3872.114        7.200        1.708      328.204       61.771        0.035      335.570        6.288      855.463
05/06/2014  09:00:00     -114.266      366.070      -40.307       93.862      151.649       61.377     8810.058    22997.387     3767.121        9.212        1.779      383.489       53.061        0.019      335.560        6.272      855.462
05/06/2014  09:01:00     -227.525      308.527      -68.145      131.290      123.008       73.662    17237.093    15130.942     5426.054        9.469        1.890      383.349       81.958        0.046      335.577        6.300      855.476
05/06/2014  09:02:00     -203.826      225.788      -34.609      115.680      148.873       70.704    13381.857    22163.059     4999.071        6.713        2.027      304.180       79.663        0.069      335.554        6.261      855.481
05/06/2014  09:03:00     -193.202      332.235      -39.452      132.530      115.871       72.034    17564.079    13426.169     5188.865        9.271        1.809      384.327       63.284        0.027      335.560        6.272      855.485
05/06/2014  09:04:00     -213.402      329.990      -52.659      102.432      165.930       65.676    10492.402    27532.921     4313.329        9.976        2.117      392.980       58.253        0.022      335.572        6.292      855.478
05/06/2014  09:05:00     -143.146      209.001      -19.465      115.840      105.912       70.405    13418.952    11217.331     4956.910        4.707        1.480      253.322       58.223        0.053      335.684        6.478      855.488
05/06/2014  09:06:00     -109.156      261.321      -28.278      117.999      105.971       70.807    13923.848    11229.763     5013.648        5.558        1.508      283.203       77.524        0.075      335.619        6.370      855.503
05/06/2014  09:07:00     -109.265      146.500      -19.245       76.293      139.399       48.565     5820.584    19431.989     2358.592        3.069        1.381      182.759       38.809        0.045      335.678        6.469      855.482
05/06/2014  09:08:00     -161.624      227.323      -33.170      113.902      140.101       78.888    12973.661    19628.326     6223.343        5.885        1.941      278.923       83.370        0.089      335.660        6.437      855.483
05/06/2014  09:09:00     -143.735      352.658      -34.625      124.223      156.836       78.670    15431.471    24597.668     6188.895        9.621        2.311      380.825       69.904        0.034      335.672        6.459      855.482
05/06/2014  09:10:00     -129.460      225.362      -32.539       71.165      104.090       52.803     5064.445    10834.818     2788.191        4.364        0.934      259.899       53.746        0.043      335.777        6.633      855.492
05/06/2014  09:11:00      -54.970      283.351      -38.493       90.275      183.463       59.188     8149.531    33658.716     3503.164        6.504        2.266      288.634       67.553        0.055      335.787        6.651      855.509
05/06/2014  09:12:00      -90.953      476.863      -56.392       97.876      137.972       57.137     9579.723    19036.136     3264.694       13.536        1.594      485.459       56.152        0.013      335.707        6.516      855.514
05/06/2014  09:13:00      -50.345      450.632      -53.512      127.907      186.775       65.672    16360.263    34884.756     4312.824       13.200        2.778      453.436       75.869        0.028      335.720        6.539      855.526
05/06/2014  09:14:00     -198.628      535.581      -57.127      138.563      147.893       76.754    19199.676    21872.415     5891.116       18.825        2.348      571.227       76.214        0.018      335.625        6.380      855.578
05/06/2014  09:15:00     -208.646      428.743      -60.706      139.987      134.080       78.091    19596.347    17977.387     6098.216       13.735        2.184      476.816       62.980        0.017      335.577        6.300      855.594
05/06/2014  09:16:00      -78.767      272.187      -20.325       94.832      141.357       67.480     8993.135    19981.885     4553.601        5.711        1.676      283.355       72.918        0.066      335.654        6.430      855.592
05/06/2014  09:17:00     -129.485      268.974      -26.376      130.670      183.184       75.059    17074.561    33556.385     5633.842        7.303        2.813      298.518       84.228        0.080      335.628        6.386      855.598
05/06/2014  09:18:00     -174.599      375.025      -34.243      128.603      174.690       86.345    16538.691    30516.682     7455.411       11.340        2.726      413.677       94.732        0.052      335.523        6.211      855.598
05/06/2014  09:19:00     -155.482      416.639      -58.614      102.875      164.430       66.905    10583.283    27037.129     4476.270       12.164        2.105      444.706       75.685        0.029      335.460        6.106      855.598
05/06/2014  09:20:00     -143.086      469.616      -51.217      114.934      150.867       66.380    13209.713    22760.852     4406.249       14.200        2.019      490.930       75.534        0.024      335.457        6.100      855.579
05/06/2014  09:21:00      -79.721      341.240      -22.820       77.464      138.928       51.322     6000.730    19301.054     2633.996        7.562        1.397      350.428       55.364        0.025      335.584        6.312      855.555
05/06/2014  09:22:00     -116.831      430.083      -43.094       89.017      163.787       66.560     7923.975    26826.089     4430.288       11.982        1.959      445.669       63.275        0.020      335.582        6.310      855.545
05/06/2014  09:23:00     -156.364      283.304      -44.591      143.216      118.561       67.164    20510.814    14056.643     4511.004        7.288        1.954      323.590       71.203        0.048      335.679        6.469      855.557
05/06/2014  09:24:00     -134.643      173.051      -23.398       74.286       98.911       49.497     5518.409     9783.449     2449.919        3.318        0.888      219.261       50.370        0.053      335.810        6.688      855.556
05/06/2014  09:25:00      -97.844      240.352      -17.258      110.042      141.307       59.754    12109.257    19967.772     3570.537        5.164        1.782      259.505       64.980        0.063      335.822        6.710      855.569
05/06/2014  09:26:00     -187.915      324.439      -50.564       92.046      135.499       64.103     8472.510    18360.104     4109.226        8.703        1.547      374.931       60.741        0.026      335.742        6.576      855.585
05/06/2014  09:27:00     -158.501      333.672      -38.963       88.449      115.751       65.272     7823.151    13398.329     4260.390        8.172        1.274      369.404       65.788        0.032      335.801        6.672      855.589
05/06/2014  09:28:00      -81.268      345.894      -38.332       78.008      120.517       58.065     6085.238    14524.307     3371.494        7.584        1.199      355.312       53.845        0.023      335.889        6.819      855.586
05/06/2014  09:29:00     -111.974      267.139      -26.492       78.799      123.105       67.762     6209.270    15154.909     4591.647        5.527        1.298      289.658       63.915        0.049      335.930        6.888      855.589
05/06/2014  09:30:00      -66.933      253.111      -19.573       74.628      142.842       55.354     5569.322    20403.765     3064.052        4.898        1.452      261.812       51.784        0.039      336.002        7.009      855.572
05/06/2014  09:31:00     -198.553      259.642      -44.247      122.620      116.682       61.958    15035.656    13614.653     3838.786        7.064        1.624      326.859       68.577        0.044      335.993        6.994      855.594
05/06/2014  09:32:00     -200.538      267.226      -41.526      109.307      139.248       63.934    11947.944    19389.939     4087.497        7.438        1.771      334.104       59.579        0.032      335.915        6.863      855.589
05/06/2014  09:33:00     -119.727      233.676      -33.273       81.756      117.567       53.204     6684.026    13822.020     2830.665        4.669        1.167      262.563       52.374        0.040      336.005        7.013      855.593
05/06/2014  09:34:00     -151.601      269.151      -40.463      106.502      106.976       63.273    11342.735    11443.856     4003.469        6.192        1.340      308.909       63.156        0.042      335.864        6.779      855.597
05/06/2014  09:35:00     -210.612      218.105      -32.084      149.844      145.592       68.972    22453.234    21197.064     4757.113        7.067        2.420      303.194       84.377        0.077      335.892        6.825      855.582
05/06/2014  09:36:00     -187.048      166.643      -18.841      120.564      146.731       71.985    14535.649    21530.008     5181.892        5.217        2.062      250.513       75.586        0.091      335.908        6.850      855.580
05/06/2014  09:37:00     -155.593      229.641      -31.535      102.649      128.264       65.391    10536.858    16451.625     4275.937        5.460        1.563      277.388       71.365        0.066      335.903        6.845      855.579
05/06/2014  09:38:00     -156.244      198.844      -30.055       88.123      111.274       56.885     7765.713    12381.976     3235.896        4.411        1.169      252.886       65.644        0.067      335.889        6.820      855.564
05/06/2014  09:39:00      -60.012      182.341      -11.286       46.559      104.807       41.505     2167.757    10984.545     1722.689        2.592        0.744      191.963       46.695        0.059      335.994        6.996      855.549
05/06/2014  09:40:00     -211.456      210.730      -42.907      142.033      126.324       71.483    20173.428    15957.649     5109.868        6.609        2.062      298.531       86.719        0.084      336.021        7.040      855.546
05/06/2014  09:41:00     -178.345      270.244      -47.295       96.294      112.458       62.389     9272.588    12646.754     3892.399        6.644        1.291      323.788       54.751        0.029      336.005        7.013      855.550
05/06/2014  09:42:00     -205.056      152.358      -30.700       95.717       95.032       57.996     9161.808     9031.074     3363.510        4.388        1.078      255.462       56.333        0.049      336.035        7.064      855.539
05/06/2014  09:43:00     -160.898      231.988      -36.882      126.671      116.600       70.789    16045.577    13595.475     5011.104        5.785        1.733      282.323       85.000        0.091      335.978        6.969      855.530
05/06/2014  09:44:00     -156.983      158.969      -22.567      131.537      134.390       65.643    17301.892    18060.649     4308.970        4.504        1.984      223.416       63.589        0.081      336.119        7.204      855.523
05/06/2014  09:45:00     -195.365      231.222      -40.771      120.170      142.216       74.525    14440.794    20225.481     5553.923        6.675        2.011      302.706       84.984        0.079      336.040        7.072      855.518
05/06/2014  09:46:00     -154.756      239.255      -28.374       80.767      129.056       68.059     6523.232    16655.552     4632.025        5.490        1.391      284.942       68.843        0.058      336.103        7.177      855.516
05/06/2014  09:47:00     -117.459      284.599      -34.787       81.259      127.107       60.499     6603.037    16156.167     3660.085        6.121        1.321      307.885       54.496        0.031      336.039        7.069      855.519
05/06/2014  09:48:00     -184.057      175.550      -32.870      110.621      110.341       58.923    12237.053    12175.027     3471.931        4.682        1.394      254.352       52.878        0.043      336.152        7.258      855.512
05/06/2014  09:49:00      -87.459      219.354      -19.477      107.997      121.223       71.846    11663.416    14695.114     5161.884        4.383        1.576      236.147       59.663        0.064      336.184        7.312      855.506
05/06/2014  09:50:00     -143.817      172.483      -25.112       90.259      160.448       60.021     8146.711    25743.512     3602.529        4.427        1.875      224.574       55.132        0.060      336.200        7.339      855.499
05/06/2014  09:51:00     -119.913      161.678       -7.928       98.115      110.804       61.158     9626.485    12277.597     3740.326        3.311        1.282      201.293       60.290        0.090      336.203        7.345      855.518
05/06/2014  09:52:00     -126.515      239.284      -26.820      111.891      115.097       59.395    12519.620    13247.282     3527.814        5.163        1.465      270.671       65.322        0.058      336.222        7.376      855.522
05/06/2014  09:53:00     -124.090       97.867      -21.340      120.521      115.556       66.414    14525.266    13353.146     4410.857        2.885        1.614      158.039       64.740        0.168      336.167        7.284      855.509
05/06/2014  09:54:00     -219.733      267.705      -56.282       99.605      128.268       62.742     9921.138    16452.735     3936.500        7.671        1.516      346.336       73.720        0.045      336.068        7.120      855.512
05/06/2014  09:55:00     -143.481      378.495      -47.356       87.021      133.593       57.860     7572.653    17847.015     3347.781        9.742        1.438      404.778       61.141        0.023      336.063        7.111      855.532
05/06/2014  09:56:00     -105.158      204.277      -18.845       58.009      114.038       46.008     3365.057    13004.697     2116.754        3.581        0.924      229.755       43.443        0.036      336.225        7.383      855.515
05/06/2014  09:57:00      -85.312      161.507      -14.659       83.603      125.835       56.804     6989.475    15834.427     3226.676        2.981        1.303      182.654       57.839        0.100      336.365        7.615      855.522
05/06/2014  09:58:00      -59.564      415.684      -40.543       81.557      144.913       66.589     6651.549    20999.849     4434.102       10.503        1.604      419.930       70.731        0.028      336.205        7.346      855.554
05/06/2014  09:59:00     -114.196      527.170      -71.897      123.921      174.905       71.651    15356.362    30591.682     5133.851       17.359        2.554      539.397       71.730        0.018      336.017        7.034      855.571
05/06/2014  10:00:00      -96.255      364.700      -48.571       78.686      161.601       61.110     6191.429    26114.825     3734.476        9.033        1.802      377.189       62.268        0.027      336.075        7.130      855.543
05/06/2014  10:01:00     -164.376      473.780      -44.841      110.024      171.350       68.946    12105.388    29360.793     4753.513       14.985        2.311      501.485       83.211        0.028      335.991        6.989      855.572
05/06/2014  10:02:00     -190.677      468.953      -48.267      106.960      122.514       75.612    11440.516    15009.784     5717.230       14.538        1.608      506.236       69.697        0.019      335.956        6.931      855.584
05/06/2014  10:03:00      -84.603      397.257      -53.460       91.373      129.233       58.368     8348.977    16701.156     3406.823        9.814        1.423      406.166       58.537        0.021      336.010        7.022      855.565
05/06/2014  10:04:00     -175.971      307.849      -49.736      136.643      152.899       71.206    18671.306    23378.045     5070.248        8.766        2.356      354.593       83.083        0.055      336.132        7.226      855.579
05/06/2014  10:05:00     -116.768      297.153      -38.855      122.131      180.864       75.905    14916.097    32711.786     5761.515        7.841        2.669      319.272       67.591        0.045      336.143        7.244      855.574
05/06/2014  10:06:00     -136.238      281.313      -35.173      184.088      135.492       77.502    33888.517    18358.212     6006.605        7.858        2.913      312.567       70.458        0.051      336.107        7.183      855.601
05/06/2014  10:07:00     -159.020      398.991      -47.979       99.816      162.753       78.042     9963.311    26488.520     6090.504       11.465        2.127      429.513       62.386        0.021      336.004        7.011      855.620
05/06/2014  10:08:00      -80.543      310.396      -39.823       95.727      166.068       54.361     9163.573    27578.587     2955.125        7.205        1.985      320.676       59.315        0.034      336.022        7.042      855.609
05/06/2014  10:09:00     -108.063      398.292      -36.575       96.274      126.835       57.786     9268.700    16087.104     3339.232       10.017        1.435      412.691       54.205        0.017      335.940        6.904      855.608
05/06/2014  10:10:00      -49.072      363.192      -51.734       88.925      110.696       50.156     7907.699    12253.695     2515.607        7.983        1.134      366.492       45.503        0.015      336.068        7.118      855.590
05/06/2014  10:11:00     -165.399      249.006      -28.754      105.920      136.663       61.467    11218.965    18676.816     3778.173        6.192        1.684      298.933       61.310        0.042      336.035        7.063      855.630
05/06/2014  10:12:00     -135.813      339.472      -47.832      118.767      110.001       64.671    14105.649    12100.115     4182.304        8.317        1.519      365.631       54.970        0.023      335.947        6.917      855.601
05/06/2014  10:13:00      -50.243      372.080      -41.394       85.597      101.640       47.077     7326.886    10330.754     2216.209        8.127        0.994      375.457       40.119        0.011      335.928        6.886      855.591
05/06/2014  10:14:00      -94.256       96.486      -32.203       94.667      147.414       56.548     8961.775    21730.877     3197.683        2.655        1.695      134.885       44.825        0.110      336.086        7.150      855.578
05/06/2014  10:15:00     -127.505      215.865      -34.137       98.302      101.564       73.611     9663.364    10315.171     5418.508        4.470        1.270      250.710       63.119        0.063      336.125        7.214      855.598
05/06/2014  10:16:00     -167.999      341.067      -52.747      132.787      115.633       72.929    17632.441    13371.092     5318.640        9.182        1.816      380.197       71.857        0.036      335.998        7.000      855.584
05/06/2014  10:17:00     -152.641      366.935      -41.133      104.865      181.813       67.272    10996.614    33055.978     4525.565       10.410        2.429      397.417       82.190        0.043      335.973        6.959      855.570
05/06/2014  10:18:00      -78.985      161.753      -12.578       60.331       98.471       51.922     3639.887     9696.500     2695.860        2.429        0.802      180.007       54.033        0.090      336.225        7.383      855.545
05/06/2014  10:19:00     -124.456      112.141      -23.346       83.530       76.326       39.074     6977.231     5825.686     1526.801        2.147        0.716      167.526       28.491        0.029      336.315        7.532      855.531
05/06/2014  10:20:00     -124.998      102.687      -23.793       95.709      114.565       67.129     9160.141    13125.057     4506.243        2.676        1.340      161.769       59.088        0.133      336.244        7.413      855.531
05/06/2014  10:21:00     -145.034      285.220      -27.446       88.325      143.603       65.039     7801.348    20621.719     4230.060        6.789        1.633      319.977       54.854        0.029      336.271        7.457      855.529
05/06/2014  10:22:00     -249.202      213.075      -46.161      136.463      141.664       68.206    18622.083    20068.803     4652.010        7.648        2.167      327.876       67.980        0.043      336.206        7.350      855.545
05/06/2014  10:23:00     -251.146      229.273      -44.125      148.744      135.370       68.167    22124.697    18325.024     4646.695        8.133        2.255      340.059       83.818        0.061      336.265        7.446      855.564
05/06/2014  10:24:00     -234.346      330.007      -66.708      114.450      131.313       70.061    13098.857    17243.211     4908.475       10.175        1.763      404.750       67.214        0.028      336.300        7.506      855.590
05/06/2014  10:25:00     -186.582      216.214      -34.516      107.213      119.653       78.575    11494.543    14316.765     6174.000        5.736        1.599      285.590       75.712        0.070      336.300        7.505      855.590
05/06/2014  10:26:00     -198.787      303.639      -45.844      134.570      141.934       87.699    18109.185    20145.150     7691.177        8.987        2.297      362.923       88.466        0.059      336.289        7.487      855.610
05/06/2014  10:27:00     -181.426      210.351      -37.640      146.128      102.014       67.020    21353.265    10406.910     4491.746        5.741        1.813      277.783       80.441        0.084      336.340        7.573      855.591
05/06/2014  10:28:00     -215.786      282.932      -40.228      133.574      178.033       71.090    17841.906    31695.791     5053.810        9.140        2.730      355.829       69.810        0.038      336.260        7.439      855.568
05/06/2014  10:29:00     -146.131      252.368      -31.958       89.680       95.336       56.722     8042.571     9088.874     3217.387        5.320        1.017      291.622       50.678        0.030      336.395        7.663      855.570
05/06/2014  10:30:00      -90.526      224.903      -24.345       78.875       84.759       55.889     6221.262     7184.069     3123.530        3.795        0.826      242.438       39.223        0.026      336.507        7.851      855.572
05/06/2014  10:31:00     -126.554      232.775      -27.092       94.505      123.109       63.772     8931.180    15155.844     4066.922        4.954        1.408      264.953       54.689        0.043      336.447        7.751      855.574
05/06/2014  10:32:00     -141.516      258.064       -7.271      176.285      195.317      102.810    31076.365    38148.811    10569.970        8.322        3.990      294.319      118.056        0.161      336.455        7.766      855.572
05/06/2014  10:33:00     -140.926      272.196      -48.296      145.525      106.230       66.747    21177.412    11284.774     4455.114        6.659        1.846      306.514       60.088        0.038      336.436        7.733      855.594
05/06/2014  10:34:00     -144.096      255.032      -24.696      123.111      163.421       70.543    15156.204    26706.452     4976.281        6.662        2.342      292.925       66.350        0.051      336.543        7.913      855.607
05/06/2014  10:35:00     -238.341      294.011      -46.673      143.040      124.300       89.161    20460.553    15450.542     7949.695        9.464        2.193      378.482       79.381        0.044      336.436        7.732      855.619
05/06/2014  10:36:00     -140.357      299.500      -19.950       97.427      149.660       65.063     9491.958    22398.013     4233.144        7.295        1.806      330.757       48.725        0.022      336.470        7.788      855.618
05/06/2014  10:37:00     -194.542      376.428      -54.344      126.882      121.340       64.670    16099.072    14723.417     4182.220       10.874        1.750      423.727       65.791        0.024      336.401        7.674      855.627
05/06/2014  10:38:00     -164.105      235.164      -32.945      107.324      125.851       69.981    11518.519    15838.363     4897.369        5.778        1.613      286.762       66.474        0.054      336.466        7.782      855.644
05/06/2014  10:39:00     -218.945      238.171      -38.793      158.377      136.444       99.025    25083.256    18616.836     9805.855        7.983        2.675      323.516       77.333        0.057      336.481        7.807      855.645
05/06/2014  10:40:00     -189.060      311.496      -46.304       97.724      161.651       71.452     9550.010    26131.133     5105.453        8.784        2.039      364.381       77.315        0.045      336.423        7.711      855.645
05/06/2014  10:41:00     -102.077       71.586      -12.402      104.947      151.285       65.218    11013.898    22887.298     4253.408        2.692        1.908      124.677       53.106        0.181      336.604        8.015      855.655
05/06/2014  10:42:00     -182.290      323.202      -43.040      121.948      144.487       86.591    14871.291    20876.508     7497.980        9.139        2.162      371.065       87.286        0.055      336.518        7.871      855.683
05/06/2014  10:43:00     -228.227      178.263      -35.674      161.029      112.305       77.052    25930.212    12612.475     5936.978        6.480        2.224      289.595       86.573        0.089      336.566        7.953      855.689
05/06/2014  10:44:00     -134.370      351.751      -53.534      122.072      136.985       70.697    14901.684    18764.863     4998.009        9.165        1.933      376.542       77.401        0.042      336.477        7.800      855.697
05/06/2014  10:45:00     -123.393      243.573      -36.506       98.630       87.469       57.708     9727.780     7650.827     3330.169        4.829        1.035      273.045       60.751        0.050      336.587        7.986      855.707
05/06/2014  10:46:00      -34.213      271.247      -20.574       77.216      101.075       54.223     5962.313    10216.230     2940.166        4.714        0.956      273.396       54.558        0.040      336.644        8.080      855.706
05/06/2014  10:47:00     -225.316      359.031      -52.803      119.653      117.321       62.199    14316.953    13764.225     3868.762       10.720        1.597      423.876       67.893        0.026      336.578        7.971      855.731
05/06/2014  10:48:00     -155.926      268.999      -39.635      124.517      129.320       67.887    15504.593    16723.591     4608.653        6.753        1.842      310.923       87.430        0.079      336.703        8.181      855.747
05/06/2014  10:49:00      -65.322      241.130      -11.918       78.287      160.993       55.807     6128.905    25918.749     3114.403        4.885        1.758      249.822       47.117        0.036      336.849        8.423      855.746
05/06/2014  10:50:00     -207.215      172.756      -29.259       98.071       96.219       66.626     9617.931     9258.131     4439.083        4.847        1.166      269.783       54.503        0.041      336.689        8.157      855.750
05/06/2014  10:51:00     -117.434       98.060        8.837      140.240       86.775       61.060    19667.260     7529.913     3728.373        2.720        1.546      152.992       73.903        0.233      336.826        8.387      855.766
05/06/2014  10:52:00      -77.019      266.533      -21.580      129.790      118.270       68.650    16845.418    13987.878     4712.797        5.648        1.777      277.438       52.039        0.035      336.899        8.506      855.783
05/06/2014  10:53:00      -67.298      516.218      -60.649      118.237      154.469       82.444    13979.984    23860.542     6796.942       15.965        2.232      520.586       66.571        0.016      336.568        7.955      855.781
05/06/2014  10:54:00     -157.556      209.410      -21.338      125.012      127.149       74.540    15627.927    16166.995     5556.268        5.323        1.868      262.062       62.987        0.058      336.753        8.261      855.803
05/06/2014  10:55:00     -116.859      452.638      -46.354      105.194      148.786       72.921    11065.881    22137.209     5317.435       12.960        1.926      467.480       74.919        0.026      336.564        7.947      855.826
05/06/2014  10:56:00     -171.305      302.416      -36.181      140.938      157.382       73.353    19863.518    24769.118     5380.602        8.605        2.501      347.564       71.355        0.042      336.676        8.134      855.843
05/06/2014  10:57:00     -261.095      437.570      -64.335      167.102      199.263       84.320    27923.229    39705.743     7109.939       16.924        3.737      509.547       89.425        0.031      336.535        7.898      855.868
05/06/2014  10:58:00     -264.634      317.075      -68.645      120.289      143.324       71.706    14469.492    20541.822     5141.755       10.771        2.008      412.999       78.982        0.037      336.524        7.880      855.892
05/06/2014  10:59:00     -159.587      275.435      -23.836      147.849      161.832       82.830    21859.183    26189.518     6860.804        7.839        2.745      318.328       91.634        0.083      336.584        7.980      855.875
05/06/2014  11:00:00     -173.566      257.400      -32.766      110.066      121.439       64.814    12114.496    14747.369     4200.892        6.425        1.553      310.451       61.107        0.039      336.745        8.249      855.884
05/06/2014  11:01:00     -116.237      199.116      -20.014      108.029      150.832       59.905    11670.322    22750.163     3588.586        4.578        1.900      230.560       53.791        0.054      336.739        8.240      855.878
05/06/2014  11:02:00     -264.506      252.922      -63.128      121.218      158.726       86.554    14693.864    25194.060     7491.552        9.264        2.369      365.969       95.932        0.069      336.697        8.169      855.886
05/06/2014  11:03:00     -228.693      278.213      -54.965      103.554      178.080       72.102    10723.337    31712.519     5198.722        9.017        2.382      360.143       53.080        0.022      336.702        8.179      855.883
05/06/2014  11:04:00     -304.840      234.706      -40.495      137.962      149.499       81.457    19033.589    22349.939     6635.225        9.883        2.401      384.726       69.692        0.033      336.614        8.032      855.885
05/06/2014  11:05:00     -170.186      174.248      -17.420      115.179      109.038       58.855    13266.152    11889.295     3463.896        4.412        1.431      243.568       59.169        0.059      336.730        8.226      855.875
05/06/2014  11:06:00     -300.192      150.978      -53.271      158.399      113.685       72.747    25090.267    12924.191     5292.096        7.952        2.165      336.020       78.363        0.054      336.784        8.314      855.876
05/06/2014  11:07:00     -187.857      355.834      -43.508      118.122      168.589       73.421    13952.841    28422.152     5390.702       10.577        2.388      402.378       71.048        0.031      336.774        8.299      855.878
05/06/2014  11:08:00     -189.892      266.914      -29.139      124.644      152.211       68.896    15536.098    23168.067     4746.685        7.579        2.173      327.570       61.360        0.035      336.883        8.479      855.903
05/06/2014  11:09:00     -296.164      332.034      -70.960      129.645      125.593       77.105    16807.751    15773.710     5945.191       12.075        1.926      444.926       63.532        0.020      336.887        8.486      855.902
05/06/2014  11:10:00     -226.523      287.056      -54.010      153.730      179.215       80.443    23632.847    32118.067     6471.072        9.941        3.111      365.670       87.748        0.058      336.961        8.610      855.901
05/06/2014  11:11:00     -236.638      353.611      -52.845      110.761      134.190       76.817    12267.995    18006.844     5900.804       11.000        1.809      425.486       67.146        0.025      336.908        8.522      855.931
05/06/2014  11:12:00     -186.220      383.302      -45.151      117.871      194.689       68.885    13893.460    37903.705     4745.140       12.008        2.827      426.144       78.249        0.034      336.786        8.319      855.933
05/06/2014  11:13:00     -166.078      291.003      -52.430      131.018      113.064       59.866    17165.791    12783.560     3583.907        7.427        1.677      335.059       67.466        0.041      336.908        8.521      855.912
05/06/2014  11:14:00       -9.454      367.526      -49.596       70.586      108.282       49.147     4982.355    11725.072     2415.450        7.837        0.956      367.647       54.437        0.022      336.866        8.453      855.891
05/06/2014  11:15:00     -143.933      235.240      -39.300       94.747      132.558       70.870     8976.988    17571.744     5022.568        5.458        1.579      275.780       71.426        0.067      337.049        8.759      855.900
05/06/2014  11:16:00     -180.683      280.585      -44.291      129.669      137.681       62.356    16814.085    18956.105     3888.285        7.649        1.983      333.728       59.857        0.032      337.088        8.823      855.914
05/06/2014  11:17:00     -196.350      293.601      -51.214      120.219      116.388       67.443    14452.668    13546.085     4548.598        7.996        1.627      353.206       69.091        0.038      337.073        8.799      855.903
05/06/2014  11:18:00     -316.574      248.164      -65.658      227.857      182.141      112.164    51918.732    33175.499    12580.653       13.188        4.884      402.249      129.339        0.103      336.980        8.642      855.869
05/06/2014  11:19:00     -287.390       70.539      -27.359      143.057      124.560       68.173    20465.295    15515.246     4647.491        6.446        2.031      295.920       70.817        0.057      336.915        8.532      855.881
05/06/2014  11:20:00     -153.815      111.840      -14.531      127.767       94.033       55.234    16324.457     8842.259     3050.844        3.229        1.411      190.176       68.797        0.131      336.993        8.666      855.913
05/06/2014  11:21:00      -86.091      268.366      -26.651       58.583      137.103       55.622     3431.960    18797.330     3093.826        5.273        1.266      281.837       56.672        0.040      337.067        8.789      855.946
05/06/2014  11:22:00      -47.443      251.582      -25.914       67.548      160.696       59.897     4562.770    25823.211     3587.624        5.009        1.699      256.016       77.757        0.092      337.074        8.801      855.938
05/06/2014  11:23:00      -28.844      340.006      -22.685      112.812      138.628       80.189    12726.529    19217.650     6430.264        7.765        1.919      341.227       80.392        0.056      336.925        8.548      855.938
05/06/2014  11:24:00     -133.087      211.108      -20.658      116.718      136.385       68.093    13622.985    18600.881     4636.667        4.978        1.843      249.557       80.504        0.104      337.050        8.760      855.951
05/06/2014  11:25:00      -94.299      137.779       -2.978       77.316       95.350       53.875     5977.708     9091.593     2902.492        2.292        0.899      166.959       45.926        0.076      337.257        9.107      855.953
05/06/2014  11:26:00      -92.518      287.945      -21.441      107.960      185.894       75.237    11655.311    34556.696     5660.624        7.189        2.594      302.443       73.341        0.059      337.125        8.886      855.988
05/06/2014  11:27:00     -105.457      293.855      -25.204       82.743      159.146       59.617     6846.473    25327.447     3554.246        6.691        1.786      312.205       75.413        0.058      337.151        8.930      855.967
05/06/2014  11:28:00     -155.026      304.196      -38.727       75.299      172.064       55.460     5669.964    29605.872     3075.772        7.820        1.918      341.421       47.685        0.020      337.162        8.946      855.959
05/06/2014  11:29:00     -142.745      210.422      -42.654      136.691      153.875       73.889    18684.485    23677.481     5459.554        5.714        2.391      254.271       91.192        0.129      337.230        9.063      855.955
05/06/2014  11:30:00     -159.254      226.808      -30.439       90.293      103.146       56.287     8152.750    10639.065     3168.249        4.984        1.098      277.135       59.129        0.046      337.089        8.823      855.974
05/06/2014  11:31:00     -183.944      195.649      -39.188      100.196       94.634       60.511    10039.312     8955.589     3661.566        4.815        1.133      268.540       59.126        0.048      337.118        8.873      855.963
05/06/2014  11:32:00     -143.768      322.183      -38.488      121.051      118.757       61.098    14653.254    14103.294     3732.920        7.921        1.624      352.804       63.016        0.032      337.088        8.822      855.957
05/06/2014  11:33:00      -68.033      219.261      -14.710       58.028      110.431       52.358     3367.226    12195.054     2741.347        3.561        0.915      229.573       56.464        0.060      337.285        9.153      855.926
05/06/2014  11:34:00     -243.891       88.330      -33.944      146.964       97.100       38.932    21598.356     9428.403     1515.673        5.048        1.627      259.394       49.071        0.036      337.180        8.976      855.905
05/06/2014  11:35:00      -62.207       42.327       -0.096      136.819      154.798       59.640    18719.539    23962.535     3556.897        2.594        2.312       75.241       40.882        0.295      337.352        9.266      855.885
05/06/2014  11:36:00       -5.411      156.758       -5.307       57.547       77.503       59.673     3311.600     6006.697     3560.863        1.875        0.644      156.851       43.238        0.076      337.607        9.694      855.904
05/06/2014  11:37:00       23.564      172.415       -2.080       75.686       89.649       60.332     5728.421     8036.884     3639.900        2.384        0.870      174.018       46.917        0.073      337.560        9.613      855.903
05/06/2014  11:38:00      -28.788      389.475      -55.999       97.286      142.523       56.637     9464.513    20312.923     3207.802        9.431        1.649      390.538       65.435        0.028      337.255        9.103      855.911
05/06/2014  11:39:00      -78.353      201.798      -22.841       57.198       76.136       47.330     3271.586     5796.758     2240.105        2.934        0.565      216.476       37.111        0.029      337.496        9.507      855.906
05/06/2014  11:40:00      -14.986      126.307       -3.503       58.594       64.832       49.117     3433.296     4203.238     2412.485        1.312        0.502      127.193       43.655        0.118      337.639        9.749      855.887
05/06/2014  11:41:00     -143.058      109.789       -5.532      118.164       95.969       56.602    13962.714     9210.140     3203.838        2.946        1.319      180.331       44.109        0.060      337.629        9.731      855.890
05/06/2014  11:42:00      -32.338      222.748       -1.573       90.745      135.096       64.522     8234.618    18250.815     4163.097        4.065        1.532      225.083       72.394        0.103      337.698        9.845      855.912
05/06/2014  11:43:00      -99.235      285.025      -48.919      127.939      109.680       50.833    16368.376    12029.717     2583.998        6.222        1.549      301.806       50.875        0.028      337.343        9.249      855.926
05/06/2014  11:44:00      -97.928      231.092      -17.256       85.651      127.897       62.903     7336.163    16357.535     3956.759        4.547        1.383      250.985       57.788        0.053      337.436        9.406      855.922
05/06/2014  11:45:00     -151.483      221.930      -14.464      136.380      174.849       80.716    18599.416    30572.087     6515.034        6.404        2.784      268.700       92.382        0.118      337.461        9.447      855.937
05/06/2014  11:46:00     -184.302      288.661      -53.135      138.415      152.889       81.218    19158.825    23375.059     6596.408        8.461        2.457      342.480       86.883        0.064      337.376        9.303      855.918
05/06/2014  11:47:00       -7.079      124.421       16.000      103.514      119.154       66.006    10715.140    14197.740     4356.740        2.252        1.463      124.622       55.785        0.200      337.675        9.808      855.903
05/06/2014  11:48:00      -76.757      162.120      -19.249       75.899      123.824       53.867     5760.721    15332.330     2901.655        2.827        1.200      179.372       52.154        0.085      337.617        9.709      855.884
05/06/2014  11:49:00      -46.612      107.608       -5.674      100.297       61.132       55.102    10059.572     3737.071     3036.246        1.531        0.842      117.269       37.888        0.104      337.868       10.133      855.878
05/06/2014  11:50:00      -40.952       88.893       15.224       60.671       86.093       45.001     3680.940     7411.961     2025.115        1.146        0.656       97.872       38.687        0.156      337.982       10.323      855.856
05/06/2014  11:51:00      -98.998       93.163       -4.804       87.717      106.946       57.109     7694.210    11437.392     3261.441        2.044        1.120      135.941       52.994        0.152      337.803       10.022      855.849
05/06/2014  11:52:00     -128.077      350.209      -33.317       73.056      151.404       63.778     5337.147    22923.112     4067.625        8.624        1.616      372.894       66.988        0.032      337.489        9.496      855.857
05/06/2014  11:53:00     -110.196      366.479      -50.307       84.044      104.230       55.897     7063.451    10863.790     3124.425        8.501        1.053      382.688       48.812        0.016      337.263        9.116      855.872
05/06/2014  11:54:00      -22.300      219.456       -6.813       83.138      129.596       62.566     6911.860    16795.089     3914.533        3.816        1.381      220.586       69.400        0.099      337.358        9.276      855.833
05/06/2014  11:55:00      -13.915      338.302      -35.161       75.676      149.057       64.647     5726.871    22217.887     4179.279        7.399        1.606      338.588       72.713        0.046      337.296        9.172      855.794
05/06/2014  11:56:00      -15.485      308.959      -37.415       65.929      120.784       53.271     4346.666    14588.873     2837.783        5.943        1.089      309.347       54.036        0.031      337.369        9.294      855.774
05/06/2014  11:57:00     -198.079       21.271      -30.248      153.044      121.760       69.255    23422.544    14825.550     4796.297        4.182        2.152      199.218       74.879        0.141      337.680        9.815      855.791
05/06/2014  11:58:00     -267.963      153.553      -65.166      156.305      155.413       70.213    24431.244    24153.082     4929.916        7.656        2.676      308.841       68.859        0.050      337.338        9.242      855.779
05/06/2014  11:59:00     -217.040       63.206      -42.499       73.483      110.596       54.964     5399.765    12231.582     3020.995        3.678        1.033      226.056       39.469        0.030      337.437        9.407      855.753
05/06/2014  12:00:00     -172.772      -20.349       12.269      135.863      125.984       71.568    18458.788    15872.093     5121.932        3.493        1.973      173.966       71.654        0.170      337.654        9.772      855.736
05/06/2014  12:01:00     -315.391       97.428      -44.001      167.387      111.154       96.904    28018.360    12355.105     9390.372        8.032        2.488      330.097       94.051        0.081      337.443        9.419      855.770
05/06/2014  12:02:00     -288.751       71.417      -48.426      159.628      128.365       62.975    25481.203    16477.585     3965.860        6.836        2.296      297.452       72.731        0.060      337.388        9.326      855.759
05/06/2014  12:03:00     -213.682       31.417      -40.683      122.480      125.569       71.077    15001.291    15767.460     5051.961        4.205        1.791      215.980       53.323        0.061      337.554        9.602      855.735
05/06/2014  12:04:00     -154.967      169.173      -26.532      112.351      164.463       73.412    12622.670    27048.118     5389.325        4.919        2.253      229.421       70.150        0.093      337.617        9.709      855.743
05/06/2014  12:05:00     -176.235      210.940      -16.112      124.909      159.074       64.765    15602.166    25304.605     4194.546        6.045        2.255      274.872       73.877        0.072      337.683        9.820      855.754
05/06/2014  12:06:00     -133.976      198.039      -30.629       82.061      127.968       53.169     6733.952    16375.849     2826.976        4.202        1.297      239.100       51.575        0.047      337.551        9.599      855.745
05/06/2014  12:07:00     -171.494      301.871      -34.257       96.587      132.089       66.643     9329.128    17447.507     4441.233        7.646        1.561      347.183       62.421        0.032      337.476        9.473      855.722
05/06/2014  12:08:00      -55.582      357.399      -33.298       65.063      104.682       53.440     4233.224    10958.356     2855.851        7.499        0.902      361.695       54.655        0.023      337.398        9.341      855.705
05/06/2014  12:09:00     -113.066      147.959      -17.964       67.503      108.450       53.619     4556.675    11761.442     2875.038        2.709        0.960      186.215       37.165        0.040      337.682        9.820      855.689
05/06/2014  12:10:00      -50.986      160.777       -9.093       68.316       97.260       47.146     4667.144     9459.579     2222.758        2.244        0.817      168.668       57.063        0.114      337.688        9.829      855.689
05/06/2014  12:11:00      -28.956       87.694        3.352       82.707       62.418       47.176     6840.489     3896.005     2225.535        1.075        0.648       92.351       49.689        0.289      337.754        9.943      855.657
05/06/2014  12:12:00      -71.235      214.750      -27.047       71.923      130.134       41.329     5172.929    16934.731     1708.090        3.786        1.191      226.257       48.594        0.046      337.701        9.849      855.650
05/06/2014  12:13:00      -35.315      113.915       -9.867       41.165       53.204       33.269     1694.595     2830.644     1106.807        0.998        0.282      119.263       33.909        0.081      337.734        9.909      855.636
05/06/2014  12:14:00       22.564      155.821        2.422       93.399       94.210       53.898     8723.345     8875.589     2905.034        2.265        1.025      157.446       52.859        0.113      337.839       10.081      855.639
05/06/2014  12:15:00      -22.316      155.293       -4.898       93.673      129.752       50.952     8774.699    16835.678     2596.140        2.642        1.410      156.889       62.977        0.161      337.802       10.020      855.623
05/06/2014  12:16:00        5.576      213.978      -18.730       91.563       79.124       64.698     8383.700     6260.586     4185.794        3.250        0.942      214.051       52.229        0.060      337.790        9.999      855.632
05/06/2014  12:17:00       30.462      210.781      -13.327       73.643      108.901       60.101     5423.218    11859.413     3612.077        3.321        1.045      212.970       50.495        0.056      337.698        9.846      855.624
05/06/2014  12:18:00       45.761      250.420      -12.913       69.799      187.818       71.084     4871.880    35275.656     5052.958        5.508        2.260      254.567       91.441        0.129      337.611        9.700      855.608
05/06/2014  12:19:00       22.939      249.805      -21.780      118.659      164.294       73.612    14079.952    26992.660     5418.676        5.494        2.325      250.856       85.888        0.117      337.622        9.718      855.603
05/06/2014  12:20:00      -43.274      103.568      -10.507       61.018      107.540       47.473     3723.233    11564.946     2253.658        1.512        0.877      112.245       42.724        0.145      337.756        9.944      855.580
05/06/2014  12:21:00      -22.437      199.549      -12.728       83.603      128.792       59.025     6989.524    16587.406     3483.951        3.377        1.353      200.806       62.755        0.098      337.799       10.016      855.575
05/06/2014  12:22:00      -88.986      207.313      -21.952       60.573      123.432       51.343     3669.056    15235.458     2636.066        3.646        1.077      225.604       52.549        0.054      337.818       10.047      855.574
05/06/2014  12:23:00      -71.737      123.661       -9.567       62.220       69.207       37.913     3871.283     4789.578     1437.410        1.531        0.505      142.962       41.160        0.083      338.011       10.372      855.567
05/06/2014  12:24:00      -78.961      186.846      -32.889       82.345      101.462       50.990     6780.642    10294.625     2599.975        3.095        0.984      202.846       47.113        0.054      337.683        9.820      855.547
05/06/2014  12:25:00       17.797      168.167      -30.641       71.352      118.410       59.952     5091.086    14020.827     3594.283        2.612        1.135      169.106       66.967        0.157      337.725        9.892      855.528
05/06/2014  12:26:00      -47.737      191.525      -21.595       79.560       78.668       40.683     6329.808     6188.627     1655.082        2.680        0.709      197.385       41.436        0.044      337.745        9.925      855.529
05/06/2014  12:27:00      -70.852      142.973      -13.147       83.354       72.090       44.377     6947.902     5197.012     1969.315        1.987        0.706      159.566       30.575        0.037      337.846       10.095      855.521
05/06/2014  12:28:00      -70.644      239.535      -38.627       83.804      145.126       55.306     7023.182    21061.549     3058.702        4.750        1.557      249.735       65.222        0.068      337.794       10.005      855.531
05/06/2014  12:29:00     -177.148      430.145      -50.667       93.785      154.882       71.447     8795.578    23988.365     5104.611       12.842        1.894      465.195       63.585        0.019      337.606        9.689      855.536
05/06/2014  12:30:00      -37.887      418.152      -41.500       79.854      106.658       50.567     6376.685    11375.843     2556.989        9.915        1.015      419.865       43.168        0.011      337.577        9.641      855.542
05/06/2014  12:31:00        9.075      154.736       -3.659       74.120       99.236       63.632     5493.764     9847.795     4048.983        2.171        0.970      155.002       59.131        0.146      337.717        9.878      855.523
05/06/2014  12:32:00     -122.157      282.200      -36.677       86.639       85.086       52.162     7506.258     7239.659     2720.840        5.668        0.873      307.505       45.504        0.022      337.615        9.704      855.514
05/06/2014  12:33:00      -16.353      181.368      -26.186       65.928      109.939       39.577     4346.465    12086.553     1566.315        2.592        0.900      182.104       49.490        0.074      337.728        9.897      855.490
05/06/2014  12:34:00        5.008      178.466      -13.370       60.047      122.830       45.774     3605.599    15087.264     2095.289        2.642        1.039      178.536       65.340        0.134      337.760        9.950      855.485
05/06/2014  12:35:00      -57.573      328.718      -26.382       89.034      102.000       52.658     7927.010    10403.903     2772.830        6.658        1.055      333.721       45.364        0.018      337.775        9.974      855.480
05/06/2014  12:36:00      -19.971      234.755      -20.993       52.115      122.265       50.827     2716.012    14948.633     2583.416        3.809        1.012      235.603       55.670        0.056      337.706        9.860      855.456
05/06/2014  12:37:00     -135.353       72.488      -13.872       92.005       77.519       41.839     8464.957     6009.146     1750.515        1.999        0.811      153.541       52.888        0.119      337.867       10.131      855.432
05/06/2014  12:38:00     -212.526      123.500      -45.040      111.501      153.697       56.977    12432.438    23622.898     3246.356        5.087        1.965      245.804       60.868        0.061      337.706        9.858      855.448
05/06/2014  12:39:00     -129.634      187.888      -28.946       51.852       79.020       38.111     2688.592     6244.087     1452.447        3.166        0.519      228.270       33.698        0.022      337.631        9.732      855.451
05/06/2014  12:40:00      -69.109      172.350      -15.476       49.255       94.841       34.643     2426.056     8994.812     1200.122        2.367        0.631      185.689       35.517        0.037      337.759        9.948      855.404
05/06/2014  12:41:00      -82.642      152.958      -20.761       47.731       64.539       38.971     2278.233     4165.324     1518.734        1.931        0.398      173.856       42.769        0.061      337.779        9.982      855.388
05/06/2014  12:42:00      -28.753      204.094      -22.167       32.420       57.376       27.645     1051.068     3291.964      764.238        2.404        0.255      206.109       20.628        0.010      337.775        9.975      855.376
05/06/2014  12:43:00      -70.559      230.753      -22.535       69.591       96.760       45.627     4842.919     9362.594     2081.809        3.751        0.814      241.299       43.628        0.033      337.878       10.147      855.362
05/06/2014  12:44:00      -46.335      321.186      -40.281       60.099       79.895       40.061     3611.832     6383.174     1604.874        5.926        0.580      324.511       38.473        0.014      337.831       10.068      855.354
05/06/2014  12:45:00      -32.307      357.420      -34.744       63.560       87.020       52.547     4039.818     7572.565     2761.234        7.218        0.719      358.877       45.683        0.016      337.845       10.091      855.345
05/06/2014  12:46:00     -157.617       93.358       -9.407      104.235       79.668       47.010    10864.836     6346.972     2209.958        2.653        0.971      183.191       48.786        0.071      337.985       10.328      855.340
05/06/2014  12:47:00        7.326      189.367      -15.115       68.066       86.362       48.207     4632.984     7458.433     2323.942        2.528        0.721      189.509       49.154        0.067      338.009       10.369      855.330
05/06/2014  12:48:00      154.623      187.963       -7.389       92.989      102.370       68.883     8646.904    10479.699     4744.878        4.158        1.194      243.389       60.105        0.061      337.980       10.316      855.280
05/06/2014  12:49:00       52.631      124.632        0.830       75.592      104.908       67.031     5714.132    11005.590     4493.139        1.975        1.061      135.289       57.869        0.183      337.966       10.296      855.274
05/06/2014  12:50:00       69.842       96.160      -10.896       67.673       61.461       42.236     4579.699     3777.447     1783.889        1.219        0.507      118.847       30.871        0.067      338.092       10.508      855.258
05/06/2014  12:51:00        3.796      116.880       -1.463      123.901       54.046       55.159    15351.376     2921.006     3042.562        1.749        1.066      116.942       59.700        0.261      338.187       10.668      855.263
05/06/2014  12:52:00     -131.267       69.613      -34.852       75.806       57.206       36.143     5746.621     3272.581     1306.298        1.681        0.516      148.583       32.053        0.047      338.195       10.681      855.269
05/06/2014  12:53:00        2.058      107.149      -12.713      120.870       63.429       41.868    14609.592     4023.210     1752.915        1.601        1.019      107.169       38.698        0.130      338.319       10.889      855.239
05/06/2014  12:54:00       18.188      143.630       -3.443       70.530       88.493       42.102     4974.527     7830.981     1772.562        1.777        0.729      144.777       49.907        0.119      338.423       11.063      855.212
05/06/2014  12:55:00      -53.638      316.150      -29.118       56.701      109.533       54.711     3215.020    11997.524     2993.272        6.094        0.910      320.668       58.311        0.033      338.143       10.591      855.235
05/06/2014  12:56:00       33.634      400.639      -38.173       99.017      130.528       67.539     9804.281    17037.676     4561.572        9.725        1.570      402.048       68.145        0.029      338.157       10.614      855.202
05/06/2014  12:57:00     -173.308      225.398      -27.727       93.378      135.460       60.659     8719.402    18349.498     3679.486        5.617        1.537      284.324       53.911        0.036      338.337       10.917      855.200
05/06/2014  12:58:00     -186.679      119.747      -23.415       78.445      115.753       53.649     6153.560    13398.642     2878.260        3.608        1.122      221.784       43.940        0.039      338.610       11.375      855.206
05/06/2014  12:59:00     -273.321      103.859      -31.564      144.570      123.577       62.244    20900.482    15271.230     3874.259        6.326        2.002      292.389       62.628        0.046      338.412       11.042      855.218
05/06/2014  13:00:00     -222.275      -27.219       -7.092      124.539      102.362       64.742    15509.855    10477.900     4191.584        4.018        1.509      223.935       66.760        0.089      338.487       11.168      855.218
05/06/2014  13:01:00     -203.508      283.589      -45.715      128.054      116.447       81.327    16397.876    13559.974     6614.055        8.024        1.829      349.054       79.116        0.051      338.290       10.838      855.263
05/06/2014  13:02:00     -231.442      328.890      -58.342      106.655      121.714       62.466    11375.288    14814.255     3901.999        9.761        1.505      402.162       63.511        0.025      338.111       10.538      855.260
05/06/2014  13:03:00     -215.116      220.396      -35.026      101.007      138.673       60.137    10202.488    19230.289     3616.499        6.456        1.652      307.976       58.650        0.036      338.177       10.647      855.239
05/06/2014  13:04:00     -128.805       74.333      -31.411       85.080      105.226       56.171     7238.559    11072.414     3155.197        2.228        1.073      148.715       52.928        0.127      338.300       10.857      855.222
05/06/2014  13:05:00      -70.113       68.720       -7.412       71.294       95.635       48.488     5082.901     9146.075     2351.134        1.313        0.829       98.175       44.359        0.204      338.404       11.032      855.201
05/06/2014  13:06:00     -151.158       86.910      -15.858       58.122       95.843       46.227     3378.149     9185.893     2136.924        2.267        0.735      174.362       31.112        0.032      338.560       11.293      855.161
05/06/2014  13:07:00     -189.370      -70.511      -30.269       93.572       74.896       55.681     8755.763     5609.357     3100.404        2.960        0.873      202.071       55.863        0.076      338.288       10.835      855.131
05/06/2014  13:08:00     -104.610       83.227      -23.959       83.472       86.727       46.168     6967.582     7521.498     2131.444        1.753        0.831      133.678       49.053        0.135      338.334       10.914      855.151
05/06/2014  13:09:00     -160.854      182.585      -29.774       90.779       92.729       58.473     8240.803     8598.757     3419.075        4.017        1.013      243.334       43.549        0.032      338.396       11.016      855.149
05/06/2014  13:10:00     -124.825      160.743      -19.199       97.363       90.371       52.731     9479.571     8166.889     2780.523        3.110        1.021      203.518       49.998        0.060      338.460       11.123      855.155
05/06/2014  13:11:00      -52.136      139.500       -9.117       63.232       78.454       47.494     3998.250     6154.984     2255.727        1.733        0.620      148.925       44.800        0.090      338.596       11.353      855.146
05/06/2014  13:12:00       17.736      107.514        8.164       53.966       72.842       43.715     2912.302     5306.012     1910.985        1.103        0.506      108.968       33.224        0.093      338.837       11.761      855.156
05/06/2014  13:13:00      -20.373      203.743      -14.306       78.051      143.887       70.513     6091.971    20703.379     4972.077        3.694        1.588      204.759       71.960        0.124      338.825       11.739      855.147
05/06/2014  13:14:00     -132.854      392.889      -53.716      128.916      204.489       78.649    16619.410    41815.903     6185.713       11.975        3.231      414.743       66.522        0.026      338.774       11.651      855.177
05/06/2014  13:15:00       40.392      459.784      -31.742      153.304      234.220      125.920    23502.180    54859.123    15855.807       15.411        4.711      461.555      138.656        0.090      338.510       11.208      855.190
05/06/2014  13:16:00        4.968      327.903      -17.244      136.832      193.930       89.673    18722.963    37609.013     8041.172        8.610        3.219      327.941      100.232        0.093      338.490       11.174      855.233
05/06/2014  13:17:00       69.878      223.447        1.406      124.518      172.743       84.761    15504.752    29839.995     7184.511        5.366        2.626      234.118       93.334        0.159      338.566       11.301      855.211
05/06/2014  13:18:00       -6.368      508.166      -48.848      129.392      171.802       99.439    16742.368    29516.098     9888.179       15.839        2.807      508.206       98.077        0.037      338.346       10.931      855.235
05/06/2014  13:19:00       54.912      563.135      -60.940      117.355      212.723      117.898    13772.275    45251.240    13899.848       19.837        3.646      565.806      132.575        0.055      338.192       10.673      855.226
05/06/2014  13:20:00       -8.408      303.233      -20.858       79.481      149.207       79.888     6317.215    22262.623     6382.163        6.370        1.748      303.350       82.378        0.074      338.303       10.861      855.206
05/06/2014  13:21:00      -44.785      280.452      -22.724       93.416      139.465       71.246     8726.525    19450.431     5075.922        5.721        1.663      284.006       74.812        0.069      338.401       11.025      855.185
05/06/2014  13:22:00      -36.115      275.480      -52.713       66.543      119.543       39.659     4428.032    14290.415     1572.803        5.013        1.015      277.837       35.193        0.016      338.272       10.809      855.160
05/06/2014  13:23:00       35.054      233.564      -17.608       78.879      130.618       66.755     6221.836    17061.154     4456.176        4.191        1.387      236.180       66.837        0.080      338.460       11.125      855.142
05/06/2014  13:24:00      -57.157      351.170      -43.455      127.369      129.406       73.108    16222.846    16745.966     5344.793        8.339        1.916      355.791       69.989        0.039      338.444       11.096      855.114
05/06/2014  13:25:00     -121.175      230.190      -19.677       95.998      148.994       62.810     9215.654    22199.272     3945.152        5.170        1.768      260.137       59.517        0.052      338.621       11.394      855.133
05/06/2014  13:26:00     -194.648      142.768      -35.645      115.484      120.002       63.762    13336.555    14400.463     4065.533        4.567        1.590      241.393       69.183        0.082      338.608       11.372      855.097
05/06/2014  13:27:00     -171.944      111.520      -36.303      150.879      119.465       55.775    22764.579    14271.965     3110.860        4.173        2.007      204.942       71.840        0.123      338.698       11.525      855.082
05/06/2014  13:28:00     -191.421      149.723      -40.324      102.686      139.535       53.908    10544.444    19470.077     2906.079        4.680        1.646      243.021       52.086        0.046      338.459       11.123      855.075
05/06/2014  13:29:00      -84.222      264.746      -28.188       68.454       95.943       51.619     4685.967     9205.110     2664.532        4.726        0.828      277.820       45.672        0.027      338.786       11.672      855.099
05/06/2014  13:30:00        4.680      430.717      -60.079       53.479      100.895       34.286     2859.952    10179.714     1175.543       10.168        0.711      430.742       29.743        0.005      338.443       11.095      855.109
05/06/2014  13:31:00      -68.032      264.361      -32.924       73.470       77.341       45.998     5397.893     5981.566     2115.854        4.454        0.675      272.974       39.604        0.021      338.668       11.473      855.110
05/06/2014  13:32:00     -134.350      128.095      -27.605       79.746      107.157       35.438     6359.371    11482.653     1255.876        2.716        0.955      185.629       28.457        0.024      338.652       11.448      855.108
05/06/2014  13:33:00     -168.148      136.702      -30.091       87.031       96.455       51.672     7574.458     9303.604     2670.047        3.370        0.977      216.705       47.158        0.047      338.603       11.363      855.070
05/06/2014  13:34:00      -24.283      197.774      -10.095      111.278      124.817       70.400    12382.877    15579.392     4956.188        3.636        1.646      199.259       79.791        0.160      338.806       11.706      855.072
05/06/2014  13:35:00      122.701      146.472       -5.836       88.760       88.119       66.298     7878.339     7764.918     4395.409        2.829        1.002      191.074       48.495        0.064      338.713       11.550      855.061
05/06/2014  13:36:00        5.560      335.416      -35.649      113.636      127.169       65.400    12913.191    16171.853     4277.192        7.358        1.668      335.462       68.800        0.042      338.618       11.388      855.077
05/06/2014  13:37:00       34.028      195.216      -11.658       75.345      116.006       61.769     5676.822    13457.468     3815.351        3.117        1.147      198.159       60.096        0.092      338.894       11.853      855.037
05/06/2014  13:38:00       56.810      324.140      -33.600      129.921      205.928       86.241    16879.480    42406.526     7437.515        8.806        3.336      329.081      107.381        0.106      338.681       11.495      855.027
05/06/2014  13:39:00      -48.979      316.118      -28.381       80.099      147.696       61.820     6415.775    21814.129     3821.715        6.759        1.603      319.890       71.237        0.050      338.658       11.456      855.043
05/06/2014  13:40:00      -20.571      360.569      -27.469       98.469      189.139       73.705     9696.051    35773.565     5432.462        9.103        2.545      361.155       86.101        0.057      338.732       11.580      855.017
05/06/2014  13:41:00      -17.903      298.443      -13.537      101.233      128.261       73.487    10248.053    16450.930     5400.269        6.083        1.605      298.979       78.750        0.069      338.817       11.724      855.032
05/06/2014  13:42:00        6.866      276.303      -19.739       89.583      116.167       72.267     8025.159    13494.855     5222.519        5.176        1.337      276.388       73.865        0.071      338.871       11.815      854.992
05/06/2014  13:43:00      -61.990      177.650        9.320       97.485      168.791       73.389     9503.414    28490.478     5385.883        3.943        2.169      188.155       70.025        0.139      339.164       12.308      854.996
05/06/2014  13:44:00     -116.452       18.559      -12.138       63.861       52.614       31.126     4078.222     2768.195      968.843        1.093        0.391      117.921       24.120        0.042      339.171       12.321      854.999
05/06/2014  13:45:00     -121.474      141.527      -29.577       72.010      105.391       49.595     5185.391    11107.275     2459.702        2.720        0.938      186.509       27.691        0.022      339.331       12.590      855.015
05/06/2014  13:46:00      -96.247      208.694      -22.515       98.214      147.210       54.412     9646.030    21670.678     2960.693        4.379        1.714      229.819       52.239        0.052      339.212       12.388      855.058
05/06/2014  13:47:00      -61.703      355.175      -30.561       83.533      143.903       60.038     6977.693    20708.185     3604.582        8.108        1.565      360.495       72.454        0.040      338.894       11.852      855.050
05/06/2014  13:48:00       43.738      334.771      -22.845      105.019      147.051       78.002    11028.890    21623.855     6084.271        7.661        1.937      337.616       83.945        0.062      338.768       11.639      855.001
05/06/2014  13:49:00      -44.988      173.728      -20.782      175.475       89.923       69.874    30791.635     8086.177     4882.391        3.819        2.188      179.458       84.129        0.220      339.063       12.137      854.971
05/06/2014  13:50:00     -158.190      274.395      -38.408       96.540      124.223       56.145     9319.925    15431.255     3152.211        6.484        1.395      316.728       63.164        0.040      339.030       12.082      855.021
05/06/2014  13:51:00     -131.782      167.379      -18.663       83.883      119.013       48.961     7036.409    14164.077     2397.141        3.466        1.180      213.031       43.494        0.042      339.010       12.048      855.004
05/06/2014  13:52:00     -235.941      100.770      -31.022      172.359      115.551       73.745    29707.702    13351.946     5438.308        5.763        2.425      256.560       86.234        0.113      338.864       11.803      854.996
05/06/2014  13:53:00     -164.217      153.596      -15.562      120.318       96.187       60.581    14476.522     9251.963     3669.997        3.909        1.370      224.853       51.235        0.052      339.009       12.046      854.956
05/06/2014  13:54:00     -154.032      -15.087        0.999      111.500      118.867       55.744    12432.300    14129.287     3107.365        2.681        1.483      154.769       57.703        0.139      339.150       12.283      854.939
05/06/2014  13:55:00     -300.193      109.427      -41.715      117.960      126.090       52.359    13914.583    15898.594     2741.507        6.819        1.628      319.516       40.332        0.016      338.903       11.867      854.932
05/06/2014  13:56:00     -210.824      154.257      -27.946      113.362      177.230       87.624    12850.870    31410.338     7677.897        6.047        2.597      261.232       98.621        0.143      338.878       11.826      854.946
05/06/2014  13:57:00     -244.560      159.548      -47.285      113.425      117.599       60.748    12865.291    13829.568     3690.336        5.894        1.519      292.002       60.628        0.043      338.956       11.957      854.909
05/06/2014  13:58:00      -32.322      189.457       -6.563       60.611      104.595       53.092     3673.650    10940.051     2818.745        2.720        0.872      192.194       61.498        0.102      339.108       12.214      854.920
05/06/2014  13:59:00      -50.948      245.004      -20.182       82.339      118.800       55.000     6779.709    14113.537     3025.048        4.347        1.196      250.245       58.461        0.055      339.067       12.143      854.891
05/06/2014  14:00:00      -52.433       93.053        6.767       73.510       57.579       40.175     5403.724     3315.347     1614.018        1.089        0.517      106.809       33.892        0.101      339.241       12.439      854.903
05/06/2014  14:01:00      -15.406      324.955      -27.726      118.146      137.588       70.827    13958.590    18930.467     5016.513        7.225        1.895      325.320       68.890        0.045      339.139       12.265      854.918
05/06/2014  14:02:00       16.284      340.389      -49.197       61.614       95.251       45.827     3796.238     9072.845     2100.106        6.676        0.748      340.779       48.867        0.021      339.088       12.179      854.920
05/06/2014  14:03:00     -112.697      359.176      -43.730      106.078      159.592       62.671    11252.631    25469.455     3927.652        9.213        2.032      376.442       68.316        0.033      339.154       12.291      854.937
05/06/2014  14:04:00      -37.680      465.692      -46.814      110.055      158.374       76.249    12112.147    25082.256     5813.983       13.174        2.150      467.214       76.992        0.027      338.947       11.942      854.941
05/06/2014  14:05:00       20.379      169.114       -3.050       82.341       98.742       65.817     6780.020     9749.927     4331.931        2.494        1.043      170.338       67.299        0.156      339.160       12.302      854.936
05/06/2014  14:06:00     -218.659      241.089      -54.939      157.323      133.093       69.592    24750.527    17713.739     4843.056        7.812        2.365      325.478       95.779        0.087      339.094       12.190      854.970
05/06/2014  14:07:00      -60.081      347.325      -46.500      112.258      140.762       63.085    12601.871    19813.987     3979.754        8.139        1.820      352.483       52.770        0.022      339.127       12.245      854.982
05/06/2014  14:08:00      -89.903      379.726      -52.005       95.163      158.720       51.689     9055.990    25191.898     2671.721        9.594        1.846      390.223       55.124        0.020      338.977       11.991      854.996
05/06/2014  14:09:00      -34.958      249.003      -21.017       48.209      115.685       49.032     2324.101    13382.986     2404.161        4.089        0.906      251.445       52.477        0.044      338.830       11.744      854.971
05/06/2014  14:10:00     -134.689      252.693      -31.354       97.421       96.969       57.494     9490.780     9403.032     3305.594        5.258        1.110      286.347       38.165        0.018      339.040       12.098      854.927
05/06/2014  14:11:00      -88.578      238.575      -34.511      130.336       96.298       48.661    16987.531     9273.373     2367.906        4.729        1.431      254.488       44.349        0.030      339.182       12.336      854.935
05/06/2014  14:12:00     -135.994      215.056      -32.145      106.455       93.885       47.845    11332.602     8814.435     2289.112        4.410        1.122      254.448       45.285        0.032      339.150       12.284      854.930
05/06/2014  14:13:00     -166.391      299.817      -55.363      129.148      154.772       62.349    16679.126    23954.442     3887.429        8.257        2.226      342.894       75.925        0.049      339.124       12.241      854.917
05/06/2014  14:14:00     -177.854      304.974      -46.135      121.436      173.596       78.629    14746.679    30135.735     6182.517        8.891        2.553      353.045       82.884        0.055      339.140       12.265      854.925
05/06/2014  14:15:00      -67.245      369.755      -42.743      118.371      133.694       54.882    14011.702    17874.081     3012.015        8.898        1.745      375.820       47.016        0.016      339.071       12.149      854.943
05/06/2014  14:16:00     -119.485      176.293      -19.177       94.047      144.465       60.986     8844.914    20870.030     3719.343        3.957        1.672      212.969       54.766        0.066      339.105       12.208      854.938
05/06/2014  14:17:00     -101.623       55.262       -0.001       73.022      114.059       62.993     5332.262    13009.401     3968.170        1.784        1.115      115.677       50.198        0.188      339.122       12.239      854.901
05/06/2014  14:18:00      -63.407       60.738       -6.753       95.694       62.467       63.529     9157.397     3902.178     4035.969        1.242        0.855       87.805       66.336        0.571      339.106       12.213      854.850
05/06/2014  14:19:00     -103.523      235.317      -26.138       90.773      142.436       55.747     8239.728    20287.977     3107.696        4.920        1.582      257.082       57.165        0.049      339.031       12.082      854.886
05/06/2014  14:20:00      -28.073      165.298        1.540       61.869       95.610       53.835     3827.761     9141.188     2898.220        2.199        0.793      167.665       55.620        0.110      339.242       12.439      854.893
05/06/2014  14:21:00       59.904      247.499      -17.541       96.607      150.624       78.662     9332.906    22687.514     6187.766        5.167        1.910      254.645       86.889        0.116      339.258       12.464      854.897
05/06/2014  14:22:00       60.834      201.289      -16.595       92.616      120.048       71.332     8577.654    14411.497     5088.204        3.628        1.404      210.281       67.879        0.104      339.328       12.583      854.895
05/06/2014  14:23:00      -39.844      309.875      -42.574       83.241       99.077       46.033     6929.022     9816.350     2119.037        5.914        0.943      312.426       40.860        0.017      339.350       12.619      854.908
05/06/2014  14:24:00      -89.197      386.400      -51.400      107.598      125.520       47.394    11577.265    15755.191     2246.223        9.474        1.479      396.562       48.305        0.015      339.215       12.392      854.907
05/06/2014  14:25:00      -39.209      377.779      -49.229       76.461      123.694       46.013     5846.235    15300.213     2117.234        8.497        1.163      379.808       44.130        0.014      339.203       12.373      854.908
05/06/2014  14:26:00      -38.310      299.267      -31.792      114.733      136.589       62.898    13163.764    18656.686     3956.213        6.390        1.789      301.709       60.335        0.040      339.305       12.545      854.896
05/06/2014  14:27:00       -0.627      367.288      -44.484       77.858      151.826       64.867     6061.933    23051.195     4207.787        8.509        1.666      367.288       79.352        0.047      339.240       12.436      854.871
05/06/2014  14:28:00        7.599      325.383      -35.026       81.430      128.282       63.767     6630.922    16456.156     4066.257        6.715        1.358      325.472       79.533        0.060      339.026       12.076      854.845
05/06/2014  14:29:00      -87.821      224.449      -31.830      130.623      133.823       56.402    17062.450    17908.632     3181.200        4.862        1.908      241.018       57.007        0.056      339.145       12.275      854.792
05/06/2014  14:30:00     -199.358      250.948      -27.787      107.127      127.882       77.764    11476.109    16353.707     6047.179        6.868        1.694      320.497       61.978        0.037      339.475       12.830      854.792
05/06/2014  14:31:00       96.656      102.633       40.861      162.766       96.051       81.618    26492.683     9225.711     6661.576        3.195        2.119      140.982       58.423        0.172      339.654       13.134      854.826
05/06/2014  14:32:00      -90.383      212.495      -23.712      109.424      138.364       69.478    11973.542    19144.524     4827.143        4.491        1.797      230.918       75.334        0.106      339.413       12.727      854.833
05/06/2014  14:33:00     -116.665      334.255      -40.618      125.402      154.095       73.386    15725.686    23745.138     5385.541        8.591        2.243      354.030       83.636        0.056      339.471       12.823      854.823
05/06/2014  14:34:00     -129.788      235.181      -49.125      117.994      106.730       55.840    13922.677    11391.227     3118.051        5.149        1.422      268.617       52.159        0.038      339.722       13.247      854.863
05/06/2014  14:35:00     -155.179      133.176      -28.790      105.626      115.267       55.509    11156.926    13286.490     3081.231        3.508        1.376      204.491       48.173        0.055      339.481       12.843      854.860
05/06/2014  14:36:00      -45.816      276.985      -25.369       96.053      134.120       58.661     9226.213    17988.219     3441.164        5.505        1.533      280.748       47.892        0.029      339.226       12.411      854.825
05/06/2014  14:37:00     -118.527      314.927      -44.053       79.183      126.294       40.112     6269.935    15950.063     1608.988        6.949        1.191      336.493       29.282        0.008      339.216       12.394      854.766
05/06/2014  14:38:00      -74.718      205.718      -23.061       93.446      119.152       75.723     8732.186    14197.252     5734.045        3.854        1.433      218.867       55.509        0.064      339.593       13.030      854.766
05/06/2014  14:39:00     -168.017      212.882      -19.588       96.340      118.556       69.976     9281.382    14055.463     4896.655        5.108        1.412      271.198       63.985        0.056      339.743       13.282      854.759
05/06/2014  14:40:00      -17.530      301.683      -23.976      107.196      145.242       75.698    11491.071    21095.223     5730.257        6.510        1.916      302.192       81.520        0.073      339.446       12.782      854.761
05/06/2014  14:41:00      -78.843      275.583      -39.554      149.566      162.672       68.183    22370.114    26462.199     4648.930        6.859        2.674      286.640       68.812        0.058      339.719       13.242      854.763
05/06/2014  14:42:00     -193.144      175.172      -26.431      154.519      118.394       62.074    23875.975    14017.170     3853.152        5.521        2.087      260.749       60.508        0.054      339.866       13.490      854.774
05/06/2014  14:43:00     -130.625       77.831      -33.417       97.486      113.443       73.395     9503.540    12869.224     5386.764        2.599        1.388      152.054       59.388        0.153      340.163       13.992      854.761
05/06/2014  14:44:00     -194.294      199.744      -37.346      175.434      156.511       73.781    30776.920    24495.711     5443.595        6.987        3.036      278.653       75.124        0.073      339.971       13.668      854.739
05/06/2014  14:45:00     -225.640      170.444      -19.553      191.829      267.028       97.871    36798.302    71304.064     9578.689        9.899        5.884      282.780       89.660        0.101      339.997       13.711      854.699
05/06/2014  14:46:00     -310.307      -23.239       -8.339      245.195      166.459       96.522    60120.656    27708.558     9316.464        9.700        4.857      311.176      104.442        0.113      339.658       13.141      854.662
05/06/2014  14:47:00     -109.032      254.374      -20.412       93.123      133.734       68.704     8671.927    17884.894     4720.174        5.414        1.564      276.757       75.391        0.074      340.079       13.851      854.708
05/06/2014  14:48:00     -197.793      229.769      -55.197      124.533      108.306       68.708    15508.455    11730.180     4720.844        6.345        1.598      303.176       48.748        0.026      339.923       13.586      854.704
05/06/2014  14:49:00     -177.220      267.377      -41.730      127.453      175.016       83.845    16244.220    30630.493     7030.005        7.926        2.695      320.776       86.721        0.073      339.981       13.684      854.727
05/06/2014  14:50:00     -149.388      238.513      -19.016      139.754      142.313       81.876    19531.256    20252.985     6703.654        6.302        2.324      281.434       79.289        0.079      339.919       13.579      854.766
05/06/2014  14:51:00     -262.105      158.147      -40.479      155.596      155.340       70.291    24210.241    24130.629     4940.820        7.430        2.664      306.120       80.416        0.069      339.740       13.277      854.769
05/06/2014  14:52:00     -202.568      258.504      -29.175      148.201      165.573       88.405    21963.473    27414.498     7815.489        8.294        2.860      328.418      101.935        0.096      339.867       13.492      854.754
05/06/2014  14:53:00     -278.501      173.774      -47.396      104.342      108.227       71.925    10887.253    11713.175     5173.134        6.888        1.389      328.269       57.106        0.030      339.647       13.121      854.715
05/06/2014  14:54:00     -375.304      137.870      -63.452      148.248      118.544       77.819    21977.527    14052.781     6055.734       10.298        2.104      399.827       70.926        0.031      339.374       12.661      854.699
05/06/2014  14:55:00     -198.705       87.508      -13.231      137.460       80.816       57.771    18895.272     6531.250     3337.465        3.803        1.438      217.121       63.812        0.086      339.692       13.198      854.651
05/06/2014  14:56:00     -251.719       94.633      -30.380      171.945      116.352       77.981    29565.218    13537.825     6081.110        6.120        2.459      268.920       84.026        0.098      339.982       13.685      854.612
05/06/2014  14:57:00     -264.682       -7.987      -27.652      197.202      120.428       72.858    38888.593    14502.819     5308.221        6.478        2.935      264.803       80.985        0.094      339.870       13.498      854.595
05/06/2014  14:58:00     -194.030       40.523      -12.422      145.361      105.699       72.379    21129.842    11172.220     5238.727        3.849        1.877      198.217       63.408        0.102      340.124       13.927      854.593
05/06/2014  14:59:00      -36.055      121.008       -3.364       89.678       81.170       48.733     8042.114     6588.568     2374.892        1.648        0.850      126.265       51.535        0.167      340.345       14.301      854.618
05/06/2014  15:00:00      -37.143      274.800       -6.282       99.463      142.052       80.648     9892.862    20178.689     6504.125        5.675        1.829      277.299       81.153        0.086      339.997       13.710      854.639
05/06/2014  15:01:00      106.224      251.544      -11.579      154.045      143.261       75.942    23729.881    20523.773     5767.125        6.235        2.501      273.053       70.899        0.067      339.622       13.080      854.630
05/06/2014  15:02:00       65.779      227.487      -20.289       95.238      154.003       61.131     9070.285    23716.955     3736.961        4.650        1.826      236.807       62.114        0.069      339.649       13.124      854.627
05/06/2014  15:03:00      -33.586      236.749      -24.585      113.105      131.006       67.678    12792.718    17162.633     4580.266        4.615        1.727      239.119       73.114        0.093      339.799       13.377      854.640
05/06/2014  15:04:00       36.087      242.504      -15.089      197.114      145.597       69.202    38853.918    21198.480     4788.854        6.258        3.242      245.174       82.343        0.113      339.733       13.266      854.612
05/06/2014  15:05:00      -49.022      436.134      -25.296      150.185      251.922      123.337    22555.477    63464.696    15212.123       14.722        5.062      438.881      147.786        0.113      339.727       13.254      854.616
05/06/2014  15:06:00      -36.070      404.883      -42.662      148.727      150.440       91.100    22119.745    22632.171     8299.282       11.004        2.653      406.486       88.436        0.047      339.635       13.100      854.638
05/06/2014  15:07:00      -22.921      329.384      -51.232      146.692      178.986       60.700    21518.640    32036.037     3684.454        8.443        2.862      330.181       76.437        0.054      339.522       12.911      854.645
05/06/2014  15:08:00      -90.930      301.802      -44.619      113.999      141.005       64.020    12995.829    19882.379     4098.584        6.915        1.849      315.202       60.126        0.036      339.673       13.164      854.682
05/06/2014  15:09:00     -144.061      411.230      -35.299      132.283      152.809       84.274    17498.890    23350.696     7102.058       11.952        2.398      435.734       72.290        0.028      339.569       12.987      854.712
05/06/2014  15:10:00      -20.787      359.208      -37.473      114.589      201.147       92.130    13130.575    40460.156     8487.942        9.646        3.104      359.809      111.050        0.095      339.579       13.008      854.685
05/06/2014  15:11:00     -119.054      434.091      -59.160      114.759      161.942       74.367    13169.603    26225.289     5530.429       12.551        2.246      450.121       71.482        0.025      339.549       12.955      854.684
05/06/2014  15:12:00      -70.484      547.854      -72.040      108.831      156.803       56.207    11844.283    24587.282     3159.212       17.494        1.980      552.370       56.768        0.011      339.479       12.838      854.665
05/06/2014  15:13:00      -47.033      282.285      -26.527      108.721      143.558       62.479    11820.293    20608.818     3903.590        5.946        1.817      286.176       73.970        0.067      339.789       13.359      854.652
05/06/2014  15:14:00      -42.630      166.936       -1.441       84.409      102.687       59.028     7124.906    10544.657     3484.248        2.542        1.058      172.293       49.915        0.084      339.916       13.575      854.603
05/06/2014  15:15:00     -223.967      145.219      -33.401      152.121      150.887       56.554    23140.875    22766.917     3198.408        6.073        2.455      266.926       48.046        0.032      340.020       13.751      854.600
05/06/2014  15:16:00     -190.921       98.967      -46.476      167.953      220.398       82.195    28208.195    48575.360     6755.990        6.596        4.177      215.047       91.531        0.181      339.903       13.552      854.570
05/06/2014  15:17:00     -221.517      282.851      -43.910      115.863      157.571       70.939    13424.251    24828.535     5032.346        8.714        2.164      359.270       72.138        0.040      339.747       13.289      854.577
05/06/2014  15:18:00     -138.791      121.366      -30.194      148.193      178.723       68.317    21961.289    31941.905     4667.275        4.673        2.929      184.371       60.070        0.106      340.092       13.872      854.507
05/06/2014  15:19:00     -145.653       -8.724       -2.172      121.444      140.344       58.808    14748.562    19696.546     3458.353        2.959        1.895      145.914       47.784        0.107      340.304       14.230      854.514
05/06/2014  15:20:00     -144.207      250.085      -28.394      107.990      160.279       67.754    11661.742    25689.425     4590.569        6.303        2.097      288.683       77.115        0.071      340.179       14.019      854.517
05/06/2014  15:21:00     -153.295      275.358      -35.034       98.632       87.442       63.889     9728.256     7646.033     4081.822        6.100        1.073      315.153       58.669        0.035      340.302       14.225      854.532
05/06/2014  15:22:00      -85.796      280.002      -25.975       94.110      138.606       53.949     8856.713    19211.511     2910.507        5.870        1.549      292.852       59.833        0.042      340.323       14.261      854.522
05/06/2014  15:23:00      -49.114      376.149      -34.549      126.540      256.073       79.739    16012.367    65573.592     6358.370       11.650        4.397      379.342      104.227        0.075      340.078       13.849      854.535
05/06/2014  15:24:00     -239.715      421.204      -76.442      123.720      168.145       82.429    15306.726    28272.612     6794.566       14.554        2.519      484.640       88.601        0.033      339.563       12.979      854.594
05/06/2014  15:25:00     -119.475      372.399      -64.633      163.888      143.093       61.401    26859.265    20475.715     3770.029       10.411        2.555      391.095       64.988        0.028      339.578       13.004      854.545
05/06/2014  15:26:00      -79.815      281.731      -41.428      102.959      113.124       50.836    10600.656    12796.962     2584.302        5.672        1.299      292.819       53.439        0.033      339.703       13.215      854.509
05/06/2014  15:27:00       36.264      487.864      -51.896       99.616      166.885       77.442     9923.346    27850.672     5997.250       14.289        2.189      489.210       85.145        0.030      339.733       13.265      854.544
05/06/2014  15:28:00      -42.912      503.303      -56.997      155.000      235.959       99.040    24024.856    55676.515     9808.908       17.394        4.476      505.129      123.360        0.060      339.674       13.166      854.537
05/06/2014  15:29:00      -63.042      448.513      -36.566      123.641      188.360       92.760    15287.094    35479.522     8604.462       13.291        2.969      452.921      113.705        0.063      339.579       13.006      854.558
05/06/2014  15:30:00      -49.744      314.720      -27.379      106.561      204.778       78.663    11355.268    41934.123     6187.807        8.086        2.974      318.627       97.049        0.093      339.603       13.046      854.544
05/06/2014  15:31:00       46.790      274.279      -32.665      116.306      178.279       90.709    13527.021    31783.371     8228.189        6.600        2.677      278.241      103.887        0.139      339.639       13.107      854.509
05/06/2014  15:32:00       43.049      259.381      -21.169      107.932      123.241       59.402    11649.402    15188.428     3528.629        4.997        1.518      262.929       58.130        0.049      339.668       13.155      854.494
05/06/2014  15:33:00      -11.130      261.621      -25.395       84.447      179.259       60.501     7131.275    32133.856     3660.406        5.606        2.146      261.858       87.288        0.111      339.664       13.151      854.505
05/06/2014  15:34:00      109.457      310.620      -24.244      133.178      260.262      114.677    17736.438    67736.067    13150.750       10.382        4.931      329.341      132.022        0.161      339.604       13.049      854.518
05/06/2014  15:35:00       37.399      251.207      -17.403      133.035      146.114       89.530    17698.371    21349.262     8015.555        5.593        2.353      253.975       93.468        0.135      339.698       13.206      854.538
05/06/2014  15:36:00      -50.680      366.372      -32.026      109.450      206.369       88.040    11979.256    42587.970     7751.046       10.006        3.116      369.861       96.320        0.068      339.699       13.208      854.596
05/06/2014  15:37:00     -160.468      358.414      -29.665      119.203      197.833       89.889    14209.262    39137.769     8080.089       10.825        3.071      392.697       92.827        0.056      339.587       13.020      854.625
05/06/2014  15:38:00     -179.206      244.564      -45.046       84.188      151.102       61.877     7087.568    22831.942     3828.772        6.385        1.687      303.193       38.283        0.016      339.647       13.120      854.617
05/06/2014  15:39:00     -171.498      300.506      -28.421       88.081      140.896       77.147     7758.267    19851.759     5951.677        7.704        1.678      346.000       63.047        0.033      339.655       13.133      854.638
05/06/2014  15:40:00     -199.143      246.233      -56.278      107.248      130.170       65.062    11502.078    16944.103     4233.045        6.806        1.634      316.683       79.257        0.063      339.570       12.991      854.614
05/06/2014  15:41:00      -56.958      342.666      -31.061      106.307      198.901       67.817    11301.161    39561.693     4599.174        8.853        2.773      347.368       86.517        0.062      339.772       13.332      854.606
05/06/2014  15:42:00     -182.500      204.703      -42.063       90.462      105.049       57.941     8183.387    11035.203     3357.125        4.977        1.129      274.244       55.731        0.041      339.830       13.429      854.600
05/06/2014  15:43:00      -19.169      178.736        3.026      105.133      117.385       80.604    11052.860    13779.295     6496.937        3.182        1.566      179.761       75.432        0.176      340.074       13.843      854.595
05/06/2014  15:44:00      -80.931      475.865      -54.171       96.590      193.183       67.832     9329.690    37319.733     4601.186       14.358        2.563      482.698       80.410        0.028      339.819       13.411      854.579
05/06/2014  15:45:00      -20.003      603.698      -63.385      111.951      146.673       71.001    12533.036    21512.834     5041.121       20.397        1.954      604.029       72.629        0.014      339.507       12.884      854.624
05/06/2014  15:46:00     -166.948      168.470      -34.230      181.343      176.943       86.932    32885.327    31308.905     7557.121        6.457        3.588      237.179       88.159        0.138      339.821       13.413      854.571
05/06/2014  15:47:00     -148.513      191.174      -10.901      107.410      137.876       71.790    11537.001    19009.685     5153.805        4.720        1.785      242.082       67.138        0.077      339.811       13.397      854.605
05/06/2014  15:48:00      -46.824      276.481      -11.978       80.947      128.424       68.207     6552.355    16492.823     4652.160        5.323        1.385      280.418       65.802        0.055      339.864       13.486      854.594
05/06/2014  15:49:00      -64.976      211.673       -3.063       83.394      179.967       65.496     6954.633    32388.146     4289.702        4.633        2.182      221.422       62.351        0.079      339.925       13.588      854.553
05/06/2014  15:50:00      -58.679      223.974       -8.730      112.214      130.499       70.085    12591.913    17030.072     4911.947        4.410        1.727      231.534       55.937        0.058      340.030       13.766      854.564
05/06/2014  15:51:00     -163.646      192.434      -22.664      106.270      149.373       63.495    11293.284    22312.374     4031.631        5.097        1.882      252.608       59.155        0.055      340.051       13.801      854.586
05/06/2014  15:52:00     -116.215      158.972       -0.159      112.887      107.767       62.971    12743.465    11613.651     3965.303        3.354        1.416      196.921       54.497        0.077      340.030       13.766      854.608
05/06/2014  15:53:00      -72.817      298.688      -28.689       74.795      125.174       48.389     5594.277    15668.580     2341.477        5.947        1.180      307.435       51.716        0.028      339.825       13.421      854.572
05/06/2014  15:54:00      -99.319      272.316      -31.085      105.971      124.904       55.578    11229.830    15601.019     3088.969        5.745        1.496      289.862       57.014        0.039      339.896       13.540      854.584
05/06/2014  15:55:00      -94.380      340.912      -21.303       95.826      165.366       58.892     9182.684    27345.756     3468.281        8.278        2.000      353.735       59.901        0.029      339.882       13.516      854.577
05/06/2014  15:56:00     -216.108      178.740      -20.637      144.034      201.589       94.581    20745.714    40638.296     8945.649        7.469        3.516      280.447      115.506        0.170      339.815       13.404      854.555
05/06/2014  15:57:00     -141.558      147.013      -15.263      136.720      118.674       60.200    18692.350    14083.592     3624.014        3.913        1.820      204.087       56.886        0.078      339.946       13.625      854.609
05/06/2014  15:58:00     -171.130       65.352      -32.977      114.444      136.332       59.425    13097.361    18586.295     3531.347        3.492        1.761      183.184       34.793        0.036      339.935       13.606      854.618
05/06/2014  15:59:00     -214.096       26.178      -25.013      119.757       99.041       71.035    14341.822     9809.108     5045.932        3.817        1.460      215.690       63.556        0.087      339.779       13.342      854.603
05/06/2014  16:00:00     -105.763      222.454      -28.645      128.139      123.920       56.740    16419.625    15356.121     3219.374        4.824        1.750      246.316       54.262        0.049      339.859       13.478      854.661
05/06/2014  16:01:00     -135.470      190.704      -21.889       97.626      155.370       79.651     9530.834    24139.853     6344.355        4.760        2.001      233.923       75.627        0.105      339.790       13.362      854.658
05/06/2014  16:02:00     -196.184      237.102      -32.883      143.070      175.130       68.753    20469.104    30670.474     4727.007        7.582        2.793      307.743       61.161        0.039      339.792       13.366      854.646
05/06/2014  16:03:00      -99.100      127.757      -18.824       97.574      105.564       55.593     9520.717    11143.766     3090.593        2.512        1.188      161.687       56.055        0.120      340.061       13.820      854.655
05/06/2014  16:04:00     -120.399      345.673      -26.453      116.405      136.349       81.829    13550.149    18591.121     6696.047        8.675        1.942      366.040       80.111        0.048      339.876       13.507      854.649
05/06/2014  16:05:00     -123.901      371.317      -31.678      157.024      187.905      108.529    24656.532    35308.276    11778.543       11.297        3.587      391.443      109.784        0.079      339.842       13.448      854.681
05/06/2014  16:06:00      -92.697      365.124      -39.280      129.236      139.050       54.692    16701.842    19334.868     2991.206        9.123        1.951      376.707       51.350        0.019      339.700       13.209      854.669
05/06/2014  16:07:00     -235.406      201.031      -39.211      198.081      145.800       88.418    39236.197    21257.520     7817.830        8.283        3.416      309.563       98.542        0.101      339.762       13.315      854.668
05/06/2014  16:08:00     -257.737      298.322      -44.246      146.521      185.005      101.089    21468.368    34226.848    10219.026       11.163        3.296      394.239      104.296        0.070      339.814       13.403      854.662
05/06/2014  16:09:00      -97.288       22.922       -8.556       99.227       95.800       69.558     9845.970     9177.628     4838.284        1.696        1.193       99.952       48.403        0.235      340.053       13.808      854.618
05/06/2014  16:10:00     -151.481      -42.535       -6.472       94.671       97.055       52.185     8962.619     9419.618     2723.247        2.295        1.055      157.339       28.845        0.034      340.041       13.788      854.572
05/06/2014  16:11:00     -121.664      105.237       17.316      160.456      169.494       62.772    25746.189    28728.129     3940.278        4.228        2.921      160.863       63.714        0.157      339.852       13.467      854.580
05/06/2014  16:12:00     -128.074      334.802      -31.634      119.534      139.635       71.393    14288.326    19497.858     5096.965        8.418        1.944      358.463       59.686        0.028      340.004       13.723      854.600
05/06/2014  16:13:00     -154.293      120.047      -21.462      103.554      118.293       52.329    10723.423    13993.139     2738.340        3.306        1.373      195.494       64.247        0.108      340.273       14.177      854.591
05/06/2014  16:14:00     -169.419      157.968      -30.952      108.967      182.373       62.486    11873.872    33259.844     3904.532        5.182        2.452      231.639       70.997        0.094      340.395       14.383      854.578
05/06/2014  16:15:00     -205.543      237.347      -33.036      157.654      246.986       95.630    24854.773    61002.046     9145.150        9.732        4.750      313.977      123.352        0.154      340.187       14.033      854.632
05/06/2014  16:16:00     -117.240      462.076      -51.455      149.183      215.503       74.003    22255.529    46441.541     5476.501       15.203        3.709      476.717       83.291        0.031      339.982       13.686      854.667
05/06/2014  16:17:00     -145.261      407.206      -48.405      106.129      150.011       63.749    11263.327    22503.199     4063.977       11.354        1.892      432.340       69.692        0.026      340.012       13.735      854.656
05/06/2014  16:18:00     -119.130      252.632      -42.552       84.290      118.762       47.239     7104.779    14104.389     2231.487        5.163        1.172      279.311       35.953        0.017      340.117       13.915      854.623
05/06/2014  16:19:00     -198.769      319.704      -44.244      170.258      150.003       78.615    28987.938    22500.898     6180.331       10.066        2.883      376.457       86.317        0.053      340.125       13.926      854.661
05/06/2014  16:20:00     -214.317      273.317      -48.611      146.372      139.134       81.610    21424.760    19358.156     6660.247        8.521        2.372      347.324       81.085        0.055      340.098       13.881      854.653
05/06/2014  16:21:00     -163.377      302.420      -48.231      114.832      127.052       58.157    13186.307    16142.087     3382.199        7.659        1.636      343.729       70.673        0.042      339.827       13.425      854.633
05/06/2014  16:22:00     -192.879      244.244      -31.096      171.159      147.052       98.656    29295.563    21624.209     9732.997        7.923        3.033      311.219       97.253        0.098      340.088       13.863      854.609
05/06/2014  16:23:00     -141.420      295.277      -38.905       97.399      106.863       59.005     9486.475    11419.745     3481.610        6.654        1.219      327.396       50.219        0.024      339.990       13.699      854.614
05/06/2014  16:24:00     -280.722      367.617      -75.409      178.860      169.547       83.488    31991.062    28746.167     6970.319       14.366        3.385      462.544       97.580        0.045      339.953       13.636      854.584
05/06/2014  16:25:00     -185.241      351.929      -57.928      136.489      166.066       53.261    18629.357    27577.784     2836.710       10.527        2.452      397.704       44.910        0.013      339.757       13.306      854.557
05/06/2014  16:26:00     -207.033       84.354      -35.316      114.316       84.783       66.700    13068.075     7188.151     4448.907        3.796        1.235      223.558       65.269        0.085      339.974       13.672      854.550
05/06/2014  16:27:00     -152.254      -23.988       -6.579      108.856       86.231       51.590    11849.615     7435.704     2661.555        2.287        1.097      154.132       53.902        0.122      340.012       13.738      854.543
05/06/2014  16:28:00     -152.381        3.103       -1.047      108.219      107.829       68.111    11711.315    11627.057     4639.072        2.560        1.399      152.413       60.007        0.155      340.212       14.074      854.543
05/06/2014  16:29:00     -186.117       11.403       -8.200      133.993      107.787       59.654    17954.047    11618.100     3558.581        3.398        1.657      186.466       67.744        0.132      340.353       14.312      854.493
05/06/2014  16:30:00     -283.595       50.633      -38.319      165.028      128.288       71.643    27234.234    16457.687     5132.790        6.663        2.441      288.080       81.183        0.079      340.151       13.969      854.507
05/06/2014  16:31:00     -128.218      247.443      -19.561       94.237      172.982       66.625     8880.552    29922.862     4438.945        6.064        2.162      278.689       70.842        0.065      340.247       14.134      854.497
05/06/2014  16:32:00     -163.381      225.870      -14.016       94.905      134.613       75.537     9007.003    18120.757     5705.777        5.536        1.642      278.766       75.317        0.073      340.423       14.430      854.487
05/06/2014  16:33:00     -171.272      295.606      -14.473      110.754      217.083       81.701    12266.522    47124.949     6675.081        9.148        3.303      341.639       77.359        0.051      340.329       14.271      854.485
05/06/2014  16:34:00     -149.720      123.411        2.597      124.422      116.280       76.190    15480.793    13521.110     5804.934        3.622        1.740      194.026       76.060        0.154      340.397       14.386      854.489
05/06/2014  16:35:00     -207.865      197.469      -41.897       64.315      120.877       50.020     4136.419    14611.333     2501.960        5.260        1.062      286.709       45.257        0.025      339.953       13.637      854.462
05/06/2014  16:36:00     -102.277       58.944       -9.397       75.840      100.791       51.168     5751.668    10158.886     2618.212        1.627        0.926      118.047       42.880        0.132      340.546       14.641      854.432
05/06/2014  16:37:00      -91.444       30.431      -14.986      104.249      108.058       76.955    10867.794    11676.628     5922.086        1.898        1.423       96.374       61.188        0.403      340.553       14.652      854.408
05/06/2014  16:38:00     -203.943      126.304      -39.293      115.944      156.808       71.836    13443.100    24588.671     5160.436        5.113        2.160      239.886       64.364        0.072      340.602       14.733      854.468
05/06/2014  16:39:00     -302.730      259.674      -39.552      197.673      182.693      103.653    39074.776    33376.891    10743.958       12.190        4.160      398.843       95.548        0.057      340.192       14.040      854.535
05/06/2014  16:40:00     -242.824      240.578      -34.480      181.422      183.202      102.843    32913.797    33563.110    10576.645        9.753        3.853      341.820      118.235        0.120      340.330       14.274      854.525
05/06/2014  16:41:00     -251.013      395.073      -75.223      167.934      228.867       87.765    28201.703    52379.968     7702.642       15.650        4.414      468.070       80.349        0.029      339.915       13.572      854.536
05/06/2014  16:42:00     -274.606      101.966      -19.114      197.997      169.485       80.661    39202.749    28725.173     6506.132        8.029        3.722      292.926       92.639        0.100      340.191       14.039      854.524
05/06/2014  16:43:00     -274.523       61.084      -33.899      135.756      179.999       74.853    18429.672    32399.499     5603.046        6.833        2.822      281.237       62.653        0.050      340.284       14.194      854.508
05/06/2014  16:44:00     -242.569      260.102      -64.441      177.873      187.984       84.164    31638.856    35337.886     7083.602       10.234        3.703      355.658       79.854        0.050      340.095       13.876      854.557
05/06/2014  16:45:00     -189.096      173.407      -29.155      150.156       95.371       73.428    22546.856     9095.721     5391.668        5.185        1.852      256.568       69.201        0.073      340.157       13.981      854.555
05/06/2014  16:46:00     -182.544      119.858       -7.493      200.252      135.566      110.212    40100.919    18378.269    12146.696        5.917        3.531      218.377      106.531        0.238      340.150       13.970      854.542
05/06/2014  16:47:00     -250.724      219.652      -39.599      148.638      148.107       90.748    22093.378    21935.748     8235.148        8.246        2.613      333.331       93.513        0.079      340.033       13.772      854.577
05/06/2014  16:48:00     -173.819      120.642      -22.416      121.893       93.246       62.691    14858.017     8694.820     3930.158        3.637        1.374      211.583       60.576        0.082      340.115       13.910      854.562
05/06/2014  16:49:00     -159.793      141.523      -31.420      120.967       93.991       65.004    14633.017     8834.363     4225.584        3.712        1.385      213.454       60.204        0.080      340.090       13.867      854.567
05/06/2014  16:50:00     -228.106      143.033      -37.890      127.152      157.388       70.600    16167.638    24771.020     4984.310        5.992        2.296      269.241       53.500        0.039      339.888       13.528      854.575
05/06/2014  16:51:00     -244.518      217.782      -40.642      147.270      147.583       68.986    21688.340    21780.676     4759.057        7.854        2.411      327.442       70.246        0.046      339.826       13.421      854.563
05/06/2014  16:52:00     -111.720       79.352        2.142       80.643      119.581       68.321     6503.255    14299.618     4667.805        2.212        1.274      137.033       57.650        0.177      340.054       13.808      854.556
05/06/2014  16:53:00     -149.315       75.519      -11.981      157.210      156.657       87.155    24715.082    24541.314     7595.939        4.249        2.843      167.326       88.740        0.281      340.009       13.731      854.538
05/06/2014  16:54:00     -153.025      230.846      -17.609      139.867      133.428       76.863    19562.782    17802.954     5907.892        6.014        2.164      276.960       80.190        0.084      340.033       13.771      854.511
05/06/2014  16:55:00     -271.243      304.323      -51.320      135.953      184.136       86.234    18483.229    33905.982     7436.346       11.431        2.991      407.658       98.350        0.058      339.830       13.430      854.538
05/06/2014  16:56:00     -178.460      188.574      -21.691      150.270      146.900       67.988    22581.107    21579.688     4622.354        5.832        2.439      259.631       71.057        0.075      339.972       13.668      854.512
05/06/2014  16:57:00     -149.204       93.257      -22.713       95.769       86.910       60.352     9171.774     7553.314     3642.354        2.592        1.018      175.951       53.390        0.092      340.040       13.784      854.492
05/06/2014  16:58:00     -266.209      223.597      -41.606      118.342      212.367       79.808    14004.907    45099.589     6369.308        9.402        3.274      347.654       85.397        0.060      339.984       13.688      854.528
05/06/2014  16:59:00     -121.916      151.110      -27.888       79.983      115.374       67.089     6397.358    13311.148     4500.980        3.134        1.210      194.159       45.084        0.054      340.019       13.748      854.527
05/06/2014  17:00:00     -148.826      102.606        0.524      142.883      101.319       80.161    20415.665    10265.500     6425.753        3.488        1.855      180.768       75.804        0.176      340.000       13.718      854.534
05/06/2014  17:01:00     -173.964      241.442      -27.006      142.808      199.409       94.427    20394.103    39764.033     8916.495        7.917        3.454      297.586       77.988        0.069      339.874       13.503      854.537
05/06/2014  17:02:00     -200.608      411.693      -37.753      115.319      142.687       74.809    13298.436    20359.707     5596.397       12.520        1.963      457.969       76.711        0.028      339.815       13.404      854.552
05/06/2014  17:03:00      -82.664      230.007      -21.963       81.677      120.085       63.691     6671.152    14420.368     4056.582        4.268        1.257      244.411       55.114        0.051      339.875       13.505      854.522
05/06/2014  17:04:00     -143.776       66.668       -3.793      107.858      128.114       69.507    11633.318    16413.099     4831.188        2.900        1.644      158.481       41.495        0.069      340.007       13.729      854.510
05/06/2014  17:05:00     -253.808      203.656      -44.174      177.834      179.925       86.055    31624.898    32373.174     7405.398        8.961        3.570      325.414       79.940        0.060      339.964       13.654      854.511
05/06/2014  17:06:00     -307.668      202.824      -47.785      177.682      134.234       76.815    31571.052    18018.710     5900.564        9.677        2.775      368.507       77.101        0.044      339.858       13.478      854.577
05/06/2014  17:07:00     -179.983      183.856      -33.470      111.544      179.604       75.161    12442.171    32257.492     5649.159        5.882        2.517      257.287       75.826        0.087      339.898       13.544      854.540
05/06/2014  17:08:00     -140.731      221.064      -22.808      108.815      129.900       67.216    11840.801    16873.978     4518.022        5.121        1.662      262.058       67.677        0.067      340.040       13.783      854.520
05/06/2014  17:09:00     -247.962      231.192      -38.755      140.238      146.631       83.383    19666.816    21500.691     6952.752        8.227        2.406      339.020       77.264        0.052      339.992       13.702      854.536
05/06/2014  17:10:00     -272.407      251.302      -59.510      121.623      182.768       77.737    14792.230    33403.963     6042.971        9.756        2.712      370.619       66.051        0.032      340.043       13.789      854.531
05/06/2014  17:11:00     -217.912      312.543      -43.669      110.221      169.443       69.467    12148.722    28710.829     4825.614        9.637        2.284      381.010       76.841        0.041      340.056       13.811      854.522
05/06/2014  17:12:00     -119.888      195.222      -16.818       98.027      111.629       69.501     9609.242    12461.022     4830.388        3.983        1.345      229.096       62.033        0.073      340.217       14.081      854.501
05/06/2014  17:13:00     -108.925      198.838      -23.650       61.422      112.001       54.720     3772.703    12544.298     2994.256        3.563        0.966      226.719       45.787        0.041      340.278       14.187      854.525
05/06/2014  17:14:00     -143.665      372.306      -49.012       81.693      121.042       53.625     6673.736    14651.056     2875.587        9.292        1.210      399.064       60.508        0.023      339.832       13.432      854.525
05/06/2014  17:15:00     -102.883      403.489      -39.010       98.376      166.316       64.772     9677.913    27661.121     4195.438       10.821        2.077      416.400       69.705        0.028      339.858       13.476      854.515
05/06/2014  17:16:00     -194.858      319.915      -53.198      124.131      164.739       66.305    15408.586    27139.088     4396.392        9.504        2.347      374.587       71.834        0.037      339.971       13.667      854.527
05/06/2014  17:17:00      -94.316      366.024      -41.091       99.050      188.015       76.346     9810.873    35349.465     5828.696        9.776        2.549      377.981       88.342        0.055      339.875       13.505      854.527
05/06/2014  17:18:00     -222.220      294.095      -68.007      137.266      120.291       72.940    18841.834    14469.972     5320.284        8.956        1.932      368.611       69.832        0.036      339.944       13.622      854.549
05/06/2014  17:19:00      -60.924      463.590      -59.390       93.819      178.266       63.929     8801.950    31778.902     4086.969       13.340        2.233      467.576       67.086        0.021      339.720       13.243      854.555
05/06/2014  17:20:00      -45.855      408.205      -55.795       99.272      117.859       54.947     9854.911    13890.755     3019.128        9.930        1.338      410.772       65.937        0.026      339.684       13.181      854.532
05/06/2014  17:21:00     -164.234      279.796      -41.075      125.678      109.492       65.715    15794.970    11988.520     4318.515        6.952        1.605      324.436       59.150        0.033      339.807       13.391      854.559
05/06/2014  17:22:00      -60.503      235.145      -21.622       93.141      129.076       55.676     8675.185    16660.630     3099.771        4.392        1.422      242.804       34.788        0.021      339.817       13.409      854.522
05/06/2014  17:23:00     -135.582      231.286      -42.014      101.643      119.817       54.349    10331.296    14356.094     2953.773        5.064        1.382      268.096       53.871        0.040      339.869       13.494      854.548
05/06/2014  17:24:00     -245.404      382.778      -58.855      115.120      149.982       80.270    13252.719    22494.745     6443.250       12.619        2.110      454.689       75.416        0.028      339.875       13.504      854.555
05/06/2014  17:25:00     -106.252      168.736      -20.288      100.023      184.608       56.887    10004.545    34080.215     3236.089        4.374        2.366      199.402       59.499        0.089      340.012       13.738      854.551
05/06/2014  17:26:00     -141.490       86.531      -17.328      101.909      101.293       44.624    10385.361    10260.187     1991.294        2.522        1.132      165.852       42.980        0.067      340.024       13.757      854.534
05/06/2014  17:27:00     -160.199      161.987      -17.832       81.067      103.158       66.140     6571.832    10641.476     4374.523        3.690        1.079      227.824       51.376        0.051      339.938       13.612      854.536
05/06/2014  17:28:00     -161.300      149.317      -20.873       87.796      152.464       64.532     7708.055    23245.218     4164.442        4.193        1.756      219.802       51.799        0.056      339.915       13.572      854.518
05/06/2014  17:29:00     -154.038      175.186      -25.970       96.588      154.702       69.766     9329.187    23932.829     4867.289        4.660        1.906      233.276       68.039        0.085      339.926       13.592      854.517
05/06/2014  17:30:00     -136.832      165.943      -15.764       92.561      100.338       62.944     8567.537    10067.756     3961.921        3.455        1.130      215.082       50.522        0.055      339.953       13.637      854.529
05/06/2014  17:31:00     -217.730      156.156      -27.531      136.365       99.811       67.036    18595.487     9962.327     4493.850        5.279        1.653      267.939       72.243        0.073      339.862       13.483      854.515
05/06/2014  17:32:00     -167.313      190.515      -16.625      111.414      114.027       61.726    12413.145    13002.095     3810.136        4.689        1.461      253.554       63.315        0.062      339.945       13.623      854.511
05/06/2014  17:33:00     -197.085      234.844      -53.513      126.109      112.901       65.741    15903.523    12746.581     4321.898        6.491        1.649      306.585       69.298        0.051      339.995       13.706      854.545
05/06/2014  17:34:00     -348.100      308.368      -58.873      140.817      188.087       91.793    19829.436    35376.796     8425.953       14.167        3.182      465.043       87.053        0.035      340.005       13.723      854.524
05/06/2014  17:35:00     -218.237      143.106       -3.783      135.759      141.512       79.969    18430.395    20025.720     6395.001        5.648        2.243      260.972       62.070        0.057      340.134       13.940      854.542
05/06/2014  17:36:00     -215.507      363.685      -44.828      114.008      161.743       84.699    12997.771    26160.696     7173.957       11.352        2.317      422.741       75.638        0.032      340.009       13.729      854.547
05/06/2014  17:37:00     -192.207      331.546      -39.948      123.565      140.422       75.914    15268.400    19718.205     5762.877        9.460        2.037      383.231       55.278        0.021      339.948       13.627      854.552
05/06/2014  17:38:00     -193.038      224.631      -31.055      106.455      134.334       61.272    11332.731    18045.514     3754.247        6.090        1.657      296.180       59.565        0.040      340.064       13.825      854.560
05/06/2014  17:39:00     -179.518      301.185      -76.962      149.784       96.500       54.301    22435.366     9312.325     2948.647        8.177        1.735      350.627       63.404        0.033      339.899       13.543      854.554
05/06/2014  17:40:00      -64.313      235.166      -33.583       68.220      103.395       44.773     4654.034    10690.450     2004.658        3.895        0.867      243.802       49.052        0.040      339.983       13.687      854.551
05/06/2014  17:41:00      -93.247      246.566      -28.549       60.078       74.182       43.445     3609.364     5502.913     1887.487        4.065        0.550      263.609       37.154        0.020      339.910       13.564      854.547
05/06/2014  17:42:00      -88.281      143.950       -9.882       76.577       90.752       43.463     5864.024     8235.852     1889.000        2.230        0.799      168.865       45.525        0.073      340.011       13.734      854.542
05/06/2014  17:43:00     -210.184      216.799      -34.547      131.803      119.992       70.519    17371.918    14398.187     4972.929        6.455        1.837      301.959       76.509        0.064      339.949       13.629      854.547
05/06/2014  17:44:00     -172.096      181.577      -29.419      107.667      120.659       69.304    11592.211    14558.557     4803.093        4.720        1.548      250.174       72.042        0.083      339.912       13.567      854.539
05/06/2014  17:45:00     -176.446      135.575      -26.125      105.961       99.128       68.779    11227.751     9826.316     4730.592        3.799        1.289      222.517       56.676        0.065      339.979       13.682      854.537
05/06/2014  17:46:00     -309.257       50.053      -39.303      164.778      150.729       74.809    27151.796    22719.140     5596.378        7.757        2.773      313.281       72.104        0.053      339.909       13.562      854.534
05/06/2014  17:47:00     -104.773      103.809        3.044      101.660      167.009       65.836    10334.722    27891.866     4334.409        3.215        2.128      147.491       55.638        0.142      340.015       13.742      854.542
05/06/2014  17:48:00     -126.099      242.460      -23.650       81.201       98.853       55.724     6593.674     9771.973     3105.204        4.736        0.974      273.291       48.527        0.032      340.087       13.863      854.567
05/06/2014  17:49:00     -243.262      133.795      -19.352      109.701       79.543       61.658    12034.363     6327.032     3801.740        4.980        1.108      277.628       43.046        0.024      339.992       13.701      854.549
05/06/2014  17:50:00     -314.470      286.210      -52.524      182.950      156.501       91.214    33470.663    24492.474     8319.922       12.491        3.314      425.214       88.311        0.043      339.933       13.603      854.546
05/06/2014  17:51:00     -222.232      211.791      -40.481      138.976       94.582       67.319    19314.291     8945.779     4531.851        6.433        1.640      306.989       69.984        0.052      339.931       13.601      854.548
05/06/2014  17:52:00     -214.811      263.022      -38.107       98.928      167.173       69.447     9786.699    27946.800     4822.864        7.966        2.128      339.595       67.588        0.040      339.953       13.637      854.535
05/06/2014  17:53:00     -130.506      104.488       -5.193       82.258      113.872       54.774     6766.439    12966.912     3000.226        2.535        1.137      167.181       53.993        0.104      340.180       14.021      854.532
05/06/2014  17:54:00     -142.299      192.050      -23.138       99.891      150.869       68.464     9978.228    22761.515     4687.327        4.754        1.871      239.024       65.736        0.076      340.160       13.987      854.535
05/06/2014  17:55:00     -229.905       24.266      -10.836      171.303      169.508       81.773    29344.562    28732.854     6686.886        5.915        3.238      231.182       62.999        0.074      340.214       14.077      854.529
05/06/2014  17:56:00     -310.499        0.882      -38.971      183.261      206.743       93.760    33584.540    42742.550     8790.907        9.151        4.256      310.500       83.600        0.072      340.205       14.062      854.518
05/06/2014  17:57:00     -201.073      206.517      -27.313      190.320      206.766      104.526    36221.631    42752.356    10925.713        8.684        4.495      288.235       98.698        0.117      340.189       14.035      854.552
05/06/2014  17:58:00     -266.159      415.987      -72.732      144.583      218.514       83.417    20904.222    47748.470     6958.467       16.238        3.781      493.848       79.749        0.026      340.055       13.808      854.623
05/06/2014  17:59:00     -111.897      341.751      -42.071      108.999      284.475       66.645    11880.860    80926.244     4441.584       11.415        4.862      359.603       85.108        0.056      340.053       13.805      854.623
05/06/2014  18:00:00     -222.588      499.661      -69.118      142.863      224.363       89.664    20409.954    50338.666     8039.708       19.137        3.939      546.997      100.490        0.034      339.963       13.653      854.654
05/06/2014  18:01:00     -178.090      630.832      -74.301      154.052      197.699       88.865    23731.999    39084.902     7896.956       25.294        3.536      655.488       92.813        0.020      339.743       13.282      854.665
05/06/2014  18:02:00     -163.497      480.782      -61.912      123.851      142.301       76.259    15338.973    20249.468     5815.434       15.155        2.070      507.822       57.188        0.013      339.786       13.355      854.649
05/06/2014  18:03:00     -125.275      451.742      -57.602       98.847      141.650       61.693     9770.698    20064.630     3806.082       12.836        1.682      468.791       53.859        0.013      339.898       13.544      854.617
05/06/2014  18:04:00     -178.998      399.309      -47.094       82.678      113.785       69.054     6835.650    12947.022     4768.441       10.912        1.228      437.593       60.434        0.019      340.038       13.779      854.625
05/06/2014  18:05:00     -173.348      318.658      -54.305      121.675      149.929       80.661    14804.727    22478.801     6506.135        8.916        2.189      362.756       77.855        0.046      340.068       13.829      854.646
05/06/2014  18:06:00     -143.099      428.501      -46.339      124.550      167.785       73.546    15512.824    28151.878     5408.968       12.765        2.454      451.764       79.243        0.031      339.958       13.644      854.608
05/06/2014  18:07:00     -163.371      241.654      -32.284       99.644      121.254       71.073     9928.939    14702.569     5051.411        5.790        1.484      291.697       65.486        0.050      340.133       13.940      854.603
05/06/2014  18:08:00     -212.937      311.069      -61.873      122.634      164.163       67.865    15039.134    26949.475     4605.718        9.626        2.330      376.970       64.109        0.029      340.006       13.725      854.595
05/06/2014  18:09:00     -164.171      148.174      -31.488      120.064       98.605       52.031    14415.337     9722.882     2707.219        3.837        1.342      221.151       51.467        0.054      340.169       14.000      854.582
05/06/2014  18:10:00     -144.800       93.720      -37.263      143.409       96.742       53.044    20566.099     9358.950     2813.615        3.193        1.637      172.483       65.103        0.142      340.135       13.946      854.578
05/06/2014  18:11:00     -213.786      200.766      -45.845      126.251      113.769       74.976    15939.191    12943.385     5621.468        6.130        1.725      293.277       78.784        0.072      340.052       13.801      854.574
05/06/2014  18:12:00     -231.659       13.949      -19.751      162.285      118.005       67.532    26336.454    13925.191     4560.545        4.953        2.241      232.078       54.280        0.055      340.098       13.882      854.550
05/06/2014  18:13:00     -250.683       43.627      -39.005      143.109      108.468       63.213    20480.193    11765.294     3995.942        5.125        1.812      254.451       49.253        0.037      340.085       13.858      854.554
05/06/2014  18:14:00     -283.864       67.505      -24.797      183.600      135.340       81.596    33708.868    18316.991     6657.838        7.221        2.934      291.780       98.952        0.115      340.061       13.819      854.544
05/06/2014  18:15:00     -220.340      109.558      -34.039      104.015      137.743       67.450    10819.087    18973.254     4549.468        4.802        1.717      246.074       59.033        0.058      340.086       13.860      854.563
05/06/2014  18:16:00     -194.747      176.800      -25.235      169.903      138.655       85.582    28867.144    19225.207     7324.325        6.261        2.771      263.030       93.317        0.126      339.992       13.702      854.589
05/06/2014  18:17:00     -227.227       87.299      -22.152      117.650       79.337       60.700    13841.574     6294.332     3684.474        4.178        1.191      243.420       33.545        0.019      340.052       13.803      854.563
05/06/2014  18:18:00      -93.766       12.787      -13.066      108.304      109.533       56.540    11729.850    11997.441     3196.755        1.802        1.346       94.634       50.391        0.284      340.206       14.066      854.515
05/06/2014  18:19:00     -146.712       74.037      -24.814      135.630      143.605       78.227    18395.576    20622.275     6119.473        3.637        2.257      164.335       80.334        0.239      340.242       14.126      854.518
05/06/2014  18:20:00     -262.737      332.388      -60.315      134.973      160.327       83.728    18217.654    25704.799     7010.446       11.703        2.547      423.689       88.760        0.044      339.970       13.664      854.569
05/06/2014  18:21:00     -220.043      315.944      -45.249      140.790      228.454       81.019    19821.873    52191.210     6564.016       11.442        3.929      385.019       90.666        0.055      340.049       13.797      854.552
05/06/2014  18:22:00     -189.555      -28.316       -4.243      157.410       85.021       68.503    24777.929     7228.618     4692.670        3.672        1.835      191.658       90.952        0.225      340.113       13.907      854.521
05/06/2014  18:23:00     -178.661       -1.891        3.408      136.857      122.413       81.358    18729.732    14984.862     6619.205        3.613        2.017      178.671       74.975        0.176      340.125       13.927      854.495
05/06/2014  18:24:00     -219.842       33.693      -23.775      161.500      154.948       73.208    26082.330    24008.958     5359.463        5.273        2.773      222.409       76.625        0.119      340.042       13.787      854.493
05/06/2014  18:25:00     -103.935      133.190      -15.815       99.699      116.062       66.347     9939.850    13470.332     4401.938        2.830        1.391      168.944       62.304        0.136      340.188       14.035      854.558
05/06/2014  18:26:00     -173.664      271.226      -42.689      143.911      214.199       74.555    20710.450    45881.105     5558.481        8.883        3.608      322.060       85.666        0.071      340.045       13.793      854.602
05/06/2014  18:27:00      -55.579      391.404      -44.723      123.328      216.108       77.458    15209.742    46702.580     5999.668       11.309        3.396      395.330       95.562        0.058      339.922       13.583      854.626
05/06/2014  18:28:00     -106.583      495.407      -78.119      126.672      140.134       63.053    16045.736    19637.523     3975.686       15.127        1.983      506.742       52.165        0.011      339.798       13.374      854.622
05/06/2014  18:29:00       19.801      406.871      -41.914      117.321      154.876       97.283    13764.222    23986.578     9463.998       10.744        2.361      407.352       94.493        0.054      339.830       13.428      854.614
05/06/2014  18:30:00     -117.368      465.431      -74.056      110.079      175.470       65.226    12117.435    30789.804     4254.413       14.151        2.358      480.001       76.412        0.025      339.819       13.411      854.642
05/06/2014  18:31:00     -131.988      315.206      -44.503      107.663      164.606       66.923    11591.369    27095.197     4478.663        8.095        2.158      341.724       73.425        0.046      339.923       13.584      854.647
05/06/2014  18:32:00     -215.054      227.392      -45.045      133.547      139.582       72.519    17834.707    19483.231     5259.015        7.127        2.129      312.979       79.927        0.065      340.052       13.803      854.639
05/06/2014  18:33:00     -185.588      382.343      -61.598      118.503      121.091       59.683    14042.878    14662.952     3562.009       10.834        1.613      425.005       62.422        0.022      339.809       13.394      854.640
05/06/2014  18:34:00      -83.769      404.700      -50.569      101.164      121.905       62.397    10234.212    14860.897     3893.356       10.117        1.449      413.279       54.443        0.017      339.809       13.395      854.620
05/06/2014  18:35:00      -71.323      283.909      -19.209       84.049      133.997       75.338     7064.193    17955.249     5675.774        5.837        1.535      292.731       67.723        0.054      339.930       13.597      854.598
05/06/2014  18:36:00      -63.315      403.724      -61.190       77.272       85.673       48.206     5970.987     7339.800     2323.800        9.319        0.782      408.659       35.633        0.008      339.827       13.422      854.613
05/06/2014  18:37:00      -27.332      332.060      -45.771       95.286      103.261       56.295     9079.362    10662.870     3169.139        6.800        1.146      333.183       51.527        0.024      339.836       13.439      854.575
05/06/2014  18:38:00      -95.596      202.932      -20.262       79.479      124.364       58.287     6316.987    15466.342     3397.324        3.795        1.259      224.321       60.119        0.072      340.089       13.866      854.603
05/06/2014  18:39:00      -44.821      287.945      -36.292       98.754      161.085       57.177     9752.378    25948.267     3269.178        6.260        1.948      291.413       66.534        0.052      340.000       13.716      854.616
05/06/2014  18:40:00      -93.623      492.594      -58.754      131.003      185.191       75.831    17161.854    34295.594     5750.378       15.603        2.860      501.412       86.718        0.030      339.885       13.520      854.647
05/06/2014  18:41:00     -177.259      247.561      -23.467      115.864      173.361       80.478    13424.555    30054.096     6476.787        7.160        2.498      304.479       73.336        0.058      340.006       13.725      854.673
05/06/2014  18:42:00     -264.563      346.280      -50.792      129.953      140.247       83.646    16887.899    19669.186     6996.686       11.801        2.178      435.780       83.374        0.037      339.883       13.519      854.696
05/06/2014  18:43:00     -196.284      203.184      -33.804      127.209      227.727       73.013    16182.156    51859.762     5330.894        7.715        3.669      282.509       85.013        0.091      339.919       13.578      854.682
05/06/2014  18:44:00     -196.998      164.528      -37.988      121.848      161.771       76.484    14846.832    26169.743     5849.774        5.708        2.343      256.666       96.055        0.140      339.881       13.515      854.689
05/06/2014  18:45:00     -241.748      241.414      -50.250      146.684      131.016       76.472    21516.138    17165.171     5847.898        8.188        2.226      341.647       78.657        0.053      339.811       13.400      854.713
05/06/2014  18:46:00     -251.387      231.973      -51.233      135.053      154.530       77.737    18239.409    23879.606     6043.066        8.389        2.408      342.063       83.764        0.060      339.866       13.490      854.711
05/06/2014  18:47:00     -218.325      284.447      -44.810      125.569      149.514       66.957    15767.495    22354.339     4483.249        8.659        2.130      358.575       65.188        0.033      339.789       13.359      854.705
05/06/2014  18:48:00     -139.993      191.333      -14.165      102.796       97.082       64.392    10566.937     9424.940     4146.387        4.027        1.207      237.079       64.747        0.075      339.867       13.490      854.725
05/06/2014  18:49:00     -105.760      429.457      -53.502      110.285      113.712       64.203    12162.865    12930.443     4121.971       11.384        1.461      442.288       55.714        0.016      339.705       13.219      854.722
05/06/2014  18:50:00     -127.276      393.706      -62.429      111.961      154.894       58.847    12535.208    23992.274     3462.960       10.754        2.000      413.767       53.269        0.017      339.733       13.267      854.720
05/06/2014  18:51:00      -98.468      295.588      -35.131       81.920      168.673       58.243     6710.858    28450.733     3392.237        6.842        1.928      311.558       55.307        0.032      339.764       13.318      854.752
05/06/2014  18:52:00     -118.990      192.998      -33.637       80.914      153.371       48.529     6547.126    23522.540     2355.029        4.247        1.621      226.730       46.407        0.042      339.838       13.444      854.743
05/06/2014  18:53:00     -215.875      293.536      -63.255      115.377      153.808       72.106    13311.847    23656.751     5199.297        8.946        2.108      364.370       67.000        0.034      339.755       13.301      854.766
05/06/2014  18:54:00     -241.418      248.948      -51.978      119.544      107.019       60.110    14290.799    11453.087     3613.252        7.615        1.468      346.782       53.975        0.024      339.768       13.325      854.762
05/06/2014  18:55:00     -194.076      237.823      -44.797      130.960      146.706       77.743    17150.594    21522.688     6043.926        7.047        2.236      306.962       78.502        0.065      339.746       13.288      854.761
05/06/2014  18:56:00     -224.611      254.794      -33.661      121.589      140.854       72.701    14783.935    19839.910     5285.437        7.820        1.995      339.661       67.520        0.040      339.701       13.213      854.757
05/06/2014  18:57:00     -164.508      197.894      -41.115      107.601      106.059       65.993    11577.980    11248.460     4355.016        4.754        1.359      257.342       62.394        0.059      339.732       13.263      854.738
05/06/2014  18:58:00     -190.932       88.118      -18.894       96.258      158.847       62.657     9265.547    25232.390     3925.849        4.149        1.921      210.285       59.949        0.081      339.807       13.391      854.752
05/06/2014  18:59:00      -97.736      171.230      -18.053      114.675      135.369       78.659    13150.243    18324.873     6187.210        3.842        1.883      197.160       86.301        0.192      339.828       13.426      854.765
05/06/2014  19:00:00     -206.927      274.906      -35.816      121.814      169.779       80.801    14838.686    28824.949     6528.863        8.492        2.510      344.082       80.479        0.055      339.760       13.312      854.767
05/06/2014  19:01:00     -195.125      273.196      -45.906       78.651      150.473       54.989     6186.013    22642.068     3023.776        7.333        1.593      335.722       50.652        0.023      339.800       13.379      854.781
05/06/2014  19:02:00     -247.302      227.260      -46.831       83.051      130.819       73.036     6897.505    17113.520     5334.270        7.217        1.467      335.865       59.953        0.032      339.818       13.408      854.786
05/06/2014  19:03:00     -283.284      296.014      -58.692      142.381      168.369       88.437    20272.456    28348.106     7821.031       11.387        2.822      409.724       92.689        0.051      339.747       13.289      854.781
05/06/2014  19:04:00     -245.892      222.595      -45.848      142.716      145.320       74.796    20367.806    21117.824     5594.407        7.959        2.354      331.679       72.307        0.048      339.774       13.335      854.784
05/06/2014  19:05:00     -187.143       71.368      -11.729      124.940      135.807       64.783    15609.997    18443.672     4196.826        3.924        1.913      200.290       64.923        0.105      339.835       13.438      854.765
05/06/2014  19:06:00     -238.108      239.940      -39.658      155.443      194.987       87.534    24162.467    38020.074     7662.256        9.283        3.492      338.034       82.754        0.060      339.804       13.385      854.799
05/06/2014  19:07:00     -274.446      313.668      -57.827      148.827      144.318       71.661    22149.514    20827.635     5135.356       11.257        2.406      416.783       65.662        0.025      339.765       13.318      854.821
05/06/2014  19:08:00     -213.632      356.639      -54.173      123.255      144.378       88.718    15191.792    20844.931     7870.820       10.983        2.195      415.728       88.377        0.045      339.714       13.233      854.828
05/06/2014  19:09:00     -290.725      338.766      -68.840      126.358      161.158       86.149    15966.296    25971.814     7421.728       12.668        2.468      446.412       86.526        0.038      339.740       13.276      854.823
05/06/2014  19:10:00     -223.886      220.483      -37.894      141.127      111.603       67.634    19916.820    12455.322     4574.423        6.855        1.847      314.226       81.427        0.067      339.783       13.350      854.826
05/06/2014  19:11:00     -255.153      279.616      -39.880      163.880      176.951       80.196    26856.614    31311.544     6431.411       10.473        3.230      378.534       78.368        0.043      339.747       13.289      854.837
05/06/2014  19:12:00     -212.260      329.904      -52.708      128.338      125.933       85.741    16470.695    15859.133     7351.466        9.817        1.984      392.290       93.322        0.057      339.768       13.324      854.856
05/06/2014  19:13:00     -150.539      202.325      -25.455       97.540      140.969       63.765     9514.096    19872.221     4065.992        4.884        1.673      252.186       67.144        0.071      339.818       13.410      854.855
05/06/2014  19:14:00     -177.783      201.925      -36.390      129.424      128.699       54.754    16750.557    16563.528     2998.036        5.500        1.816      269.036       70.504        0.069      339.807       13.391      854.861
05/06/2014  19:15:00     -115.350      320.880      -43.126      135.041      130.109       53.866    18236.133    16928.339     2901.598        7.809        1.903      340.983       47.782        0.020      339.719       13.242      854.854
05/06/2014  19:16:00      -71.266      407.310      -55.506       73.914       96.203       40.620     5463.320     9255.031     1649.975        9.521        0.818      413.497       33.439        0.007      339.620       13.074      854.847
05/06/2014  19:17:00     -125.247      187.091      -30.691       82.697      112.062       51.334     6838.762    12557.937     2635.226        3.683        1.102      225.144       51.476        0.052      339.761       13.314      854.840
05/06/2014  19:18:00     -119.467      168.403      -27.571       74.761       86.547       44.347     5589.203     7490.352     1966.642        2.922        0.752      206.475       46.062        0.050      339.786       13.355      854.857
05/06/2014  19:19:00     -167.663       62.576      -29.946       57.308       97.011       36.963     3284.156     9411.107     1366.278        2.349        0.703      178.960       28.129        0.025      339.886       13.524      854.856
05/06/2014  19:20:00      -62.634       44.684       -3.399      125.335       94.662       49.509    15708.960     8960.800     2451.178        1.652        1.356       76.939       39.677        0.266      339.802       13.384      854.810
05/06/2014  19:21:00     -129.963      112.327       -9.644       86.744      136.093       53.703     7524.548    18521.353     2884.011        2.926        1.446      171.778       58.242        0.115      339.795       13.373      854.872
05/06/2014  19:22:00      -56.715      154.828      -17.012       93.623       78.477       41.915     8765.304     6158.658     1756.853        2.208        0.834      164.889       35.669        0.047      339.787       13.359      854.898
05/06/2014  19:23:00      -96.291      220.849      -34.726       93.846      156.088       53.346     8807.086    24363.350     2845.840        4.763        1.801      240.928       53.236        0.049      339.793       13.366      854.900
05/06/2014  19:24:00      -41.497      391.587      -52.626      100.079      218.167       74.089    10015.897    47596.827     5489.187       11.045        3.155      393.779       89.209        0.051      339.735       13.269      854.917
05/06/2014  19:25:00     -216.881      236.526      -40.863      110.868      153.234       66.063    12291.664    23480.545     4364.362        7.239        2.007      320.908       62.959        0.038      339.828       13.425      854.953
05/06/2014  19:26:00     -267.270      279.527      -49.098      127.296      130.058       79.032    16204.376    16915.171     6245.990        9.566        1.968      386.741       86.593        0.050      339.823       13.418      854.986
05/06/2014  19:27:00     -149.739      200.603      -24.808      116.322       99.439       52.358    13530.906     9888.207     2741.350        4.471        1.308      250.326       46.122        0.034      339.856       13.473      854.990
05/06/2014  19:28:00     -152.897      189.028      -23.092      100.728       93.854       63.998    10146.033     8808.654     4095.773        4.134        1.153      243.124       61.528        0.064      339.856       13.473      855.008
05/06/2014  19:29:00     -124.608      344.163      -47.161      100.788      145.092       67.781    10158.312    21051.697     4594.255        8.599        1.790      366.027       77.237        0.045      339.759       13.310      854.992
05/06/2014  19:30:00     -103.703      294.109      -47.491       78.102       89.048       44.085     6099.934     7929.580     1943.492        5.774        0.799      311.856       41.577        0.018      339.787       13.358      855.011
05/06/2014  19:31:00     -108.535      432.086      -56.829      109.221      167.135       64.082    11929.177    27934.075     4106.540       12.283        2.198      445.509       85.330        0.037      339.664       13.148      855.038
05/06/2014  19:32:00      -87.044      286.001      -47.474       61.140       81.359       40.502     3738.048     6619.327     1640.433        5.181        0.600      298.953       31.919        0.011      339.716       13.235      855.040
05/06/2014  19:33:00     -124.209      308.655      -41.950       91.962      109.873       63.031     8457.038    12072.022     3972.936        6.847        1.225      332.710       61.887        0.035      339.719       13.242      855.061
05/06/2014  19:34:00     -165.058      303.031      -48.000       86.017      157.567       63.118     7398.972    24827.395     3983.918        7.879        1.811      345.068       64.376        0.035      339.675       13.169      855.074
05/06/2014  19:35:00      -82.938      248.283      -26.710       69.782      128.513       54.845     4869.557    16515.653     3008.016        4.681        1.220      261.770       40.942        0.024      339.710       13.228      855.059
05/06/2014  19:36:00      -94.688      234.051      -17.647       77.168      110.853       62.187     5954.837    12288.306     3867.261        4.308        1.106      252.479       60.212        0.057      339.671       13.161      855.071
05/06/2014  19:37:00      -67.107      230.721      -30.799       93.812      130.398       51.810     8800.670    17003.712     2684.264        4.358        1.424      240.282       48.673        0.041      339.736       13.269      855.065
05/06/2014  19:38:00     -120.059      258.410      -31.330       80.797       97.636       60.691     6528.178     9532.833     3683.403        5.095        0.987      284.939       60.541        0.045      339.661       13.143      855.072
05/06/2014  19:39:00      -94.807      260.225      -33.791       58.358       85.224       42.994     3405.645     7263.102     1848.443        4.518        0.626      276.957       39.600        0.020      339.720       13.243      855.096
05/06/2014  19:40:00     -166.736      267.732      -52.682       91.760       99.109       48.953     8419.834     9822.522     2396.358        6.144        1.032      315.407       48.847        0.024      339.672       13.162      855.102
05/06/2014  19:41:00      -88.124      195.773      -33.674       79.731       99.604       43.909     6357.083     9920.966     1927.970        3.271        0.910      214.693       33.176        0.024      339.696       13.203      855.072
05/06/2014  19:42:00      -89.764      323.963      -48.663      127.945      122.971       56.187    16369.980    15121.773     3157.012        7.501        1.732      336.169       62.077        0.034      339.679       13.173      855.114
05/06/2014  19:43:00     -206.806      403.915      -76.004      147.571      133.277       69.853    21777.140    17762.835     4879.423       12.805        2.221      453.780       76.965        0.029      339.649       13.124      855.115
05/06/2014  19:44:00     -189.128      352.430      -51.046      104.537      115.129       67.846    10928.088    13254.621     4603.137        9.568        1.439      399.971       64.564        0.026      339.656       13.134      855.072
05/06/2014  19:45:00     -133.228      217.273      -25.341       82.971      117.500       48.259     6884.158    13806.215     2328.897        4.430        1.151      254.867       42.272        0.028      339.676       13.171      855.047
05/06/2014  19:46:00     -191.661      194.437      -47.778      107.180      118.297       60.309    11487.527    13994.210     3637.128        5.296        1.456      273.020       71.612        0.069      339.746       13.288      855.072
05/06/2014  19:47:00     -196.750      191.801      -48.648      101.778       93.685       45.438    10358.684     8776.801     2064.625        4.953        1.060      274.769       51.906        0.036      339.728       13.256      855.075
05/06/2014  19:48:00     -135.036      137.412      -22.074       84.554       84.756       48.892     7149.308     7183.559     2390.406        2.716        0.836      192.657       54.916        0.081      339.795       13.370      855.101
05/06/2014  19:49:00      -81.863      122.928      -12.753       55.274       49.974       35.072     3055.241     2497.380     1230.060        1.438        0.339      147.691       34.375        0.054      339.790       13.365      855.100
05/06/2014  19:50:00      -42.268      118.538      -20.514       57.981       52.695       31.908     3361.778     2776.796     1018.144        1.171        0.358      125.849        9.991        0.006      339.762       13.319      855.104
05/06/2014  19:51:00     -102.866       40.764       -4.605       59.653       76.984       38.038     3558.453     5926.501     1446.859        1.160        0.547      110.648       30.889        0.078      339.784       13.354      855.117
05/06/2014  19:52:00     -205.250      162.143      -39.117       94.656      100.325       45.582     8959.738    10065.127     2077.746        4.552        1.055      261.568       36.775        0.020      339.701       13.211      855.123
05/06/2014  19:53:00     -192.606       30.454      -29.710       98.503       73.319       54.139     9702.854     5375.748     2931.020        2.845        0.900      194.998       48.811        0.063      339.705       13.219      855.117
05/06/2014  19:54:00     -156.270       81.918      -19.825       89.131       76.595       46.089     7944.413     5866.718     2124.189        2.373        0.797      176.440       42.450        0.058      339.692       13.198      855.153
05/06/2014  19:55:00     -217.737      139.135      -49.808       80.705       81.796       56.783     6513.356     6690.564     3224.304        4.284        0.821      258.395       43.559        0.028      339.675       13.166      855.160
05/06/2014  19:56:00     -160.884      137.712      -30.103       94.369       86.336       53.793     8905.526     7453.858     2893.666        3.250        0.963      211.774       43.718        0.043      339.677       13.172      855.169
05/06/2014  19:57:00     -207.917       58.550      -22.363       90.926       82.483       49.580     8267.618     6803.456     2458.183        3.234        0.876      216.004       38.502        0.032      339.635       13.102      855.181
05/06/2014  19:58:00     -221.908      -96.902       -5.425      129.247      105.965       60.030    16704.668    11228.562     3603.556        4.509        1.577      242.143       44.578        0.034      339.577       13.003      855.156
05/06/2014  19:59:00     -266.571      -62.982      -20.000       99.198      105.639       50.355     9840.250    11159.634     2535.654        4.948        1.177      273.910       35.116        0.016      339.574       12.997      855.158
05/06/2014  20:00:00     -217.436      -53.861      -20.854       93.779       74.359       34.423     8794.453     5529.306     1184.966        3.306        0.775      224.007       32.286        0.021      339.556       12.967      855.153
05/06/2014  20:01:00      -81.067       -5.847      -24.390       65.489       58.615       27.634     4288.747     3435.722      763.625        0.784        0.424       81.278       25.996        0.102      339.671       13.165      855.157
05/06/2014  20:02:00     -173.980       75.418      -32.962       59.268       68.181       38.276     3512.645     4648.682     1465.028        2.333        0.481      189.623       22.464        0.014      339.623       13.082      855.175
05/06/2014  20:03:00     -107.442       -5.892       -2.221       70.752       85.458       37.533     5005.775     7303.041     1408.736        1.265        0.686      107.603       32.395        0.091      339.633       13.099      855.195
05/06/2014  20:04:00     -187.511      -54.521       -8.625      109.425       75.600       41.428    11973.938     5715.325     1716.316        2.880        0.970      195.277       52.890        0.073      339.552       12.960      855.198
05/06/2014  20:05:00     -203.847        1.489      -17.179      151.727      116.130       58.492    23021.224    13486.195     3421.336        4.088        1.996      203.852       64.301        0.099      339.485       12.848      855.199
05/06/2014  20:06:00     -201.216      -18.471      -11.822       78.811       69.804       37.811     6211.206     4872.551     1429.644        2.674        0.626      202.062       35.688        0.031      339.568       12.987      855.199
05/06/2014  20:07:00     -175.927       43.779      -16.182      101.181       95.787       55.441    10237.691     9175.074     3073.754        2.780        1.124      181.292       54.610        0.091      339.551       12.960      855.205
05/06/2014  20:08:00     -131.837      -16.330      -25.646       73.115       91.594       48.391     5345.859     8389.441     2341.725        1.719        0.804      132.845       36.414        0.075      339.612       13.063      855.206
05/06/2014  20:09:00     -170.196      -24.536       -1.834      119.764       97.303       49.548    14343.319     9467.789     2455.036        2.791        1.313      171.956       46.180        0.072      339.542       12.945      855.204
05/06/2014  20:10:00     -176.414      -37.179       -1.868       93.572       85.036       57.310     8755.746     7231.064     3284.475        2.589        0.964      180.289       55.428        0.095      339.473       12.827      855.196
05/06/2014  20:11:00     -146.968       -8.120      -22.961       65.439       73.634       53.002     4282.308     5421.957     2809.169        1.735        0.626      147.193       22.799        0.024      339.557       12.970      855.199
05/06/2014  20:12:00     -225.511      -92.770      -12.257      100.040       62.089       41.282    10007.988     3855.006     1704.180        3.759        0.778      243.848       36.079        0.022      339.426       12.748      855.196
05/06/2014  20:13:00     -172.619      -21.083       -3.651       89.361      102.448       47.001     7985.447    10495.663     2209.055        2.547        1.035      173.901       47.972        0.076      339.446       12.781      855.201
05/06/2014  20:14:00     -303.105      -21.789      -33.125      122.652       95.724       52.212    15043.416     9163.095     2726.096        6.018        1.347      303.887       51.187        0.028      339.452       12.791      855.223
05/06/2014  20:15:00     -125.326      -35.716       19.539      122.400      102.903       52.878    14981.806    10588.938     2796.047        2.286        1.418      130.316       58.344        0.200      339.420       12.740      855.248
05/06/2014  20:16:00     -197.691      -60.357        4.697      159.784      113.596       64.269    25530.893    12904.164     4130.516        4.265        2.128      206.699       73.502        0.126      339.379       12.670      855.241
05/06/2014  20:17:00     -221.362      -77.345      -13.334      111.347      116.419       62.078    12398.047    13553.459     3853.671        4.248        1.490      234.486       65.525        0.078      339.390       12.687      855.257
05/06/2014  20:18:00     -149.505       57.289      -13.101      109.625       72.771       49.906    12017.580     5295.649     2490.645        2.280        0.990      160.106       55.827        0.122      339.399       12.705      855.261
05/06/2014  20:19:00     -125.325       -0.697       -6.059      105.228       75.347       46.905    11072.884     5677.203     2200.045        1.734        0.948      125.327       25.742        0.042      339.507       12.887      855.260
05/06/2014  20:20:00     -216.259     -101.176        5.288      134.933       87.596       57.345    18206.946     7673.130     3288.439        4.309        1.458      238.756       58.877        0.061      339.386       12.681      855.257
05/06/2014  20:21:00     -216.754       -7.304      -17.916      104.787       93.282       51.734    10980.229     8701.487     2676.393        3.485        1.118      216.878       53.339        0.060      339.410       12.721      855.276
05/06/2014  20:22:00     -157.173       49.089      -13.218       84.907       64.283       50.671     7209.147     4132.332     2567.581        2.060        0.695      164.661       46.358        0.079      339.466       12.816      855.309
05/06/2014  20:23:00     -150.846        3.419      -18.117      117.757       77.936       63.836    13866.827     6074.049     4075.063        2.355        1.201      150.885       65.399        0.188      339.448       12.785      855.339
05/06/2014  20:24:00     -120.216       98.998      -46.924       93.347      100.098       51.995     8713.722    10019.547     2703.528        2.394        1.072      155.732       46.445        0.089      339.424       12.746      855.373
05/06/2014  20:25:00     -170.720      152.870      -42.027       83.635       75.376       42.916     6994.818     5681.544     1841.744        3.440        0.726      229.161       32.215        0.020      339.455       12.796      855.387
05/06/2014  20:26:00     -179.989      199.245      -24.454       95.624      113.632       60.397     9143.952    12912.204     3647.827        4.919        1.285      268.504       56.583        0.044      339.495       12.863      855.349
05/06/2014  20:27:00      -93.600      117.425      -15.541       62.228       63.383       35.341     3872.331     4017.366     1248.999        1.596        0.457      150.165       30.577        0.041      339.544       12.948      855.309
05/06/2014  20:28:00     -113.113       68.322      -12.466       57.889       51.039       43.124     3351.164     2604.938     1859.652        1.272        0.391      132.146       31.717        0.058      339.582       13.012      855.319
05/06/2014  20:29:00     -159.414      127.371      -31.572       81.721       72.280       42.799     6678.384     5224.353     1831.790        2.818        0.687      204.049       42.004        0.042      339.513       12.894      855.323
05/06/2014  20:30:00     -186.793      166.343      -33.556      127.541      114.365       71.643    16266.686    13079.240     5132.751        4.908        1.724      250.123       80.627        0.104      339.536       12.936      855.340
05/06/2014  20:31:00     -152.656      131.260      -35.245       73.003       93.801       44.446     5329.372     8798.709     1975.445        2.894        0.805      201.328       39.584        0.039      339.489       12.855      855.338
05/06/2014  20:32:00     -110.788       17.513       -0.412       67.603       38.519       33.726     4570.215     1483.726     1137.462        0.988        0.360      112.164       25.069        0.050      339.598       13.041      855.364
05/06/2014  20:33:00      -78.505      -14.609        8.295       72.856       54.891       44.493     5308.063     3013.000     1979.603        0.837        0.515       79.853       29.882        0.140      339.487       12.854      855.368
05/06/2014  20:34:00     -269.605      -53.460      -30.729      101.849       97.999       54.307    10373.257     9603.835     2949.235        4.970        1.146      274.854       53.644        0.038      339.300       12.534      855.374
05/06/2014  20:35:00     -165.862       27.407      -18.806       81.023      108.327       51.298     6564.796    11734.830     2631.444        2.477        1.047      168.111       47.332        0.079      339.294       12.527      855.377
05/06/2014  20:36:00     -178.062       39.443      -38.192      115.515      126.110       41.327    13343.789    15903.680     1707.934        3.283        1.548      182.378       56.616        0.096      339.233       12.424      855.372
05/06/2014  20:37:00      -47.353       52.554        5.135       49.296       45.525       36.378     2430.070     2072.494     1323.388        0.543        0.291       70.741       33.200        0.220      339.338       12.603      855.379
05/06/2014  20:38:00     -196.667       85.140       -4.579      119.862       66.334       59.011    14367.006     4400.212     3482.346        3.409        1.112      214.305       57.969        0.073      339.325       12.578      855.409
05/06/2014  20:39:00     -165.196       27.900      -19.570       91.412       73.048       40.997     8356.133     5335.983     1680.716        2.191        0.769      167.535       48.193        0.083      339.305       12.545      855.424
05/06/2014  20:40:00     -109.459       94.366      -23.701       50.129       80.067       47.200     2512.959     6410.663     2227.825        1.630        0.558      144.521       32.328        0.050      339.362       12.643      855.421
05/06/2014  20:41:00     -103.708       37.520      -11.923       60.816       92.595       35.200     3698.563     8573.878     1239.032        1.291        0.676      110.286       29.367        0.071      339.393       12.696      855.416
05/06/2014  20:42:00     -107.283      -10.032       -8.606       61.088       77.296       36.775     3731.729     5974.720     1352.437        1.137        0.553      107.751       28.942        0.072      339.395       12.698      855.421
05/06/2014  20:43:00     -128.540       -8.353      -21.500       67.641       59.765       39.264     4575.310     3571.911     1541.633        1.337        0.484      128.811       31.972        0.062      339.427       12.751      855.433
05/06/2014  20:44:00     -143.719      -51.178      -15.424       48.196       46.016       31.129     2322.890     2117.507      968.993        1.446        0.270      152.559       11.330        0.006      339.364       12.645      855.442
05/06/2014  20:45:00     -197.765      -47.412      -12.424      117.343       52.221       40.764    13769.369     2727.083     1661.711        2.983        0.908      203.369       48.707        0.057      339.324       12.579      855.449
05/06/2014  20:46:00     -214.709      -45.360      -16.591      104.768       63.383       39.104    10976.404     4017.437     1529.161        3.247        0.826      219.448       44.156        0.040      339.217       12.395      855.453
05/06/2014  20:47:00     -211.170       -8.992      -13.558       76.916       76.806       51.107     5916.061     5899.159     2611.921        2.964        0.721      211.361       45.192        0.046      339.220       12.401      855.471
05/06/2014  20:48:00     -219.347       53.509      -24.102       91.797       82.703       53.620     8426.649     6839.830     2875.123        3.485        0.907      225.779       51.554        0.052      339.266       12.478      855.503
05/06/2014  20:49:00     -139.027       80.968      -27.999       71.048       87.052       48.848     5047.865     7578.043     2386.159        2.084        0.751      160.886       42.649        0.070      339.275       12.496      855.509
05/06/2014  20:50:00     -113.417      -14.386       -1.780       64.074       47.910       41.538     4105.447     2295.409     1725.393        1.060        0.406      114.326       34.840        0.093      339.308       12.552      855.506
05/06/2014  20:51:00     -140.343      -71.918      -16.717       64.725       58.226       43.302     4189.281     3390.276     1875.073        1.730        0.473      157.697       34.383        0.048      339.236       12.430      855.525
05/06/2014  20:52:00     -149.607      -72.650       -5.102       84.566       77.032       55.594     7151.450     5933.987     3090.657        2.193        0.809      166.314       48.195        0.084      339.191       12.353      855.531
05/06/2014  20:53:00     -210.721      -83.508      -13.190       98.047      103.495       51.641     9613.310    10711.212     2666.753        3.727        1.150      226.665       42.990        0.036      339.204       12.373      855.522
05/06/2014  20:54:00     -468.872      -81.752      -20.748      208.256      119.237       83.480    43370.395    14217.440     6968.988       14.574        3.228      475.946      109.340        0.053      339.176       12.327      855.501
05/06/2014  20:55:00     -308.314      -46.526      -20.144      200.398      127.653       80.465    40159.354    16295.387     6474.592        8.027        3.146      311.805       92.815        0.089      339.223       12.406      855.488
05/06/2014  20:56:00     -306.590      -74.421      -13.086      178.769      123.270       69.518    31958.193    15195.561     4832.713        7.584        2.599      315.493       77.267        0.060      339.203       12.372      855.504
05/06/2014  20:57:00     -307.027       68.665      -40.268      126.276       83.344       60.708    15945.621     6946.147     3685.512        6.358        1.329      314.612       65.621        0.044      339.244       12.441      855.523
05/06/2014  20:58:00     -125.583       86.555      -10.881       96.144       97.281       60.071     9243.711     9463.594     3608.473        2.284        1.116      152.522       57.809        0.144      339.287       12.514      855.513
05/06/2014  20:59:00      -95.144       51.803      -21.156       65.322       54.688       39.483     4266.966     2990.737     1558.915        1.050        0.441      108.332       29.567        0.074      339.311       12.556      855.517
05/06/2014  21:00:00     -228.525       10.566      -27.787       59.728       81.070       36.359     3567.415     6572.322     1322.004        3.228        0.573      228.769       26.322        0.013      339.252       12.455      855.532
05/06/2014  21:01:00     -179.549      -35.076      -11.252       59.023       71.401       31.670     3483.669     5098.110     1003.002        2.159        0.479      182.944       23.071        0.016      339.285       12.512      855.553
05/06/2014  21:02:00     -210.356      -13.842       -8.209       89.077       67.857       45.742     7934.748     4604.568     2092.293        2.957        0.732      210.811       49.709        0.056      339.299       12.536      855.571
05/06/2014  21:03:00     -183.717      -88.596      -15.127      100.986       86.455       53.154    10198.229     7474.402     2825.392        3.116        1.025      203.964       53.333        0.068      339.222       12.404      855.569
05/06/2014  21:04:00     -177.598      -26.236       -7.255       89.864       92.830       43.196     8075.532     8617.475     1865.934        2.542        0.928      179.526       35.772        0.040      339.188       12.348      855.582
05/06/2014  21:05:00     -101.993       19.796       -7.602       78.764       71.309       50.690     6203.790     5084.963     2569.465        1.235        0.693      103.896       49.809        0.230      339.235       12.428      855.567
05/06/2014  21:06:00     -165.463      -33.731      -10.461      105.286       69.281       43.526    11085.155     4799.836     1894.551        2.320        0.889      168.866       42.078        0.062      339.190       12.352      855.544
05/06/2014  21:07:00     -182.505      -19.750      -20.784       62.692       43.659       36.715     3930.315     1906.110     1347.980        2.066        0.359      183.571       32.535        0.031      339.199       12.367      855.556
05/06/2014  21:08:00     -120.620       12.266      -12.237       49.477       37.374       23.493     2447.990     1396.788      551.920        0.962        0.220      121.242       24.934        0.042      339.379       12.671      855.572
05/06/2014  21:09:00     -216.292       60.159      -39.517       64.120       89.528       38.478     4111.316     8015.285     1480.589        3.278        0.680      224.502       35.932        0.026      339.227       12.413      855.610
05/06/2014  21:10:00     -207.808      -56.716      -11.411       92.649       71.510       48.513     8583.898     5113.684     2353.483        3.129        0.803      215.408       32.263        0.022      339.166       12.311      855.612
05/06/2014  21:11:00     -202.383       -9.485      -26.398       36.450       46.461       35.304     1328.626     2158.623     1246.365        2.324        0.237      202.605       21.370        0.011      339.095       12.192      855.632
05/06/2014  21:12:00     -186.615      -24.515      -15.704      109.309       56.222       38.118    11948.518     3160.900     1452.983        2.611        0.828      188.219       52.167        0.077      339.057       12.130      855.659
05/06/2014  21:13:00     -137.764       16.868      -21.135       63.024       79.325       46.760     3971.996     6292.421     2186.451        1.608        0.623      138.793       37.128        0.072      339.121       12.237      855.664
05/06/2014  21:14:00      -93.996       -4.107      -10.245       73.515       51.101       39.670     5404.452     2611.270     1573.717        0.927        0.479       94.086       47.462        0.254      339.202       12.374      855.671
05/06/2014  21:15:00     -158.764      -71.269       -8.278       86.579       62.096       36.041     7495.930     3855.943     1298.962        2.150        0.633      174.027       32.257        0.034      339.130       12.250      855.683
05/06/2014  21:16:00     -256.637      -51.803      -14.255       80.698       55.760       36.719     6512.225     3109.193     1348.262        3.986        0.548      261.813       35.453        0.018      338.989       12.011      855.689
05/06/2014  21:17:00     -178.262      -73.247      -12.071       65.396       55.476       35.815     4276.643     3077.632     1282.704        2.296        0.432      192.724       35.407        0.034      338.957       11.959      855.704
05/06/2014  21:18:00     -190.886      -65.464        0.391       72.307       69.477       38.069     5228.253     4826.993     1449.276        2.611        0.575      201.800       35.339        0.031      338.991       12.016      855.720
05/06/2014  21:19:00     -210.578      -56.893      -16.541       75.874       63.192       32.609     5756.890     3993.243     1063.346        2.933        0.541      218.128       27.928        0.016      338.971       11.982      855.742
05/06/2014  21:20:00     -146.454      -13.169       -6.916       73.254       88.389       38.105     5366.147     7812.695     1452.025        1.815        0.732      147.045       32.194        0.048      338.984       12.006      855.776
05/06/2014  21:21:00     -106.456       33.568      -22.921       77.107       40.354       32.830     5945.436     1628.456     1077.828        1.082        0.433      111.623       26.701        0.057      339.036       12.094      855.811
05/06/2014  21:22:00      -99.024       48.304      -19.149       54.784       83.880       38.008     3001.250     7035.895     1444.609        1.199        0.574      110.177       39.250        0.127      338.993       12.022      855.839
05/06/2014  21:23:00     -122.547       97.692      -17.150       83.992       88.492       43.463     7054.689     7830.864     1889.060        2.081        0.839      156.721       46.645        0.089      339.022       12.069      855.844
05/06/2014  21:24:00      -89.564       78.760      -12.372       60.019       56.087       27.584     3602.291     3145.696      760.854        1.094        0.375      119.268       20.457        0.029      339.032       12.087      855.842
05/06/2014  21:25:00      -80.667        2.499       -8.406       46.068       65.464       30.505     2122.278     4285.518      930.558        0.696        0.367       80.706       21.406        0.070      339.057       12.129      855.782
05/06/2014  21:26:00     -166.926        9.430      -16.603      105.296       53.357       30.470    11087.331     2846.921      928.406        2.154        0.743      167.192       41.716        0.062      338.987       12.012      855.717
05/06/2014  21:27:00     -164.332      -49.065      -11.942       66.333       73.411       36.838     4400.053     5389.170     1357.067        2.035        0.557      171.501       34.922        0.041      338.977       11.995      855.717
05/06/2014  21:28:00     -182.605      -29.852      -11.297       50.902       43.976       31.198     2591.027     1933.852      973.317        1.993        0.275      185.029       27.272        0.022      338.975       11.989      855.727
05/06/2014  21:29:00     -113.656       20.099      -13.557       41.127       49.959       25.328     1691.390     2495.937      641.483        0.917        0.241      115.419       24.213        0.044      339.152       12.290      855.746
05/06/2014  21:30:00      -59.391      -29.569        4.453       49.634       26.621       25.632     2463.556      708.702      656.992        0.412        0.191       66.345       16.240        0.060      339.080       12.168      855.777
05/06/2014  21:31:00     -142.432      -22.520       -9.387       54.192       51.105       35.944     2936.742     2611.746     1291.999        1.386        0.342      144.202       34.729        0.058      339.040       12.100      855.785
05/06/2014  21:32:00      -98.170      -16.067       -6.437       35.586       27.372       24.216     1266.372      749.225      586.402        0.627        0.130       99.476       18.109        0.033      338.993       12.021      855.796
05/06/2014  21:33:00     -134.113       33.383      -15.598       55.201       78.985       35.803     3047.116     6238.571     1281.848        1.495        0.528      138.206       27.787        0.040      339.025       12.076      855.802
05/06/2014  21:34:00      -58.880        7.541      -13.543       31.166       64.083       26.042      971.334     4106.684      678.190        0.473        0.288       59.361       20.208        0.116      339.012       12.054      855.802
05/06/2014  21:35:00      -89.282      -39.676      -15.897       59.780       40.147       25.720     3573.664     1611.796      661.507        0.782        0.292       97.701       27.186        0.077      338.979       11.999      855.804
05/06/2014  21:36:00     -115.958      -76.196       -1.900       60.172       58.143       34.377     3620.642     3380.620     1181.763        1.372        0.409      138.752       34.530        0.062      338.926       11.910      855.809
05/06/2014  21:37:00     -127.340      -27.432      -15.992       57.214       63.443       38.441     3273.460     4025.068     1477.712        1.300        0.439      130.261       33.078        0.064      338.943       11.938      855.822
05/06/2014  21:38:00      -88.923       20.770      -13.419       39.059       50.241       32.412     1525.568     2524.130     1050.570        0.681        0.255       91.316       27.910        0.093      339.091       12.187      855.831
05/06/2014  21:39:00     -146.541       29.094      -21.997       50.395       51.282       26.705     2539.640     2629.892      713.148        1.434        0.294      149.401       26.853        0.032      338.998       12.030      855.830
05/06/2014  21:40:00      -71.328       -9.472       -3.234       63.036       54.259       39.672     3973.538     2944.058     1573.862        0.684        0.425       71.954       26.732        0.138      338.950       11.949      855.822
05/06/2014  21:41:00      -84.152      -35.116       -8.195       54.357       42.342       27.137     2954.721     1792.874      736.416        0.693        0.274       91.185       27.116        0.088      338.897       11.860      855.830
05/06/2014  21:42:00      -96.225      -42.506        0.427       68.453       44.447       30.981     4685.845     1975.537      959.805        0.934        0.381      105.195       28.569        0.074      338.833       11.754      855.829
05/06/2014  21:43:00     -137.108      -33.383       -1.578       62.468       38.777       29.129     3902.312     1503.648      848.489        1.308        0.313      141.114       32.189        0.052      338.785       11.670      855.826
05/06/2014  21:44:00     -126.936      -44.305      -10.879       38.423       39.496       22.670     1476.358     1559.922      513.911        1.087        0.178      134.445       18.678        0.019      338.818       11.729      855.836
05/06/2014  21:45:00      -70.588       -0.894       -0.321       54.256       38.906       20.007     2943.732     1513.645      400.284        0.492        0.243       70.593       21.775        0.095      338.926       11.908      855.840
05/06/2014  21:46:00     -174.625      -28.233      -11.513       34.877       32.255       24.096     1216.405     1040.361      580.598        1.713        0.142      176.892       13.054        0.005      338.780       11.665      855.848
05/06/2014  21:47:00     -140.662      -29.557       -8.155       47.111       37.687       27.785     2219.472     1420.341      772.012        1.257        0.221      143.733       26.755        0.035      338.759       11.630      855.851
05/06/2014  21:48:00     -119.295      -42.672      -10.459       53.257       53.810       27.095     2836.307     2895.544      734.151        1.131        0.323      126.697       23.887        0.036      338.785       11.674      855.853
05/06/2014  21:49:00     -118.796       -8.519      -16.794       41.977       50.074       26.668     1762.103     2507.359      711.158        0.972        0.249      119.101       21.734        0.033      338.827       11.743      855.857
05/06/2014  21:50:00      -71.028      -42.020       -7.955       39.692       47.063       26.126     1575.440     2214.889      682.576        0.567        0.224       82.527       19.921        0.058      338.795       11.689      855.861
05/06/2014  21:51:00      -79.847      -22.579       -0.326       45.275       28.379       19.808     2049.813      805.362      392.343        0.507        0.162       82.978       15.368        0.034      338.830       11.749      855.855
05/06/2014  21:52:00      -70.392      -19.217      -20.189       46.429       23.706       21.956     2155.675      561.962      482.056        0.447        0.160       72.968       21.602        0.088      338.722       11.567      855.866
05/06/2014  21:53:00      -76.999      -42.641      -16.186       39.278       23.729       14.881     1542.798      563.085      221.450        0.517        0.116       88.018       11.166        0.016      338.703       11.534      855.870
05/06/2014  21:54:00     -104.581      -32.405      -11.161       33.685       22.396       20.306     1134.697      501.572      412.343        0.708        0.102      109.486       18.185        0.028      338.738       11.594      855.884
05/06/2014  21:55:00     -126.883      -48.883       -0.050       56.587       37.093       29.763     3202.108     1375.871      885.851        1.198        0.273      135.973       31.615        0.054      338.649       11.442      855.892
05/06/2014  21:56:00     -123.098      -45.456       -5.405       62.082       27.199       28.844     3854.178      739.787      831.970        1.134        0.271      131.223       35.748        0.074      338.650       11.448      855.891
05/06/2014  21:57:00     -100.031      -69.505       -7.776       50.297       31.509       22.415     2529.811      992.801      502.446        0.946        0.201      121.808       27.562        0.051      338.645       11.437      855.891
05/06/2014  21:58:00     -138.398      -26.608      -15.782       43.754       30.065       19.489     1914.396      903.913      379.840        1.165        0.160      140.932       20.457        0.021      338.693       11.518      855.903
05/06/2014  21:59:00     -157.322      -34.341      -12.845       34.815       32.666       24.941     1212.117     1067.071      622.075        1.450        0.145      161.026       19.286        0.014      338.736       11.591      855.913
05/06/2014  22:00:00     -160.166      -18.346      -11.043       71.513       46.484       29.801     5114.079     2160.731      888.070        1.714        0.408      161.214       31.370        0.038      338.695       11.520      855.921
05/06/2014  22:01:00     -176.076        0.740      -15.862       36.790       42.913       25.595     1353.469     1841.537      655.101        1.755        0.193      176.078       21.811        0.015      338.715       11.554      855.931
05/06/2014  22:02:00     -131.632      -41.487      -10.291       34.723       61.509       27.359     1205.669     3783.319      748.513        1.244        0.287      138.015       23.125        0.028      338.740       11.597      855.942
05/06/2014  22:03:00      -65.197      -28.340        3.714       46.245       33.068       22.388     2138.618     1093.500      501.236        0.440        0.187       71.090       22.708        0.102      338.667       11.473      855.937
05/06/2014  22:04:00     -113.955      -26.344       -5.484       41.748       34.441       19.599     1742.923     1186.192      384.132        0.851        0.166      116.960       21.896        0.035      338.620       11.395      855.934
05/06/2014  22:05:00     -117.638      -28.538       -1.826       31.274       38.300       19.220      978.090     1466.920      369.394        0.873        0.141      121.050       15.752        0.017      338.612       11.383      855.930
05/06/2014  22:06:00     -119.132      -56.755       -0.127       45.857       41.371       26.181     2102.895     1711.565      685.443        1.096        0.225      131.961       23.584        0.032      338.593       11.351      855.931
05/06/2014  22:07:00     -117.640      -69.815       -5.557       39.317       48.182       27.595     1545.850     2321.473      761.485        1.169        0.231      136.797       25.517        0.035      338.639       11.428      855.925
05/06/2014  22:08:00      -73.217      -17.525        0.712       28.496       24.956       16.391      812.034      622.803      268.671        0.369        0.085       75.285       14.736        0.038      338.572       11.315      855.912
05/06/2014  22:09:00     -154.515      -39.617       -1.511       45.967       30.812       26.447     2112.995      949.399      699.450        1.460        0.188      159.513       25.033        0.025      338.605       11.369      855.908
05/06/2014  22:10:00     -172.308      -51.282      -10.466       57.569       39.020       22.316     3314.222     1522.533      498.021        1.888        0.267      179.777       20.428        0.013      338.591       11.344      855.908
05/06/2014  22:11:00     -128.760      -55.233      -18.863       46.385       36.835       29.223     2151.567     1356.848      853.977        1.217        0.218      140.106       21.339        0.023      338.598       11.360      855.907
05/06/2014  22:12:00     -104.053       -8.601        2.032       38.294       43.197       25.961     1466.403     1865.975      673.963        0.745        0.200      104.408       22.541        0.047      338.569       11.309      855.907
05/06/2014  22:13:00      -32.922      -19.996       10.976       34.086       25.518       25.359     1161.837      651.155      643.064        0.203        0.123       38.518       20.606        0.286      338.514       11.218      855.910
05/06/2014  22:14:00      -63.928      -33.042       -6.743       29.845       28.592       18.138      890.753      817.482      328.985        0.363        0.102       71.963       14.400        0.040      338.546       11.272      855.904
05/06/2014  22:15:00      -29.825        4.691        2.425       44.249       17.608       20.599     1957.945      310.050      424.318        0.180        0.135       30.191       25.381        0.707      338.513       11.215      855.888
05/06/2014  22:16:00       -8.890       47.759        4.830       39.870       39.089       21.786     1589.628     1527.964      474.608        0.299        0.180       48.579       22.931        0.223      338.553       11.284      855.883
05/06/2014  22:17:00      -95.086       66.950      -20.371       40.200       38.704       22.168     1616.046     1498.031      491.428        0.877        0.180      116.291       22.086        0.036      338.535       11.252      855.888
05/06/2014  22:18:00     -101.088       54.655      -13.597       34.630       45.068       24.774     1199.217     2031.101      613.730        0.862        0.192      114.918       23.020        0.040      338.645       11.438      855.878
05/06/2014  22:19:00     -115.826       28.575      -22.069       42.558       45.418       26.895     1811.197     2062.796      723.332        0.966        0.230      119.298       23.046        0.037      338.597       11.357      855.862
05/06/2014  22:20:00     -102.454      -22.206      -10.469       58.016       35.641       22.921     3365.860     1270.307      525.351        0.813        0.258      104.833       23.668        0.051      338.586       11.338      855.852
05/06/2014  22:21:00      -73.225      -12.607       -3.752       35.960       30.642       24.159     1293.109      938.923      583.641        0.417        0.141       74.302       16.551        0.050      338.585       11.337      855.854
05/06/2014  22:22:00      -69.873        6.024        0.651       59.293       37.336       27.674     3515.643     1393.948      765.840        0.530        0.284       70.133       26.045        0.138      338.678       11.491      855.856
05/06/2014  22:23:00      -94.467        3.567      -12.341       48.338       35.261       30.168     2336.562     1243.331      910.100        0.679        0.224       94.534       32.526        0.118      338.702       11.534      855.866
05/06/2014  22:24:00     -106.679       23.484      -10.068       80.834       39.144       40.534     6534.119     1532.268     1642.967        1.087        0.485      109.233       49.554        0.206      338.666       11.471      855.869
05/06/2014  22:25:00      -91.390      -45.127        0.737       53.277       52.728       28.225     2838.430     2780.222      796.633        0.840        0.321      101.925       16.372        0.026      338.641       11.431      855.868
05/06/2014  22:26:00     -170.449       11.203      -26.118       78.667       69.710       46.714     6188.431     4859.479     2182.243        2.154        0.662      170.817       48.648        0.081      338.699       11.525      855.869
05/06/2014  22:27:00      -84.224       55.982       -4.678       38.284       48.149       34.409     1465.668     2318.349     1183.952        0.761        0.248      101.132       26.975        0.071      338.787       11.676      855.862
05/06/2014  22:28:00     -162.416       28.267      -17.223       55.168       57.176       31.169     3043.482     3269.092      971.494        1.738        0.364      164.858       20.955        0.016      338.765       11.637      855.861
05/06/2014  22:29:00     -106.276       -9.109       -3.576       38.492       43.998       35.258     1481.669     1935.829     1243.145        0.802        0.233      106.666       23.732        0.050      338.759       11.629      855.853
05/06/2014  22:30:00      -67.637      -46.135        5.000       46.055       39.465       25.586     2121.044     1557.485      654.662        0.553        0.217       81.873       15.633        0.036      338.649       11.444      855.854
05/06/2014  22:31:00      -75.756      -46.187        1.160       61.693       47.185       38.496     3806.059     2226.458     1481.951        0.769        0.376       88.725       30.242        0.116      338.634       11.419      855.854
05/06/2014  22:32:00     -126.038      -14.715      -16.901       53.806       40.449       25.457     2895.085     1636.130      648.041        1.078        0.259      126.894       18.249        0.021      338.724       11.570      855.869
05/06/2014  22:33:00      -97.387       23.903      -20.444       45.983       46.862       39.744     2114.412     2196.052     1579.550        0.818        0.295      100.278       10.883        0.012      338.744       11.603      855.884
05/06/2014  22:34:00     -107.940      -48.653       -2.462       65.455       37.799       30.614     4284.402     1428.791      937.231        1.034        0.333      118.399       28.062        0.056      338.649       11.443      855.910
05/06/2014  22:35:00      -91.909       40.821      -15.589       45.546       44.539       30.277     2074.458     1983.710      916.722        0.766        0.249      100.566       24.597        0.060      338.696       11.523      855.923
05/06/2014  22:36:00     -272.554      -40.181      -22.116      105.379      113.686       48.924    11104.677    12924.451     2393.553        5.140        1.321      275.500       37.533        0.019      338.695       11.519      855.909
05/06/2014  22:37:00     -144.182       24.758      -21.081       89.493       73.068       46.744     8009.042     5338.862     2184.985        1.869        0.777      146.292       42.549        0.085      338.726       11.571      855.927
05/06/2014  22:38:00     -194.429      -48.601      -19.040       63.120       94.098       44.524     3984.165     8854.357     1982.387        2.767        0.741      200.411       27.235        0.018      338.721       11.562      855.926
05/06/2014  22:39:00     -138.116       -3.307       -4.686       60.269       91.174       52.911     3632.404     8312.712     2799.522        1.692        0.737      138.156       34.741        0.063      338.733       11.585      855.932
05/06/2014  22:40:00     -143.524       22.941      -14.099       71.534       67.510       34.448     5117.180     4557.553     1186.642        1.609        0.543      145.346       31.489        0.047      338.722       11.565      855.952
05/06/2014  22:41:00     -135.030       -4.596       -3.738       91.528       88.488       55.184     8377.397     7830.145     3045.323        1.876        0.963      135.109       50.902        0.142      338.688       11.507      855.947
05/06/2014  22:42:00     -167.082       90.186      -17.164      115.324      104.389       69.281    13299.550    10896.967     4799.817        3.266        1.450      189.868       61.433        0.105      338.686       11.504      855.948
05/06/2014  22:43:00     -147.186       62.509      -14.654      103.575       90.581       59.699    10727.761     8204.970     3564.022        2.414        1.125      159.909       55.512        0.121      338.731       11.578      855.955
05/06/2014  22:44:00     -101.997       16.366       -6.636       52.492       48.231       43.433     2755.461     2326.265     1886.419        0.884        0.348      103.302       33.750        0.107      338.821       11.734      855.952
05/06/2014  22:45:00     -164.065        0.256      -24.058       92.127       55.444       45.907     8487.339     3074.060     2107.439        2.058        0.683      164.065       53.767        0.107      338.711       11.545      855.956
05/06/2014  22:46:00     -157.836      -22.406      -18.086       75.955       75.802       46.578     5769.224     5745.875     2169.501        1.971        0.684      159.418       41.514        0.068      338.672       11.482      855.967
05/06/2014  22:47:00     -132.547       -2.335      -30.705       87.588       98.659       43.676     7671.672     9733.685     1907.617        1.891        0.966      132.567       34.271        0.067      338.677       11.489      855.976
05/06/2014  22:48:00     -146.661       54.023      -24.232       65.218       72.521       45.913     4253.435     5259.255     2107.961        1.832        0.581      156.294       19.444        0.015      338.696       11.522      855.969
05/06/2014  22:49:00     -123.887        9.496      -22.682       70.950       87.297       40.585     5033.957     7620.777     1647.105        1.512        0.715      124.250       32.690        0.069      338.629       11.409      855.961
05/06/2014  22:50:00      -34.207      -24.836       20.483      103.932       57.832       37.362    10801.842     3344.593     1395.931        0.887        0.777       42.272       26.457        0.392      338.604       11.367      855.962
05/06/2014  22:51:00     -159.241       33.959      -24.167       47.440       52.696       36.162     2250.548     2776.900     1307.679        1.671        0.317      162.822       21.967        0.018      338.705       11.537      855.962
05/06/2014  22:52:00     -109.576      -32.485      -19.329       68.710       41.309       37.261     4721.019     1706.418     1388.389        1.062        0.391      114.290       33.607        0.086      338.580       11.328      855.944
05/06/2014  22:53:00     -133.387       -1.834       -4.359       67.020       70.888       32.239     4491.711     5025.107     1039.324        1.418        0.528      133.399       31.190        0.055      338.533       11.249      855.934
05/06/2014  22:54:00     -132.082      -63.677        3.231       72.675       57.611       31.232     5281.722     3318.970      975.424        1.554        0.479      146.631       34.730        0.056      338.466       11.137      855.927
05/06/2014  22:55:00     -182.448      -36.368      -24.073       59.237       52.008       31.210     3508.999     2704.881      974.073        2.119        0.359      186.038       21.965        0.014      338.442       11.094      855.913
05/06/2014  22:56:00     -102.725      -28.738       -1.396       56.553       58.441       35.403     3198.234     3415.294     1253.349        0.962        0.393      106.669       31.252        0.086      338.473       11.148      855.899
05/06/2014  22:57:00     -195.640      -22.481       -6.267       86.648       87.814       40.733     7507.884     7711.278     1659.195        2.785        0.844      196.928       32.666        0.028      338.405       11.031      855.875
05/06/2014  22:58:00     -252.090      -25.048      -12.404       72.966       55.485       31.634     5324.077     3078.566     1000.697        3.687        0.470      253.331       26.969        0.011      338.415       11.049      855.866
05/06/2014  22:59:00     -250.753      -20.087      -17.076       64.742       54.180       36.157     4191.537     2935.457     1307.339        3.600        0.422      251.556       29.462        0.014      338.395       11.012      855.855
05/06/2014  23:00:00     -201.111      -17.932      -11.769       55.725       44.816       34.645     3105.224     2008.462     1200.269        2.361        0.316      201.909       32.555        0.026      338.352       10.943      855.863
05/06/2014  23:01:00     -188.441      -49.115       -3.970       97.594       63.778       40.342     9524.584     4067.686     1627.482        2.658        0.761      194.737       49.102        0.064      338.364       10.964      855.879
05/06/2014  23:02:00     -131.815      -69.013       -4.245       35.343       56.575       26.948     1249.114     3200.752      726.215        1.367        0.259      148.789       19.477        0.017      338.346       10.934      855.878
05/06/2014  23:03:00     -157.214      -86.667      -11.213       39.954       54.655       35.367     1596.352     2987.178     1250.847        1.909        0.292      179.520       24.916        0.019      338.346       10.934      855.875
05/06/2014  23:04:00     -208.399      -80.624      -12.225       86.664       73.082       32.586     7510.595     5341.033     1061.867        3.199        0.696      223.451       30.641        0.019      338.329       10.905      855.862
05/06/2014  23:05:00     -214.946      -40.165       -2.917       68.782       71.580       36.920     4730.976     5123.663     1363.089        2.952        0.561      218.666       38.093        0.030      338.408       11.036      855.851
05/06/2014  23:06:00     -110.172        7.722      -12.520       34.128       44.618       26.142     1164.744     1990.764      683.403        0.810        0.192      110.443       13.332        0.015      338.560       11.294      855.848
05/06/2014  23:07:00     -123.233      -46.943      -11.882       43.586       61.390       39.970     1899.757     3768.726     1597.576        1.240        0.363      131.871       32.827        0.062      338.417       11.055      855.850
05/06/2014  23:08:00     -105.629      -38.177      -11.154       83.756       38.998       32.858     7014.990     1520.876     1079.628        1.118        0.481      112.316       38.838        0.120      338.288       10.836      855.857
05/06/2014  23:09:00     -166.863      -11.394      -24.528       48.669       49.916       33.092     2368.657     2491.625     1095.098        1.726        0.298      167.252       20.182        0.015      338.345       10.933      855.849
05/06/2014  23:10:00     -235.455      -61.987      -17.999       70.828       53.293       40.494     5016.571     2840.175     1639.755        3.455        0.475      243.478       42.832        0.031      338.294       10.843      855.844
05/06/2014  23:11:00     -190.986      -14.626       -7.254       66.111       54.067       35.058     4370.602     2923.270     1229.049        2.263        0.426      191.545       29.424        0.024      338.287       10.834      855.836
05/06/2014  23:12:00     -171.586      -47.248       -7.306       97.390       60.983       39.444     9484.726     3718.947     1555.820        2.324        0.738      177.972       50.919        0.082      338.349       10.937      855.820
05/06/2014  23:13:00      -97.419      -36.652       11.204       60.080       66.148       33.884     3609.560     4375.596     1148.144        1.004        0.457      104.086       31.439        0.091      338.412       11.045      855.811
05/06/2014  23:14:00     -146.174      -27.239       -3.828       68.145       49.721       35.481     4643.685     2472.212     1258.904        1.525        0.419      148.690       32.382        0.047      338.380       10.991      855.818
05/06/2014  23:15:00     -106.289        2.435       -3.876       78.005       39.065       24.457     6084.732     1526.091      598.143        0.976        0.410      106.317       30.253        0.081      338.366       10.968      855.819
05/06/2014  23:16:00     -140.636      -22.467      -12.357       65.097       45.553       28.065     4237.559     2075.110      787.621        1.377        0.355      142.419       32.624        0.052      338.322       10.896      855.819
05/06/2014  23:17:00      -87.368      -32.515        5.682       66.648       40.056       27.141     4441.940     1604.475      736.640        0.775        0.339       93.222       33.344        0.128      338.300       10.857      855.815
05/06/2014  23:18:00     -106.421      -57.094       -6.349       43.083       38.829       23.783     1856.169     1507.728      565.624        0.928        0.196      120.769       22.818        0.036      338.264       10.798      855.809
05/06/2014  23:19:00     -154.845      -61.293      -11.453       63.348       47.856       26.274     4012.996     2290.180      690.322        1.743        0.350      166.534       30.340        0.033      338.271       10.809      855.807
05/06/2014  23:20:00     -118.596      -48.296       -3.808       67.996       35.499       28.342     4623.422     1260.152      803.263        1.155        0.334      128.053       35.525        0.077      338.304       10.864      855.797
05/06/2014  23:21:00     -170.588      -62.089      -14.150       27.338       39.684       22.543      747.341     1574.819      508.165        1.799        0.142      181.536       16.637        0.008      338.322       10.895      855.786
05/06/2014  23:22:00     -216.185      -65.778      -15.624       45.247       39.070       31.652     2047.309     1526.469     1001.825        2.794        0.229      225.971       24.064        0.011      338.378       10.985      855.772
05/06/2014  23:23:00     -148.334      -35.604       -3.852       55.819       59.851       28.163     3115.719     3582.171      793.138        1.539        0.375      152.547       27.890        0.033      338.401       11.027      855.767
05/06/2014  23:24:00     -169.344      -47.020       -4.047       61.422       58.124       33.765     3772.648     3378.421     1140.042        1.960        0.415      175.750       33.418        0.036      338.370       10.973      855.762
05/06/2014  23:25:00     -127.751      -42.623        4.254       46.948       48.288       26.654     2204.141     2331.690      710.410        1.170        0.262      134.674       25.661        0.036      338.333       10.914      855.749
05/06/2014  23:26:00     -158.447      -31.883       -9.338       50.036       47.490       28.815     2503.622     2255.339      830.287        1.590        0.279      161.622       28.715        0.032      338.437       11.087      855.747
05/06/2014  23:27:00     -151.752      -36.651      -15.211       32.685       44.949       19.149     1068.313     2020.403      366.698        1.403        0.173      156.115       14.168        0.008      338.430       11.075      855.744
05/06/2014  23:28:00     -131.822      -34.291      -13.114       35.858       45.421       24.389     1285.806     2063.029      594.822        1.133        0.197      136.209       21.518        0.025      338.440       11.093      855.752
05/06/2014  23:29:00     -127.922      -67.246       -6.079       54.223       47.060       30.526     2940.080     2214.628      931.814        1.350        0.304      144.520       29.821        0.043      338.349       10.939      855.754
05/06/2014  23:30:00     -138.808      -39.048       -8.949       44.436       41.520       24.344     1974.550     1723.947      592.631        1.258        0.215      144.196       23.049        0.026      338.321       10.892      855.756
05/06/2014  23:31:00     -126.284      -52.673      -10.458       39.778       30.198       18.359     1582.272      911.940      337.047        1.083        0.142      136.829       18.810        0.019      338.350       10.941      855.763
05/06/2014  23:32:00     -145.364      -52.113       -7.707       48.782       41.409       26.934     2379.665     1714.690      725.437        1.436        0.241      154.423       26.449        0.029      338.283       10.828      855.771
05/06/2014  23:33:00     -177.557      -19.136        0.749       67.712       44.621       30.548     4584.945     1991.040      933.150        1.970        0.375      178.585       33.766        0.036      338.320       10.890      855.780
05/06/2014  23:34:00     -122.615      -42.472       -4.447       72.995       42.243       30.991     5328.311     1784.495      960.447        1.246        0.404      129.763       35.185        0.074      338.246       10.766      855.777
05/06/2014  23:35:00     -135.689      -43.456      -12.029       62.740       42.762       25.931     3936.320     1828.567      672.430        1.344        0.322      142.478       24.835        0.030      338.229       10.739      855.768
05/06/2014  23:36:00     -138.014      -65.831       -0.373       52.973       59.840       30.307     2806.096     3580.848      918.529        1.534        0.365      152.910       20.551        0.018      338.220       10.722      855.749
05/06/2014  23:37:00     -120.369      -20.658       -6.196       49.673       79.968       27.681     2467.407     6394.929      766.263        1.229        0.481      122.129       24.168        0.039      338.240       10.756      855.763
05/06/2014  23:38:00     -111.836       39.124      -12.783       37.995       36.334       26.067     1443.643     1320.161      679.511        0.882        0.172      118.482       23.106        0.038      338.245       10.767      855.767
05/06/2014  23:39:00     -106.230      -23.061      -16.620       38.758       27.749       22.160     1502.209      769.995      491.081        0.743        0.138      108.705       21.847        0.040      338.194       10.680      855.772
05/06/2014  23:40:00     -114.441      -40.471      -10.909       60.380       27.220       17.917     3645.747      740.944      321.003        0.978        0.235      121.386       19.942        0.027      338.104       10.529      855.776
05/06/2014  23:41:00     -165.980      -57.749      -26.846       76.011       45.732       27.886     5777.745     2091.379      777.644        2.012        0.432      175.739       18.519        0.011      338.103       10.525      855.759
05/06/2014  23:42:00     -136.703      -34.752       -9.023       46.129       52.877       28.728     2127.875     2795.968      825.305        1.286        0.287      141.051       22.460        0.025      338.174       10.646      855.759
05/06/2014  23:43:00     -171.034      -19.738      -11.645       56.868       43.202       31.379     3233.960     1866.372      984.643        1.793        0.304      172.170       33.636        0.038      338.149       10.603      855.759
05/06/2014  23:44:00     -144.999      -39.522      -17.172       29.782       39.238       21.117      886.991     1539.632      445.930        1.288        0.144      150.289       18.104        0.015      338.041       10.422      855.769
05/06/2014  23:45:00     -137.998      -27.380      -20.970       36.174       40.320       23.445     1308.544     1625.732      549.645        1.186        0.174      140.688       14.693        0.011      338.020       10.387      855.779
05/06/2014  23:46:00      -99.314      -20.624       -3.785       66.743       54.637       32.743     4454.572     2985.147     1072.078        0.941        0.426      101.433       31.864        0.099      338.124       10.562      855.793
05/06/2014  23:47:00      -99.076       -9.795       -7.693       35.585       28.814       18.893     1266.315      830.275      356.936        0.621        0.123       99.559       14.144        0.020      337.998       10.352      855.812
05/06/2014  23:48:00      -71.254       19.790      -10.196       35.517       42.774       26.288     1261.451     1829.573      691.063        0.468        0.189       73.952       23.496        0.101      338.099       10.520      855.817
05/06/2014  23:49:00     -103.264      -38.595      -11.524       24.956       31.579       13.130      622.823      997.265      172.386        0.704        0.090      110.240       11.916        0.012      338.082       10.494      855.822
05/06/2014  23:50:00      -88.230       21.925       -9.213       44.470       50.701       29.358     1977.621     2570.630      861.914        0.688        0.271       90.914       24.808        0.074      338.047       10.432      855.831
05/06/2014  23:51:00     -117.219       28.188      -19.436       62.207       66.343       33.264     3869.767     4401.396     1106.462        1.214        0.469      120.561       36.287        0.091      337.951       10.271      855.845
05/06/2014  23:52:00     -123.648      -21.116      -10.518       44.343       49.460       21.501     1966.289     2446.259      462.285        1.036        0.244      125.438       24.210        0.037      337.922       10.222      855.849
05/06/2014  23:53:00      -84.016      -19.180      -17.174       44.346       45.189       24.366     1966.542     2042.039      593.715        0.616        0.230       86.178       22.916        0.071      337.987       10.332      855.847
05/06/2014  23:54:00      -93.634      -26.027       -4.971       44.348       59.342       27.797     1966.721     3521.457      772.646        0.786        0.313       97.184       16.904        0.030      337.898       10.183      855.853
05/06/2014  23:55:00      -69.277      -35.266       10.596       56.017       53.548       31.419     3137.941     2867.351      987.162        0.657        0.350       77.737       36.591        0.222      337.863       10.123      855.864
05/06/2014  23:56:00      -50.458       -1.127        4.872       50.921       48.502       31.464     2592.971     2352.396      989.973        0.425        0.297       50.471       29.435        0.340      338.004       10.361      855.862
05/06/2014  23:57:00      -63.360       42.965       -1.038       51.722       75.112       27.781     2675.212     5641.803      771.803        0.747        0.454       76.554       19.502        0.065      338.056       10.448      855.868
05/06/2014  23:58:00      -77.477       25.843       -9.917       44.609       38.440       17.817     1989.928     1477.653      317.455        0.528        0.189       81.674       16.021        0.038      338.064       10.463      855.871
05/06/2014  23:59:00      -54.669      -26.443       -3.774       39.098       25.374       21.776     1528.675      643.844      474.176        0.317        0.132       60.729       22.902        0.142      337.958       10.283      855.877
